GFSSE_500_spd_000.txt.gz
Wind_Speed
18 18 21 23 21 18 15 13 12 15 21 26 25 29 31 32 30 29 30 26 22 24 26 23 19 19 18 18 22 20 22 21 20 18 16 16 16 15 15 15 14 14 13
22 24 24 30 27 26 27 21 20 18 20 24 27 27 30 33 34 37 31 25 25 26 22 23 24 19 17 17 19 20 20 19 21 20 19 18 19 18 18 17 17 18 17
22 27 30 25 20 25 26 27 23 23 23 27 21 25 34 40 35 27 36 30 27 24 21 24 25 23 23 23 23 16 19 20 19 21 22 22 22 23 22 21 21 20 19
21 23 28 29 27 29 29 27 22 26 28 30 12 25 34 32 38 38 28 31 24 24 24 28 24 25 24 25 29 28 25 20 21 22 22 23 24 25 25 25 24 23 22
29 32 35 36 31 29 33 32 27 27 32 28 30 31 37 40 39 38 28 16 27 27 23 24 26 29 26 29 29 28 26 31 24 23 25 26 27 26 27 28 26 26 26
33 38 40 31 30 30 31 31 34 35 37 37 32 34 36 41 37 38 36 29 30 33 34 29 30 25 32 37 31 26 24 24 26 25 26 28 30 30 30 30 30 29 29
32 32 29 30 32 33 34 32 30 33 34 36 35 35 38 42 39 38 39 35 38 36 36 30 31 34 35 32 28 30 28 28 27 32 31 30 31 31 31 31 32 33 34
29 31 34 37 39 38 38 40 41 43 41 40 38 40 42 42 44 39 37 38 39 39 37 37 36 38 34 36 36 39 39 36 34 32 32 33 33 30 30 31 33 35 36
27 29 33 35 38 38 39 39 39 38 39 40 42 40 42 48 48 48 45 44 46 42 43 49 47 45 42 38 40 35 39 38 39 36 34 35 33 31 30 30 32 35 35
26 27 31 33 35 36 37 37 34 33 36 36 35 36 36 36 47 52 53 52 50 51 54 53 53 52 49 42 41 36 40 40 43 42 40 38 36 36 34 33 33 34 35
24 26 28 30 33 33 32 32 33 33 33 35 37 39 37 37 38 42 53 57 58 57 58 61 60 61 56 51 46 43 41 42 44 50 44 43 40 40 39 37 36 36 37
26 28 30 30 30 30 31 31 29 30 31 32 35 39 41 43 42 45 50 62 63 66 67 62 63 65 64 57 49 50 49 47 43 49 48 46 45 44 44 42 39 38 38
28 28 29 29 30 33 34 35 36 36 36 37 40 44 47 48 48 46 47 41 71 63 59 60 55 73 63 61 57 52 52 50 48 50 61 46 47 46 46 45 42 38 38
28 31 30 31 33 34 34 30 29 28 28 28 28 30 34 37 34 35 35 33 47 35 48 50 29 40 57 69 60 55 54 53 51 46 41 50 54 48 50 48 46 40 40
11 12 13 14 13 16 19 21 20 19 19 19 21 23 24 25 27 27 32 36 34 54 53 64 53 56 54 42 51 57 57 57 53 54 49 48 61 56 53 50 48 47 43
11 11 12 13 15 16 18 20 23 24 24 28 30 31 32 33 32 30 29 29 28 31 37 53 48 50 65 67 61 59 59 57 57 51 51 44 53 60 60 55 51 49 47
17 18 18 20 22 25 26 29 32 32 34 34 34 36 37 39 39 37 37 35 36 33 32 31 40 49 44 41 42 54 61 61 61 60 58 57 59 57 60 66 59 54 50
20 22 23 27 29 30 33 34 36 38 39 40 41 41 41 42 44 43 42 42 40 40 40 38 36 38 39 45 51 45 44 50 53 57 62 61 59 49 57 59 58 56 54
27 28 30 31 32 34 36 38 40 42 44 45 46 46 46 46 47 47 46 47 48 45 46 46 44 42 43 43 41 47 45 51 55 56 60 63 61 58 51 63 60 59 58
32 33 33 34 35 37 39 42 44 46 48 49 51 52 52 53 53 52 51 50 50 51 51 50 49 49 49 48 48 46 46 48 50 55 61 61 58 57 56 60 61 63 61
34 34 35 36 38 40 42 44 45 48 51 52 53 55 57 58 58 57 57 57 56 55 54 54 54 54 54 53 53 52 51 50 52 49 57 65 65 55 60 62 66 73 64
34 36 38 40 42 44 47 50 52 55 56 57 58 59 61 63 64 63 62 61 60 60 59 59 59 59 59 59 58 57 56 57 56 55 53 51 58 62 57 61 57 73 68
37 39 41 44 47 49 51 53 56 61 61 62 63 65 67 67 69 68 66 65 65 64 64 64 64 64 63 63 63 63 64 64 63 60 60 59 56 58 61 63 60 72 73
38 41 45 48 50 53 55 57 60 63 65 66 66 67 70 71 70 72 71 68 67 68 68 67 66 67 68 70 70 70 68 68 69 70 68 67 66 61 61 68 68 71 59
40 45 48 52 55 57 59 63 64 66 67 70 72 70 70 70 70 71 73 71 67 68 67 68 68 68 70 71 71 72 73 72 74 76 76 77 75 69 63 66 71 70 74
44 47 50 54 58 61 63 65 66 68 71 71 70 71 73 70 69 72 74 72 70 70 70 69 69 68 69 70 73 76 78 79 81 84 85 81 82 75 71 66 70 76 70

GFSSE_500_spd_003.txt.gz
Wind_Speed
22 25 31 32 30 25 28 26 26 25 25 27 31 32 34 33 30 32 35 33 31 29 28 26 25 24 24 24 23 24 22 22 20 18 19 18 17 17 17 18 17 17 17
22 24 22 23 24 27 24 23 30 27 23 26 31 31 38 29 38 42 38 32 35 31 31 27 25 21 23 24 19 21 18 18 20 22 20 19 20 19 18 17 18 19 18
22 23 26 27 30 34 33 24 34 27 28 30 31 32 37 37 39 39 39 42 38 35 33 29 28 27 24 19 15 14 13 17 18 22 22 21 22 22 21 21 20 20 19
24 25 27 29 32 32 30 29 32 31 33 34 33 37 40 39 42 34 40 30 47 21 27 31 31 25 21 20 20 20 18 24 22 21 21 21 23 24 23 23 22 22 21
28 30 31 32 35 34 33 36 35 32 29 36 38 37 36 43 44 46 44 33 37 30 30 28 30 32 27 19 17 21 27 27 32 26 24 24 24 25 27 26 27 25 26
31 34 38 41 40 41 37 31 32 28 29 28 33 39 46 47 48 43 42 43 39 41 31 28 24 19 20 20 23 25 30 34 34 36 32 31 28 27 29 30 29 28 27
37 38 39 41 40 36 36 33 32 30 31 34 35 37 41 41 45 42 43 42 45 43 31 23 26 27 25 25 23 28 30 36 37 36 39 37 35 34 34 33 33 32 33
33 36 37 35 34 36 38 37 37 39 41 40 41 42 43 46 46 46 46 48 49 44 39 39 39 34 34 32 31 30 29 37 38 37 38 38 39 35 35 37 36 35 35
35 32 30 30 30 30 30 32 34 37 38 37 36 36 38 42 44 42 38 39 48 51 43 46 51 42 41 42 38 32 31 38 38 40 41 42 40 43 37 37 37 37 37
32 32 28 28 28 28 27 30 31 33 32 32 34 35 38 39 42 43 41 40 42 48 50 48 50 50 49 48 45 45 40 41 45 48 47 45 41 42 39 37 38 42 40
27 27 27 27 26 26 26 27 29 29 29 30 32 35 37 38 40 42 43 44 44 45 49 54 54 56 55 55 53 50 46 44 45 45 48 47 44 45 42 42 41 41 44
24 26 27 28 29 28 29 30 31 31 32 32 34 37 39 42 45 47 50 50 50 52 52 53 54 63 63 58 54 53 53 51 47 50 49 47 45 49 47 46 45 43 42
28 29 30 30 31 30 30 33 35 35 36 37 37 38 39 42 45 46 48 47 45 46 53 56 62 61 65 69 60 56 61 59 53 55 55 53 47 49 54 49 51 49 46
13 13 13 14 15 15 15 15 15 16 17 18 19 20 23 22 22 20 20 25 31 38 44 50 51 47 55 39 49 63 59 62 60 56 60 58 55 50 54 49 54 53 49
6 6 7 8 10 13 15 17 19 21 23 24 26 27 29 30 30 31 30 29 29 31 33 35 37 48 41 59 54 48 50 59 65 58 58 58 54 53 57 60 55 54 55
10 9 10 13 14 16 18 22 24 27 31 32 33 35 35 35 36 38 37 37 37 35 34 34 31 33 27 41 67 55 53 54 72 58 59 57 58 57 47 49 58 59 55
17 18 20 22 24 26 27 28 29 31 32 34 36 37 38 39 40 39 39 39 39 41 40 37 37 32 34 35 38 40 48 62 51 53 55 61 60 63 64 56 55 51 60
26 26 27 28 30 31 32 35 37 39 41 42 43 45 46 45 45 45 45 45 43 43 44 44 42 39 37 33 34 37 39 36 45 35 53 59 59 60 59 58 57 56 49
24 25 26 27 28 30 33 37 40 42 45 47 49 51 53 53 53 52 50 49 48 47 47 46 45 45 43 40 38 35 35 36 38 36 40 37 43 48 55 58 62 56 55
24 26 26 28 29 32 36 39 42 44 48 49 52 54 56 57 58 57 57 55 54 53 51 49 49 49 47 45 43 42 40 38 36 40 41 41 41 42 49 51 56 58 59
25 25 27 29 31 35 38 41 44 48 50 53 56 57 59 59 58 59 62 61 60 60 57 54 53 51 50 51 49 49 46 45 45 41 43 44 43 49 47 49 53 56 55
30 31 34 35 36 40 44 48 52 55 57 59 61 63 64 66 67 64 63 63 64 63 63 61 58 57 55 54 53 53 52 51 49 48 46 49 51 47 51 51 50 53 53
33 34 37 40 43 45 49 51 53 58 63 66 68 68 69 69 70 72 68 68 65 65 64 61 60 61 61 60 59 57 56 56 54 51 50 50 52 54 54 49 51 51 53
39 42 45 48 49 51 52 55 58 59 63 67 71 72 71 71 73 72 73 74 73 68 63 60 63 63 63 61 62 62 60 59 58 58 55 55 56 57 59 59 56 52 54
45 47 51 52 53 56 59 58 62 64 68 69 70 73 72 71 69 70 71 72 72 72 70 62 62 64 63 63 62 62 61 61 61 61 62 60 61 61 63 63 63 61 56
49 51 53 54 57 59 61 62 66 69 72 73 73 73 71 67 66 67 66 67 68 68 69 64 61 62 62 61 60 61 63 64 64 66 66 66 67 65 68 67 67 66 66

GFSSE_500_spd_006.txt.gz
Wind_Speed
14 9 17 21 25 31 29 30 31 30 31 31 32 33 37 35 36 31 35 34 32 33 34 35 32 31 31 31 33 31 28 26 23 23 21 21 20 18 19 17 15 16 17
15 18 22 25 28 24 22 24 27 28 27 30 34 37 37 39 37 37 25 32 37 38 35 42 41 36 34 35 33 30 27 25 23 24 23 23 21 19 20 18 19 18 19
15 17 22 25 26 27 26 29 27 31 25 34 31 30 35 39 40 37 37 38 31 39 37 36 42 37 34 37 32 28 24 19 22 24 23 23 21 20 20 20 21 21 19
21 22 26 29 32 33 34 33 32 31 30 31 36 34 41 42 42 40 40 49 51 30 26 30 31 29 38 40 30 25 21 19 17 20 24 22 24 24 23 23 23 23 22
27 29 32 33 34 33 34 36 38 37 35 29 31 34 35 39 43 41 39 46 43 37 35 32 34 23 34 36 37 35 28 24 18 20 20 25 24 25 25 26 26 25 24
32 33 35 37 40 42 41 40 39 37 31 32 27 29 32 34 32 38 40 39 39 35 36 42 37 28 30 32 32 28 25 20 21 22 22 27 29 28 28 28 28 28 28
36 37 38 39 39 40 39 39 38 35 31 32 31 35 37 39 38 38 43 43 41 40 43 42 45 55 24 21 22 13 19 21 21 25 25 29 32 33 32 32 31 31 31
29 31 33 35 35 34 30 27 27 30 30 31 33 35 35 37 40 34 35 38 40 39 38 42 39 40 41 39 33 26 20 24 25 28 32 30 33 38 39 39 37 36 35
31 33 34 34 31 28 27 27 26 25 26 27 29 30 32 33 35 35 35 37 37 37 38 40 36 33 34 30 35 39 33 31 33 32 36 36 34 37 41 42 42 42 40
23 23 25 25 21 22 25 25 26 26 26 26 28 29 28 31 33 35 36 38 38 39 39 38 38 38 34 40 40 40 42 43 38 38 36 41 38 39 41 41 44 41 42
21 22 24 25 23 25 27 23 24 25 25 27 28 29 31 35 38 38 37 40 42 43 45 45 45 43 43 40 42 45 42 48 49 47 42 41 45 44 47 43 43 43 46
21 23 25 26 26 26 26 25 24 26 28 29 30 31 32 33 36 38 40 41 42 44 46 48 47 44 43 47 50 47 53 54 56 53 50 45 46 45 52 48 47 46 45
15 15 15 17 16 15 15 14 12 13 15 17 19 20 21 22 24 26 28 26 25 29 30 28 32 37 42 48 47 50 58 61 62 59 58 47 45 47 50 51 49 49 48
11 11 11 12 13 14 14 13 14 16 16 17 20 21 23 24 26 29 31 32 31 30 32 35 32 34 37 39 37 42 36 45 60 63 58 54 49 50 52 54 49 46 51
12 13 13 13 16 17 17 19 19 22 23 24 26 28 29 31 34 35 35 35 36 35 34 34 33 33 34 35 36 44 35 42 43 66 72 63 59 53 55 58 54 52 49
15 15 16 17 19 20 21 24 26 27 29 30 32 33 35 35 35 37 39 40 40 40 40 39 37 36 34 33 34 31 34 35 44 41 49 45 58 63 60 60 59 58 55
18 17 19 20 22 24 24 27 29 31 34 35 37 39 40 42 43 43 43 43 45 46 46 45 45 44 41 39 36 33 31 36 37 47 59 54 49 65 64 60 59 58 58
20 20 22 24 24 27 29 32 33 34 37 38 40 43 45 48 50 51 51 50 50 49 47 47 49 49 48 44 41 38 37 32 30 39 32 53 51 54 66 65 63 58 61
21 22 23 23 25 26 29 32 33 36 40 42 44 45 46 48 51 53 54 54 54 53 51 50 50 49 49 48 47 44 41 39 36 32 31 34 33 39 52 63 63 62 61
23 25 27 28 30 32 34 36 39 40 45 46 49 51 50 54 56 59 61 59 58 58 57 57 56 54 51 50 49 48 47 44 41 39 36 33 34 34 35 33 37 48 54
28 29 32 35 36 36 41 43 46 48 49 51 52 55 55 58 60 64 70 71 70 65 60 59 59 59 59 56 51 49 49 50 47 46 44 40 37 35 36 37 37 37 40
33 36 39 42 44 45 46 50 51 53 54 57 59 62 63 63 63 67 67 66 68 69 69 67 64 60 59 58 57 52 50 51 53 51 50 48 47 44 42 41 43 41 38
35 38 42 46 49 51 52 55 56 56 58 60 64 66 67 69 71 70 67 67 68 67 66 67 67 66 62 58 58 57 53 52 54 55 55 54 53 51 48 47 47 47 43
41 41 44 49 49 50 53 54 56 59 60 61 64 68 71 74 74 74 71 68 68 66 64 64 64 63 63 63 61 58 58 55 54 54 57 57 57 56 55 53 51 51 48
45 48 48 51 50 51 56 57 58 58 60 63 67 71 74 73 71 70 67 65 62 64 63 65 62 61 61 62 61 59 59 58 56 55 56 58 61 61 59 57 56 57 53
50 51 52 53 52 54 56 59 60 60 62 67 71 72 70 67 65 64 61 61 59 59 62 63 63 62 60 59 60 59 57 59 57 56 57 59 59 60 62 60 58 55 55

GFSSE_500_spd_009.txt.gz
Wind_Speed
32 27 6 8 18 24 25 31 25 29 30 31 32 30 31 34 35 35 40 33 31 39 34 37 36 36 38 37 35 33 32 30 29 26 23 24 25 23 19 18 19 19 20
24 20 10 18 22 25 25 21 21 22 26 26 31 29 31 35 38 36 32 38 33 49 45 33 44 44 42 44 42 39 38 32 30 27 27 26 25 23 21 23 22 21 20
15 17 14 19 20 23 21 21 24 28 27 25 31 28 30 33 31 34 38 37 37 35 34 46 43 45 48 49 51 40 35 34 31 29 29 29 26 25 25 25 25 24 23
20 14 19 21 24 25 27 30 32 36 34 33 32 32 29 35 36 35 34 37 37 35 41 26 38 29 44 34 45 43 37 35 31 30 28 29 28 27 26 26 25 24 22
20 21 23 27 30 30 32 32 34 37 40 40 37 30 30 30 31 31 35 33 29 33 33 32 29 34 42 31 22 37 38 34 30 28 26 26 27 28 29 28 26 25 24
30 29 28 29 32 34 37 41 44 43 39 34 32 30 27 26 26 33 31 33 33 34 38 38 36 33 38 35 33 30 38 37 32 28 26 22 26 28 30 31 31 30 29
29 31 33 36 38 39 41 38 37 32 29 27 28 31 31 32 33 33 34 31 33 31 31 33 31 29 29 33 36 39 8 19 28 31 24 23 22 27 31 33 32 32 31
29 30 31 33 33 34 36 36 31 29 27 25 22 24 25 26 29 31 30 30 33 31 31 29 30 30 28 26 27 29 32 35 27 20 24 22 21 28 31 33 33 34 34
21 27 29 32 33 34 33 26 26 28 28 27 26 25 25 26 27 28 30 29 30 33 30 31 32 31 30 28 27 26 25 23 28 30 25 25 29 30 34 36 35 35 36
19 21 20 21 21 23 21 21 24 25 25 23 23 23 23 25 25 27 27 28 29 31 35 35 34 32 33 33 30 27 28 30 30 34 35 32 28 35 36 39 38 38 39
18 19 20 20 17 18 19 19 23 24 23 22 23 24 25 25 25 25 26 27 28 29 30 28 30 29 28 28 29 32 32 31 36 40 44 38 33 36 41 42 43 41 42
12 13 16 16 14 14 14 10 10 10 12 13 14 15 17 19 17 17 19 22 23 25 26 26 24 23 24 23 23 27 32 37 40 42 49 47 42 42 41 41 48 45 46
11 8 8 8 9 10 12 13 12 10 10 12 13 17 19 20 23 25 26 28 29 30 31 31 30 27 25 25 25 27 28 36 38 45 50 54 52 46 45 45 47 53 49
12 13 12 11 13 15 16 16 16 19 18 20 23 24 25 27 28 30 32 33 33 33 33 34 36 37 34 30 30 30 30 29 29 38 55 55 58 54 54 53 50 53 51
14 12 15 16 18 18 20 21 21 22 24 25 27 29 30 32 34 35 36 36 37 39 38 39 38 37 38 38 34 33 32 32 27 32 40 48 60 64 61 58 56 54 53
17 16 18 19 21 22 23 26 27 27 28 28 29 32 33 34 36 37 38 39 40 42 42 42 44 44 44 42 42 41 37 33 31 31 36 46 49 57 67 66 59 58 57
17 19 22 21 22 24 25 27 29 31 32 33 34 35 36 37 38 39 40 40 42 42 44 45 46 47 48 49 47 45 44 42 35 35 34 41 41 46 51 59 69 66 59
17 18 20 22 23 26 27 30 31 32 34 34 34 37 39 39 41 43 44 45 47 47 48 47 46 47 49 49 51 50 48 44 44 43 38 37 38 36 50 54 62 61 74
20 21 24 27 29 31 34 36 37 38 41 43 43 44 45 47 49 50 51 52 54 54 54 55 60 57 50 50 52 53 52 50 48 47 46 42 42 41 40 50 58 53 62
23 25 27 29 30 33 35 39 42 43 45 47 50 52 51 52 54 54 56 56 56 59 61 62 61 61 60 55 53 54 54 54 53 52 50 50 46 44 40 41 45 57 59
24 26 31 36 38 38 43 46 47 48 48 50 53 55 55 56 58 58 59 61 62 65 66 65 64 64 64 63 61 56 57 57 57 58 56 54 52 50 45 42 41 38 47
32 37 39 40 43 47 49 48 50 50 50 53 55 57 59 60 60 60 61 65 68 70 71 67 67 65 65 65 63 61 58 59 60 61 59 60 58 54 52 49 46 42 42
38 37 40 45 48 51 51 51 51 51 52 54 57 59 62 62 63 66 68 70 72 71 70 67 63 62 63 62 64 63 60 59 60 60 62 61 64 60 57 56 54 51 46
40 43 45 48 49 52 55 56 54 53 55 57 58 61 62 63 65 68 70 72 72 70 64 60 59 57 60 63 62 59 60 60 60 59 60 63 66 66 64 62 61 59 57
40 38 42 48 49 51 51 53 57 59 58 58 57 59 64 66 66 69 71 72 71 67 62 60 60 59 58 57 57 59 58 59 61 60 58 60 67 69 69 68 66 65 65
38 42 46 48 50 50 52 54 55 58 58 59 59 60 62 66 68 69 69 67 63 60 59 60 59 58 60 61 61 58 58 57 57 61 61 59 63 70 72 72 72 72 71

GFSSE_500_spd_012.txt.gz
Wind_Speed
26 23 25 20 12 19 23 26 24 26 34 22 25 26 28 28 32 31 33 33 35 35 32 34 32 42 37 40 38 35 40 39 37 36 32 28 28 26 21 23 25 23 26
31 28 19 13 20 23 18 22 12 21 24 22 24 29 24 29 30 32 33 36 31 32 33 35 32 36 41 39 42 41 39 44 41 39 37 32 31 27 22 24 25 22 20
29 22 10 13 16 20 21 17 20 19 26 26 32 28 26 31 32 33 31 31 36 34 32 35 33 32 30 31 32 42 44 47 45 39 40 38 33 28 26 25 24 23 22
32 25 13 14 18 22 23 24 26 29 30 32 35 36 37 35 33 31 35 36 31 30 32 28 29 30 28 30 34 34 43 53 45 43 41 38 34 32 29 26 24 24 24
18 14 16 17 22 25 29 29 32 32 36 38 41 40 38 34 30 30 31 32 27 30 31 31 31 33 31 32 29 34 36 43 49 42 42 40 35 32 31 29 26 26 26
26 26 26 25 27 29 32 35 38 40 43 42 35 31 29 30 29 29 27 28 31 33 35 34 36 34 27 28 24 25 36 28 43 39 37 34 32 31 29 28 27 28 28
25 26 28 29 32 35 37 39 40 39 37 34 29 28 26 28 31 31 31 33 36 34 34 30 32 31 28 27 24 22 18 28 12 45 35 30 30 31 30 29 29 30 31
20 20 24 26 28 31 32 33 31 31 28 27 28 29 28 26 26 27 27 27 28 28 29 29 28 27 27 28 26 22 21 16 13 20 34 31 31 31 31 31 32 33 34
16 18 21 22 25 26 24 23 24 24 22 23 24 24 23 22 23 23 22 23 24 24 27 27 26 28 26 25 26 23 22 18 12 21 21 27 36 34 31 33 34 36 36
15 18 18 19 19 19 19 21 24 25 23 26 24 23 23 23 23 23 23 21 20 18 18 17 15 18 18 19 17 20 23 20 21 22 26 26 27 26 31 34 38 40 39
13 12 12 15 15 14 12 14 17 17 18 18 19 20 18 16 14 13 14 15 17 18 19 20 17 15 18 17 17 13 14 18 25 29 32 31 32 35 35 35 41 42 42
11 14 11 7 4 5 6 7 8 8 9 9 9 11 14 17 19 20 20 22 23 25 27 27 27 24 22 20 19 21 18 19 21 26 33 38 37 41 41 42 43 43 44
10 11 12 14 14 14 15 15 17 17 18 18 20 21 22 23 24 26 27 29 29 30 30 32 31 31 31 29 26 25 27 26 26 31 31 41 46 47 49 45 45 45 44
11 14 13 14 16 18 19 18 20 21 22 24 25 26 28 29 29 30 30 32 33 34 34 34 34 34 34 34 35 34 34 32 32 32 31 34 44 51 52 53 51 49 48
12 14 18 18 19 21 24 24 24 25 26 28 29 29 30 32 32 32 33 33 34 36 35 35 35 36 37 37 37 37 39 38 38 36 34 35 33 48 56 57 60 55 54
14 15 18 19 21 22 24 25 25 26 27 29 30 31 31 33 34 35 35 36 37 37 37 37 37 37 38 40 41 42 41 40 41 41 39 39 38 36 49 62 63 65 60
18 19 21 22 22 24 25 28 29 30 32 33 34 35 37 38 38 39 40 41 41 41 42 42 44 44 43 41 41 43 45 46 44 44 44 42 43 42 38 43 53 68 71
17 17 18 21 24 26 28 30 32 34 36 39 41 44 45 46 47 46 45 46 47 47 48 49 49 50 51 51 51 50 48 49 50 49 48 47 46 47 47 46 42 55 65
18 20 21 22 24 29 32 36 37 39 43 45 45 47 49 49 51 52 51 52 54 53 53 53 54 53 55 57 58 58 55 54 53 55 54 52 51 51 52 50 47 46 51
24 27 29 32 37 38 37 40 44 45 45 46 48 49 50 51 54 55 55 56 56 57 56 56 57 58 61 63 64 62 60 58 58 56 59 58 57 56 56 56 55 48 48
32 36 39 42 42 43 45 47 49 51 52 52 54 53 52 52 55 57 58 60 61 60 59 61 62 62 64 67 65 66 65 62 59 61 60 62 63 62 60 60 60 57 53
33 35 40 43 46 47 50 51 54 55 54 54 54 56 58 58 58 58 60 61 60 58 59 62 63 64 65 66 67 67 65 62 62 61 62 65 67 67 66 65 64 64 60
35 36 37 39 45 50 51 53 54 54 53 54 58 58 58 60 61 61 61 61 63 62 61 63 65 66 66 66 67 67 66 65 61 60 62 64 69 72 72 70 69 68 67
34 35 36 38 44 49 51 55 57 59 59 58 57 58 60 60 61 61 62 62 62 65 66 67 68 68 63 61 64 65 68 69 67 64 56 59 65 70 73 76 75 73 71
42 43 44 45 47 51 49 50 56 57 58 60 58 58 59 59 58 60 63 65 66 65 66 69 72 70 65 63 63 65 66 66 67 68 64 57 57 64 68 73 79 77 77
49 49 47 48 51 52 54 54 55 57 56 57 56 57 58 60 60 60 62 63 65 68 69 70 69 68 69 69 69 70 65 62 60 63 64 59 59 58 62 68 74 80 80

GFSSE_500_spd_015.txt.gz
Wind_Speed
32 37 35 31 18 20 27 22 20 16 18 20 17 15 21 28 27 29 29 35 30 29 31 32 28 32 29 33 28 38 42 35 34 35 38 35 33 29 27 20 20 21 28
35 38 36 30 29 26 18 21 14 10 10 13 18 23 24 33 27 31 31 34 32 31 29 32 32 32 27 31 25 27 37 44 42 36 35 39 37 32 28 29 22 23 25
38 40 25 20 15 15 19 19 18 19 22 25 27 30 34 36 38 37 36 37 35 32 33 35 28 28 29 26 21 26 32 25 41 43 40 41 41 37 33 28 24 24 26
40 40 38 37 20 16 20 24 24 28 28 31 32 33 36 40 39 38 34 35 31 29 30 31 26 29 30 28 28 27 27 36 33 37 43 47 43 41 36 29 27 25 25
29 29 31 20 16 18 23 23 26 30 34 35 36 38 42 33 32 32 29 29 27 26 27 28 30 32 34 32 30 30 26 27 35 33 34 45 45 44 37 34 30 28 27
24 25 18 20 26 27 27 30 34 36 37 39 40 36 32 28 28 28 29 29 29 30 31 33 34 34 32 32 28 27 24 24 23 34 35 30 49 44 40 38 34 32 32
18 22 25 29 31 31 31 32 33 33 32 30 30 30 27 28 27 27 25 27 30 32 34 35 33 30 28 27 26 27 23 22 23 24 28 26 37 38 40 40 36 35 33
16 21 25 26 26 26 26 24 25 27 27 26 24 23 24 26 27 26 26 26 27 28 29 29 28 26 25 25 24 25 25 23 22 20 15 27 34 37 37 36 34 36 32
17 20 21 21 20 18 19 21 23 23 23 22 23 24 24 23 23 24 24 24 24 25 25 26 24 20 20 21 23 24 24 25 23 22 13 20 42 40 42 35 35 34 33
19 20 19 18 17 16 17 17 18 18 18 18 19 18 19 21 20 19 19 19 18 15 14 15 15 14 14 14 14 13 16 25 23 23 19 21 30 44 42 43 40 37 36
8 7 6 7 7 8 11 14 17 17 17 18 17 15 14 14 16 16 15 16 18 18 19 21 21 21 20 19 17 17 16 15 16 21 23 21 26 31 42 44 43 41 42
10 10 10 7 6 7 9 13 15 15 16 18 18 18 19 21 22 24 25 25 26 26 26 27 27 26 25 22 21 20 21 21 18 19 24 30 32 33 37 45 44 43 45
13 9 7 7 9 11 13 15 19 22 22 22 24 24 25 26 26 27 28 28 29 30 31 32 32 32 31 30 28 26 24 25 24 24 26 25 29 35 42 46 46 47 47
12 15 14 15 16 18 19 20 20 22 24 25 27 28 27 29 30 30 30 32 32 32 32 33 32 33 33 34 34 32 29 29 30 30 30 32 33 34 35 47 54 53 52
14 14 16 17 18 20 20 21 21 23 23 25 27 29 30 31 32 33 34 34 35 36 36 36 36 35 35 35 36 37 36 33 33 34 36 38 38 37 38 36 48 58 57
17 18 19 21 20 20 22 24 25 26 28 30 31 32 34 36 38 39 40 42 42 42 42 42 42 43 43 43 42 42 41 40 38 37 38 38 42 44 43 42 37 48 63
20 20 21 23 25 26 27 27 28 30 33 36 39 41 43 44 44 44 45 46 47 46 46 46 47 48 48 48 48 47 46 47 47 46 44 46 45 45 48 47 44 43 46
18 20 21 23 26 29 32 36 39 40 39 40 43 46 48 49 49 49 49 49 50 50 50 51 51 50 51 52 52 52 51 50 50 50 51 52 51 49 48 52 51 49 49
18 22 26 29 33 36 39 42 43 42 43 45 49 51 52 53 54 54 53 53 54 54 54 54 55 55 56 54 54 54 55 54 55 56 57 56 55 53 53 52 56 57 55
28 32 33 33 37 41 42 43 45 47 48 48 49 51 53 54 54 55 57 59 59 58 57 57 58 60 60 59 58 58 59 59 59 58 58 58 57 57 57 57 59 61 62
26 30 32 36 39 41 42 44 49 50 50 53 54 53 52 53 56 59 59 60 60 60 60 60 60 61 60 61 62 63 61 61 61 62 61 61 60 59 60 61 62 65 66
32 32 34 36 40 45 48 48 50 52 51 54 54 56 59 62 62 61 59 59 60 61 61 60 59 58 59 60 61 62 62 63 64 67 68 66 65 63 61 63 66 68 70
33 33 35 39 44 49 53 55 55 53 55 54 56 59 62 65 65 65 63 61 60 60 60 61 62 61 59 61 62 63 64 65 67 69 71 70 68 66 66 67 69 72 75
33 35 39 43 48 50 53 55 59 57 58 60 63 64 64 64 64 65 64 63 63 64 66 67 67 67 66 63 64 64 65 66 70 71 70 70 69 69 69 69 71 74 78
39 41 46 50 54 54 53 54 56 57 58 59 59 59 60 61 62 63 63 64 66 67 68 69 69 69 68 68 69 71 70 69 69 71 68 66 67 69 67 66 68 73 76
46 51 54 56 58 55 55 56 59 59 57 57 58 61 61 63 64 66 67 68 66 64 65 66 66 67 69 68 69 71 71 72 72 72 68 65 66 64 66 67 67 66 71

GFSSE_500_spd_018.txt.gz
Wind_Speed
25 26 27 29 33 34 41 33 28 21 21 22 5 11 15 19 25 25 26 29 31 31 29 27 27 31 30 25 26 25 18 25 31 35 37 34 34 34 26 30 32 31 30
26 28 31 34 36 28 29 27 20 15 13 19 19 26 27 30 31 31 33 33 35 36 34 30 26 28 30 24 22 24 23 25 25 22 37 40 37 35 29 30 28 25 27
29 32 33 24 24 26 26 32 24 24 33 27 22 23 24 29 29 31 30 32 35 34 29 24 24 25 27 24 21 21 21 23 25 23 23 46 43 38 34 30 31 30 27
36 36 30 25 21 26 29 24 24 24 26 33 30 30 32 33 32 35 30 30 32 28 25 25 25 25 23 26 28 26 25 26 26 24 22 23 29 46 40 34 35 33 31
24 21 18 16 15 18 17 20 25 29 31 33 34 34 36 36 35 31 28 26 25 24 27 25 26 26 28 28 29 28 27 26 28 24 22 21 24 28 40 45 39 35 34
19 17 15 16 19 23 27 27 29 32 33 34 32 31 29 30 31 28 28 26 26 24 26 28 30 30 31 33 32 28 27 25 25 24 23 20 24 28 37 40 43 38 37
15 17 18 21 24 26 27 28 27 26 27 25 26 25 24 23 24 25 27 28 27 26 24 26 28 29 31 30 28 28 26 26 26 27 22 22 21 22 36 36 38 38 39
15 16 20 22 21 19 19 21 21 23 23 23 23 23 22 22 23 23 22 22 23 23 23 23 24 25 26 26 26 26 24 24 26 26 23 21 19 20 36 42 36 39 39
17 17 18 19 20 21 21 21 19 16 16 16 16 17 18 20 20 22 21 22 23 24 24 23 21 17 16 18 19 19 21 25 27 27 23 21 22 23 29 38 35 38 44
8 9 11 12 11 11 9 7 10 11 11 12 13 13 13 13 13 14 15 16 16 16 16 16 16 16 16 17 19 17 15 16 22 27 27 24 26 23 33 37 40 42 40
9 8 6 6 6 7 9 12 14 15 17 18 19 19 18 19 21 22 23 22 22 21 21 22 22 23 23 23 23 22 20 19 19 18 20 22 22 21 35 40 41 38 43
7 8 10 12 13 14 16 17 18 18 18 19 20 21 21 22 23 25 26 26 26 27 26 27 27 26 26 26 26 27 26 23 22 21 20 18 24 24 27 41 46 50 47
6 7 10 12 13 13 13 14 16 18 19 21 22 23 23 23 24 25 26 27 27 28 28 28 27 28 28 29 28 28 29 29 29 27 26 24 23 28 33 34 33 41 44
14 14 12 12 13 14 16 18 19 21 22 24 26 27 27 29 29 31 33 34 36 38 38 37 36 34 33 32 31 32 30 30 30 31 32 31 29 28 30 32 37 42 51
10 13 15 16 16 17 18 18 20 22 24 25 27 29 30 32 35 36 37 38 38 39 40 41 42 42 41 41 39 39 38 36 34 34 35 34 32 35 35 35 37 38 40
12 14 17 20 21 22 23 24 26 28 30 33 36 37 37 37 39 40 41 43 43 44 44 43 42 43 44 44 44 43 44 43 42 40 38 39 39 38 36 38 42 44 45
22 24 25 24 25 27 28 30 33 35 37 40 42 43 43 44 45 46 46 45 46 46 45 44 45 47 47 47 47 47 46 47 48 47 46 44 43 44 43 42 42 43 47
19 21 23 26 29 31 33 35 37 39 42 44 44 44 46 45 46 46 48 48 47 47 47 48 50 52 53 53 53 53 52 52 52 52 52 51 49 48 48 49 48 48 47
22 26 29 31 32 34 38 40 42 44 45 46 47 49 50 50 51 52 52 51 52 54 54 56 56 56 55 55 55 56 57 58 57 56 56 56 55 53 53 54 56 54 52
29 32 33 36 38 39 40 41 41 43 45 48 50 51 53 53 54 55 56 58 59 59 58 59 58 58 59 59 59 58 58 59 58 57 57 58 60 61 60 59 58 59 58
32 33 33 38 40 41 41 45 48 50 51 53 54 55 56 56 56 57 58 59 61 61 60 60 59 59 59 58 58 57 58 59 59 59 60 62 63 64 63 61 59 58 59
31 32 35 40 43 45 47 52 55 55 57 57 57 56 58 60 62 63 63 62 61 61 61 62 61 59 56 55 57 59 59 60 62 63 64 65 65 64 63 62 60 60 60
34 36 39 42 46 49 52 56 55 56 58 59 59 56 56 58 59 60 61 62 63 64 64 65 65 65 63 62 59 60 62 62 61 62 63 65 67 65 64 63 62 62 62
34 36 41 44 46 50 54 56 56 56 57 56 55 56 57 58 58 59 61 63 64 66 67 68 69 68 68 67 67 63 61 62 63 64 64 64 66 68 67 67 65 64 64
41 44 48 50 51 53 53 56 57 56 54 55 54 56 58 60 62 63 65 67 68 69 69 68 69 68 69 67 67 67 61 62 62 65 64 62 61 63 65 66 68 68 68
46 48 50 50 50 52 54 55 55 56 58 59 62 63 64 65 67 69 72 74 75 75 74 74 72 70 68 64 62 62 63 64 65 65 66 64 64 62 60 60 62 67 70

GFSSE_500_spd_021.txt.gz
Wind_Speed
17 20 22 24 25 29 31 28 33 28 18 17 14 19 28 30 21 21 20 22 22 26 28 27 25 23 23 24 21 21 24 27 29 24 23 27 33 37 34 29 31 28 29
21 23 26 30 33 34 33 31 23 22 23 20 36 28 29 21 23 25 24 27 27 31 28 27 23 20 21 23 23 20 20 20 22 18 22 18 22 36 38 37 36 31 29
26 30 32 32 32 31 27 22 22 23 28 25 24 24 24 25 25 24 26 28 29 28 27 25 21 22 21 23 22 23 21 22 21 19 19 19 17 27 36 40 38 35 29
27 26 22 20 20 17 16 19 20 23 27 25 28 27 29 30 27 25 26 26 25 25 23 20 23 24 23 26 22 23 22 25 25 25 24 20 21 22 22 41 39 39 35
20 20 19 16 13 12 22 23 26 26 27 29 30 30 28 26 26 27 27 26 23 22 23 22 23 25 27 28 27 27 27 28 28 24 24 24 23 22 21 23 30 45 38
19 18 16 13 17 20 24 24 23 23 23 24 24 24 24 22 22 21 22 22 23 23 24 23 22 22 23 25 27 29 28 28 27 27 27 25 24 24 22 29 31 37 45
15 16 18 18 19 19 18 17 17 18 19 19 19 19 19 19 19 20 21 21 20 19 18 19 20 21 22 23 24 26 26 27 27 27 27 28 24 29 27 27 32 37 42
15 16 15 15 15 16 17 15 13 12 11 12 13 12 12 13 15 15 15 17 17 18 18 20 21 22 22 21 21 22 23 25 26 27 27 28 27 28 27 29 32 35 41
8 8 9 9 10 11 8 8 7 9 10 13 16 16 15 13 13 14 14 15 15 15 14 14 15 15 15 15 16 16 17 19 21 24 26 26 27 25 30 29 32 37 41
7 7 8 8 9 9 8 10 12 13 15 16 16 17 17 17 17 18 19 20 20 20 19 19 19 20 20 20 20 19 19 19 19 20 19 21 26 27 30 31 31 39 40
6 7 8 9 10 10 11 12 14 15 15 16 15 16 16 17 18 20 21 21 22 22 23 23 24 24 25 24 24 24 24 23 23 22 20 19 20 26 26 29 31 31 35
7 8 10 11 12 14 16 16 16 16 16 15 17 17 17 17 18 19 19 20 21 23 24 24 26 26 27 28 27 26 26 26 26 25 25 24 20 20 27 26 26 34 35
4 5 7 10 11 13 14 15 16 17 17 18 20 21 22 23 25 26 27 28 28 27 27 28 29 29 29 30 31 30 28 27 27 27 26 26 27 26 24 25 31 35 42
7 8 9 11 13 15 17 18 20 21 22 23 23 25 27 30 33 34 34 35 35 35 34 34 33 33 33 34 35 35 35 34 33 31 30 28 28 29 29 29 30 31 34
11 13 15 16 17 18 19 21 23 26 28 30 32 34 36 39 38 38 39 40 41 41 41 40 39 38 38 37 37 38 38 39 40 40 39 37 34 32 33 33 33 36 36
14 16 18 21 23 25 26 28 30 33 35 36 36 37 38 38 38 38 40 41 42 42 42 43 43 42 40 40 40 39 40 41 42 42 43 43 42 41 38 38 38 37 39
24 25 25 26 27 28 28 30 31 32 34 37 37 37 37 38 39 40 41 42 42 42 43 43 42 43 44 44 45 46 47 47 46 46 45 46 47 47 46 45 44 44 43
26 26 26 28 31 32 31 34 36 38 39 39 40 42 43 44 45 44 44 44 45 45 46 48 49 49 50 50 50 49 49 50 50 50 49 49 50 51 52 51 51 50 50
29 27 27 31 35 37 39 40 41 42 43 43 45 46 47 49 51 50 49 49 49 49 50 51 51 51 50 50 51 51 50 50 52 54 54 53 53 55 57 58 56 56 56
32 32 35 38 39 40 40 41 43 45 47 49 52 51 52 53 52 51 51 51 52 53 54 54 54 53 52 52 52 52 52 52 53 54 55 55 56 56 57 59 61 60 61
32 33 34 38 40 41 41 43 47 50 52 53 56 54 54 55 56 57 57 57 58 58 58 57 57 57 57 57 58 57 56 55 55 56 56 56 56 56 57 57 60 62 63
31 32 37 40 40 40 44 49 51 51 53 55 55 55 56 56 56 56 58 59 59 60 61 61 61 62 62 61 64 63 61 59 59 59 61 61 61 61 61 60 59 60 62
34 36 39 42 43 45 48 50 50 52 54 55 55 56 58 58 60 59 58 60 62 63 64 65 65 66 67 66 64 67 66 63 59 58 60 63 64 65 65 65 63 62 63
36 38 42 44 45 47 48 48 50 53 55 56 55 57 59 60 61 61 63 64 64 66 67 69 69 71 70 72 70 67 69 64 63 61 60 62 65 66 65 68 69 68 67
42 44 45 46 46 46 48 51 52 55 56 58 59 62 62 62 63 66 68 69 71 72 72 72 73 72 74 71 71 67 66 68 66 63 63 65 64 66 67 68 69 70 70
45 44 44 45 47 50 53 56 58 62 64 66 67 69 71 73 73 73 74 76 78 80 80 79 78 77 73 71 71 70 68 66 64 64 64 68 68 65 67 69 69 70 69

GFSSE_500_spd_024.txt.gz
Wind_Speed
19 20 20 22 25 28 31 32 32 29 24 23 19 18 24 17 18 17 17 20 20 24 23 24 23 21 21 20 20 20 20 18 19 23 21 27 25 27 37 36 35 31 31
23 22 24 25 27 29 29 25 28 23 20 19 21 20 19 18 19 20 22 24 25 26 25 22 23 23 22 20 22 21 20 19 21 21 19 22 22 24 26 35 38 36 33
26 26 25 25 24 23 23 21 20 18 18 18 17 18 19 22 24 25 23 24 23 23 22 20 23 21 21 18 20 21 23 22 23 22 23 24 22 23 23 26 39 38 36
25 23 19 21 22 23 22 20 18 20 20 20 19 20 22 24 25 25 24 23 22 22 21 19 19 22 21 20 21 23 23 24 24 25 27 28 28 25 24 25 27 39 41
19 18 19 19 19 17 16 18 19 18 17 15 15 15 16 16 16 16 17 15 15 16 18 21 21 19 20 22 24 27 28 27 26 27 27 27 28 26 28 28 27 32 41
13 14 13 14 13 14 15 15 14 14 15 15 15 15 13 11 11 12 14 15 14 14 15 15 15 16 17 19 21 22 23 25 26 26 27 27 29 28 29 31 29 28 28
9 13 12 11 12 13 13 12 11 11 11 11 12 13 11 10 10 11 12 13 13 14 15 16 15 15 17 17 19 20 21 22 24 26 26 29 28 30 30 31 32 31 34
7 9 10 12 12 10 7 7 8 9 9 11 12 12 12 11 10 10 11 12 12 12 12 12 11 11 11 12 13 14 16 17 19 21 23 27 28 28 32 34 34 33 35
3 5 8 7 6 8 8 9 9 11 11 12 12 12 11 12 12 13 14 15 15 15 15 16 16 16 15 15 16 16 17 17 17 18 19 20 23 27 31 31 33 34 32
8 4 2 3 4 4 5 6 7 8 9 10 11 11 11 11 13 13 14 15 16 17 17 18 19 20 21 20 20 21 21 20 19 19 20 19 19 20 26 31 32 35 34
3 1 2 3 4 4 4 6 8 10 11 12 13 13 13 14 14 15 16 17 18 19 20 20 21 22 23 24 24 24 24 23 22 23 22 22 21 20 20 25 33 34 30
1 3 4 6 7 10 12 14 15 16 17 17 18 18 18 18 19 20 21 22 22 23 25 26 26 25 26 27 28 29 28 28 26 24 22 23 23 23 22 23 26 32 32
5 7 9 11 14 15 16 18 18 18 20 21 22 23 24 26 28 30 32 32 30 30 31 31 31 32 32 31 31 31 32 33 32 31 28 27 25 25 25 26 26 28 29
12 14 15 16 17 16 18 20 22 23 25 26 28 30 31 32 33 34 34 34 34 34 35 36 37 37 37 37 37 36 35 36 36 36 33 34 33 31 29 29 30 30 31
15 16 17 17 17 19 21 24 27 29 31 32 33 33 33 34 33 33 34 35 37 37 37 37 37 37 38 39 41 40 39 38 37 38 38 38 37 37 37 35 35 35 35
18 19 20 20 21 23 25 28 32 33 33 34 35 36 36 35 37 39 40 40 40 41 41 41 40 40 40 40 39 40 41 41 42 42 43 42 42 42 42 42 42 41 41
20 23 24 25 26 28 31 33 34 34 35 36 37 38 39 40 42 44 43 43 43 41 40 41 41 42 42 43 44 45 46 46 46 47 48 47 47 46 47 47 48 47 47
23 25 26 27 28 30 33 34 36 38 39 39 39 42 44 46 49 47 45 45 44 42 41 42 42 42 43 44 45 47 47 48 48 49 50 50 51 50 51 51 51 52 52
27 29 31 33 35 35 37 39 42 42 41 42 45 46 47 49 49 48 47 47 47 47 47 49 49 48 48 47 48 48 48 47 48 48 49 50 52 54 55 55 55 55 57
31 35 36 38 35 37 40 41 42 42 45 47 49 50 51 52 51 51 51 53 55 56 57 58 56 55 53 53 54 54 53 53 53 52 51 51 52 53 56 60 60 61 60
34 36 38 40 39 40 41 43 45 47 49 51 52 52 53 54 56 56 57 57 59 61 62 62 62 62 62 61 61 61 61 60 58 58 56 56 57 56 57 59 62 63 63
36 37 39 40 41 43 45 46 48 50 51 52 51 53 55 57 58 59 61 62 63 63 64 64 64 66 67 65 66 65 66 67 67 61 61 60 60 63 62 60 63 65 65
37 38 40 41 44 46 48 49 49 50 50 51 54 58 60 61 62 64 65 68 69 67 67 67 68 69 69 70 71 70 71 72 73 74 71 63 64 66 67 65 62 66 67
38 40 41 43 45 45 46 48 50 51 53 54 57 61 64 63 65 67 68 69 71 72 73 74 73 73 73 73 76 77 74 71 69 71 71 68 64 64 68 70 67 66 68
42 43 44 43 44 46 49 50 51 55 60 63 65 65 68 71 73 75 75 77 77 77 77 77 76 76 79 79 77 76 75 76 70 70 69 70 72 69 69 68 72 71 70
41 41 42 45 48 51 53 54 56 59 62 67 70 72 74 76 78 80 81 80 79 78 78 79 81 81 80 81 80 79 77 73 73 71 70 66 68 73 70 67 70 74 74

GFSSE_500_spd_027.txt.gz
Wind_Speed
24 24 23 24 24 26 28 28 22 20 18 16 16 17 18 15 13 13 15 18 17 19 22 22 18 16 17 18 20 20 20 21 21 23 23 26 25 26 28 31 35 35 34
26 27 27 26 28 26 21 20 18 15 14 14 13 13 13 14 15 16 17 20 22 22 20 19 19 17 18 18 17 20 20 20 21 21 24 25 29 27 28 27 29 36 40
26 26 27 25 19 20 18 15 10 13 14 13 14 15 15 16 18 17 19 19 18 19 19 19 19 18 18 18 17 17 20 20 22 24 25 26 28 26 27 28 27 30 38
25 21 15 14 14 11 8 7 12 13 13 13 13 13 14 14 12 12 13 13 14 14 15 16 16 18 19 18 17 19 20 23 22 25 26 26 29 25 30 30 29 29 31
12 10 10 11 11 10 11 13 13 13 14 14 14 14 13 12 10 9 9 9 11 12 13 14 14 16 18 19 18 19 20 24 25 27 28 28 30 26 31 31 31 29 30
7 9 10 10 10 10 10 10 10 10 10 10 12 14 13 10 9 9 10 11 11 12 12 13 13 13 14 15 16 18 20 20 21 23 25 26 30 29 28 30 32 31 33
7 7 8 9 8 7 7 6 7 8 9 11 12 12 12 11 9 9 8 9 9 9 9 8 8 9 11 13 14 14 15 16 17 18 20 22 25 27 28 28 32 34 32
3 5 6 7 9 9 8 6 6 6 6 8 8 9 9 9 9 9 10 10 11 11 13 13 12 13 12 12 12 13 13 14 15 16 17 18 18 22 25 27 30 33 34
9 8 7 7 6 5 4 4 5 6 8 9 9 8 8 9 9 10 10 11 12 13 15 15 15 15 15 15 17 17 18 18 19 19 20 16 19 18 19 22 28 32 32
7 5 4 2 2 3 5 7 8 9 10 11 11 12 12 12 13 13 14 15 16 17 17 17 17 18 19 20 21 21 21 22 22 22 24 23 22 20 19 20 23 27 30
3 2 3 4 6 8 9 11 12 13 15 16 17 18 19 20 20 20 21 23 24 26 27 27 27 25 23 22 22 23 25 26 26 26 24 26 25 25 24 23 23 22 25
5 7 8 9 10 12 14 16 18 19 19 20 20 21 22 23 25 26 27 29 30 30 30 30 30 31 31 31 30 31 30 29 29 30 28 29 28 27 25 26 26 25 22
9 10 12 13 15 17 18 20 20 21 22 24 26 27 28 29 29 30 30 30 31 31 32 31 33 35 35 35 35 33 34 34 34 34 33 34 32 31 30 28 28 27 27
12 14 16 17 18 21 22 22 23 24 27 30 32 32 32 33 34 33 33 33 34 37 37 37 37 37 37 36 37 36 35 35 36 37 37 35 37 36 35 34 33 32 31
14 16 18 19 21 23 25 26 28 30 32 35 36 36 35 36 35 35 35 37 39 41 41 39 40 40 38 39 40 41 41 39 37 37 39 34 38 39 38 38 39 38 38
15 18 20 23 26 28 30 32 33 34 36 38 38 39 40 40 39 40 41 42 45 46 42 42 42 41 40 39 39 39 42 43 43 42 44 42 42 42 42 42 42 43 43
18 22 24 26 29 31 32 33 34 36 37 40 42 42 41 41 43 44 44 45 46 43 42 41 41 41 40 41 42 43 43 45 45 44 45 48 45 47 46 47 47 47 47
23 24 27 31 33 33 34 33 35 37 39 41 41 42 43 45 45 45 46 45 44 45 44 45 45 46 46 47 47 48 48 47 48 47 47 48 49 46 47 49 49 50 51
26 29 33 35 35 35 37 39 39 42 43 45 46 47 46 46 46 47 48 49 49 51 53 53 53 54 53 52 52 53 51 51 51 51 52 51 51 52 50 48 51 51 52
29 33 36 38 40 41 43 43 44 46 47 49 50 50 49 50 51 53 55 57 58 59 60 60 62 62 64 63 63 62 61 61 61 60 59 56 57 56 55 58 51 54 55
33 37 39 42 43 45 46 47 49 50 52 53 53 52 53 53 55 57 60 62 62 63 64 65 65 66 67 68 68 65 67 66 67 67 64 63 63 63 60 59 62 58 57
38 41 43 44 46 47 49 50 51 53 54 54 54 54 57 58 58 60 63 67 67 66 67 69 70 71 71 71 68 66 67 70 71 69 71 67 67 66 67 65 65 64 66
41 42 44 46 47 48 51 52 53 54 52 53 55 56 57 59 64 68 69 69 69 71 74 75 76 76 76 74 74 71 70 67 67 68 72 77 73 69 63 68 71 69 66
41 43 46 48 49 49 51 50 50 52 53 56 58 59 61 64 64 68 71 73 74 76 78 78 78 79 79 77 76 75 75 72 69 70 69 69 74 72 71 63 66 71 70
43 45 48 48 48 47 48 50 53 54 56 58 62 65 66 68 70 72 73 74 75 77 78 79 80 81 81 81 80 79 77 74 73 75 74 71 65 75 73 73 71 69 71
44 44 46 44 46 48 51 54 55 57 60 64 66 68 71 73 73 73 74 76 78 80 81 81 81 82 81 83 84 84 85 83 80 79 78 78 77 69 71 71 73 76 73

GFSSE_500_spd_030.txt.gz
Wind_Speed
24 24 24 25 26 25 24 21 18 16 13 12 12 13 14 14 13 14 14 14 16 15 14 13 12 13 12 13 13 18 22 23 24 26 26 29 31 30 29 27 25 25 27
20 23 24 24 22 18 17 17 14 11 10 11 11 12 12 12 14 16 17 18 16 14 13 12 13 13 13 12 11 15 16 21 25 27 27 27 29 30 28 27 27 28 27
28 24 22 19 17 14 12 9 5 7 9 9 10 11 11 11 12 13 13 14 14 14 14 14 15 15 14 15 13 12 13 16 21 23 24 28 32 33 34 29 32 30 29
20 19 15 12 8 7 4 3 6 7 9 10 11 13 12 12 10 9 9 8 9 10 11 11 13 14 16 17 16 16 16 18 20 24 22 29 30 27 29 31 31 30 32
11 11 9 7 8 8 6 7 7 7 7 9 10 11 10 8 6 5 6 8 9 10 10 11 12 12 13 13 14 15 16 17 19 21 21 26 29 26 31 31 30 32 32
8 6 4 6 5 3 3 4 5 6 7 7 9 10 12 11 10 9 9 8 8 8 8 8 8 9 9 11 13 14 15 16 19 19 19 20 22 24 25 26 31 31 33
1 0 1 2 5 7 8 7 6 5 6 7 8 9 9 9 9 10 10 10 10 11 11 11 11 11 10 10 10 10 11 13 14 14 15 14 16 19 21 23 25 29 29
5 6 8 9 8 7 6 5 4 5 6 7 8 8 8 9 9 9 10 10 10 10 11 12 13 14 14 14 14 14 14 15 16 17 16 16 18 16 16 17 20 23 25
11 9 6 6 5 4 4 5 6 8 9 10 10 11 12 12 13 13 13 13 14 15 15 16 17 17 18 18 19 19 19 20 20 20 18 17 20 20 20 19 19 19 21
7 5 3 3 5 7 8 10 11 12 13 15 16 16 16 16 17 18 19 19 20 22 24 24 23 23 22 21 21 22 23 23 24 26 22 21 23 22 23 23 23 21 20
3 4 6 7 9 9 14 14 16 17 18 19 20 20 20 21 22 23 26 26 26 26 26 25 26 26 26 27 27 27 26 25 26 28 25 26 27 26 25 25 26 26 24
5 6 8 11 13 15 16 19 20 21 21 22 22 25 25 27 27 26 26 27 27 29 27 27 29 30 29 30 29 31 32 31 32 31 28 26 30 31 31 29 28 28 29
7 9 11 12 14 16 19 21 24 24 25 24 26 28 28 30 30 32 31 30 30 30 32 32 34 37 37 35 35 33 32 34 34 35 31 28 32 33 33 34 34 33 31
10 11 11 14 16 19 20 25 28 29 30 31 31 31 33 33 33 34 34 34 34 35 36 38 41 42 38 38 39 39 38 36 36 37 37 34 34 36 35 35 36 36 36
12 13 15 18 19 21 25 28 29 31 33 35 35 35 37 38 39 39 37 37 39 40 41 41 43 40 38 36 35 35 36 37 38 39 40 38 35 37 36 36 37 39 40
18 19 20 20 22 25 28 29 30 32 35 36 38 38 39 39 40 40 41 43 43 42 42 41 40 40 39 38 37 36 36 38 39 38 39 41 39 41 42 42 41 41 42
20 22 21 22 24 29 31 30 33 35 37 39 41 42 43 42 44 44 45 45 44 42 42 43 43 44 44 45 45 45 45 43 43 46 44 44 44 42 44 45 45 45 45
23 23 26 29 31 32 35 35 38 41 42 44 45 48 46 44 48 46 45 45 44 44 46 47 49 50 50 50 50 50 50 50 50 48 47 48 49 47 46 47 48 47 48
24 26 31 36 37 36 40 40 42 44 45 48 50 51 49 49 48 46 48 48 49 52 54 55 56 56 58 57 57 57 58 58 59 59 57 54 51 55 55 51 52 53 53
26 31 34 39 42 42 43 44 46 48 50 52 52 53 50 51 50 51 53 55 56 57 58 61 62 62 63 62 62 63 63 65 67 67 67 65 63 61 58 61 59 56 56
30 35 37 41 42 46 45 48 52 53 55 55 55 55 53 54 53 55 56 58 60 63 65 67 67 66 66 67 68 66 66 66 67 68 69 70 70 68 67 66 64 64 61
34 38 41 44 47 48 49 53 53 54 55 54 54 55 57 58 57 59 61 64 66 67 68 68 69 69 69 69 70 72 71 69 68 68 70 68 68 71 71 71 70 64 62
39 42 45 48 48 48 52 55 54 53 52 53 56 58 59 61 65 66 69 69 69 70 71 72 73 74 75 72 72 74 76 76 75 69 66 64 62 62 62 63 69 68 64
42 45 47 48 50 50 52 52 52 51 53 56 58 60 63 65 66 68 70 71 73 74 75 75 74 71 71 72 72 74 75 76 76 76 71 68 67 66 64 60 65 61 61
44 46 47 50 50 50 48 48 51 53 54 58 61 63 64 66 69 71 71 73 74 74 75 77 78 78 77 79 77 77 77 78 81 84 80 77 73 71 67 61 65 61 67
45 47 47 49 47 50 50 50 53 56 57 59 63 66 69 70 72 72 73 73 75 76 78 79 81 82 82 81 81 83 83 82 81 87 88 85 83 80 75 70 64 59 68

GFSSE_500_spd_033.txt.gz
Wind_Speed
24 19 15 20 21 21 22 24 23 21 20 20 16 15 15 16 17 18 19 19 19 18 18 16 14 16 14 14 14 17 20 22 22 25 24 26 25 27 24 19 18 20 22
17 18 24 21 22 22 19 18 18 16 12 11 13 13 13 14 15 16 17 19 19 18 16 15 15 14 13 13 15 13 16 19 20 23 26 27 28 28 31 24 22 24 22
21 23 21 21 16 12 10 9 7 6 7 7 9 11 11 10 10 10 8 9 8 7 7 9 9 11 12 14 13 13 14 15 18 20 23 21 27 28 31 28 24 23 25
23 20 15 12 9 8 9 5 4 3 4 5 7 8 8 6 5 5 6 7 7 6 7 8 8 9 9 10 11 13 13 15 17 19 17 19 27 25 30 32 25 21 23
15 13 11 9 6 7 4 2 2 4 7 8 9 10 11 10 10 9 10 9 9 8 7 7 7 8 9 9 10 11 11 13 15 16 16 17 20 24 31 32 27 23 25
12 9 5 5 4 1 4 7 8 5 5 4 4 5 6 7 7 8 8 9 9 8 9 10 10 10 10 10 10 10 10 11 13 14 15 18 20 21 20 19 24 28 27
7 6 5 5 8 9 8 6 5 3 3 4 5 6 6 6 6 6 7 8 10 10 10 11 12 13 13 12 12 12 12 12 13 13 12 14 17 19 17 17 19 23 26
8 8 10 10 8 7 5 4 3 4 6 7 8 9 9 10 10 11 10 10 10 11 11 12 14 16 17 17 17 17 17 17 17 15 16 17 19 20 19 19 19 19 20
12 11 9 6 3 2 3 5 7 9 10 11 12 12 13 14 15 14 15 16 17 18 18 20 20 21 20 20 19 20 21 21 22 21 20 20 21 22 23 22 23 22 20
9 7 4 2 4 5 7 8 10 13 15 16 15 15 17 17 20 21 21 21 22 21 21 23 22 21 21 22 23 23 23 23 25 24 22 23 26 26 26 25 25 25 23
4 4 1 3 5 7 9 12 14 17 18 20 19 20 21 20 22 25 25 25 26 25 24 24 23 22 23 24 25 26 26 26 29 31 29 26 28 29 29 29 29 27 26
3 2 3 5 6 10 14 15 16 18 20 22 23 23 24 23 23 23 25 25 27 28 27 27 28 28 28 29 30 31 31 30 29 31 29 30 31 32 31 31 32 32 31
3 6 7 9 11 11 12 14 19 22 24 24 27 27 26 27 28 30 30 30 30 29 29 30 32 34 34 36 37 34 31 32 33 33 31 29 29 32 33 33 33 34 36
7 7 12 13 15 16 18 18 21 21 25 26 26 28 31 32 35 37 36 36 35 34 34 34 35 35 35 34 33 34 33 30 30 32 32 30 31 32 35 36 36 36 36
9 10 14 17 19 18 21 24 28 29 32 33 33 34 34 36 38 41 41 43 42 40 40 40 39 37 35 34 33 31 32 36 35 34 34 34 33 33 35 36 37 37 38
17 15 15 20 20 22 25 28 30 32 35 35 36 37 37 38 41 43 43 45 43 41 40 39 38 37 37 37 39 41 40 37 37 40 39 38 39 38 38 39 39 40 41
23 23 20 18 24 28 30 31 35 33 37 39 39 40 42 42 45 46 46 45 41 39 39 39 40 42 43 44 46 46 46 45 44 42 44 46 42 42 42 43 43 43 44
24 26 25 25 25 21 34 30 34 36 39 42 46 48 46 45 45 46 45 44 45 45 46 47 48 50 51 53 54 54 54 52 51 49 47 47 48 50 48 46 46 48 48
27 28 28 29 28 34 40 36 40 40 42 48 51 53 52 49 45 43 44 47 48 50 52 53 55 57 59 59 60 60 60 60 59 57 56 55 54 54 53 54 53 52 53
29 29 30 35 38 39 41 41 41 46 49 51 54 53 53 51 49 50 52 54 54 56 56 58 60 61 61 63 64 64 63 63 63 64 64 64 63 61 59 59 60 60 59
27 30 34 39 42 44 45 48 46 51 54 56 55 54 52 52 54 56 56 57 59 60 62 63 65 66 67 69 70 70 70 70 69 67 67 67 68 69 69 65 64 65 63
32 35 37 41 44 48 50 51 51 52 54 53 53 55 57 57 57 59 61 62 64 66 68 69 71 73 74 76 77 76 75 72 72 71 70 70 71 72 73 74 73 71 73
36 39 42 44 47 50 50 49 50 50 49 50 52 54 56 60 62 64 67 70 72 73 74 75 76 76 75 76 76 79 80 81 80 77 75 74 72 72 71 72 74 75 72
38 42 46 47 48 47 49 50 48 47 49 50 53 58 60 61 64 66 69 72 74 76 78 78 79 79 79 78 77 78 80 82 83 82 77 75 74 73 73 72 70 62 59
41 44 47 48 49 49 45 42 44 47 50 54 58 61 63 65 68 71 72 73 76 77 77 78 78 79 81 82 83 83 81 80 83 85 80 78 77 78 78 77 78 75 72
40 42 45 48 49 49 49 49 49 51 54 58 61 64 67 70 72 72 73 75 75 76 77 79 80 82 81 81 80 81 82 82 83 86 87 85 82 80 83 85 83 80 78

GFSSE_500_spd_036.txt.gz
Wind_Speed
18 23 20 15 20 22 21 21 21 21 21 19 15 15 15 15 17 17 17 18 19 20 22 21 19 18 19 18 17 18 20 22 26 26 26 21 22 20 22 22 17 15 14
20 16 19 22 21 19 15 12 14 13 9 10 13 13 13 13 13 15 15 15 15 16 15 15 17 18 18 19 18 17 17 18 18 20 24 24 27 20 19 21 20 16 17
22 21 22 18 14 11 8 9 6 5 7 9 9 9 8 7 8 10 10 11 11 11 11 10 12 12 13 15 17 17 17 18 18 14 16 21 24 24 21 17 20 19 17
24 23 16 13 10 8 9 8 6 4 2 5 7 9 10 9 9 8 8 7 8 8 9 9 10 11 11 12 12 13 15 17 18 16 14 17 21 23 25 25 23 23 19
23 14 13 10 7 7 5 3 2 5 5 4 5 6 5 5 5 5 5 6 7 8 8 9 9 10 11 11 12 12 13 14 16 14 14 15 18 21 23 26 22 19 16
13 12 9 5 4 2 5 7 6 4 2 3 3 3 3 3 4 4 5 6 7 9 10 11 11 13 13 14 14 14 14 14 13 12 13 14 15 20 19 21 21 23 19
10 6 4 4 8 8 7 5 2 1 2 4 6 7 8 9 9 9 10 10 10 11 12 13 13 13 15 15 17 18 18 18 17 17 17 17 18 21 19 17 17 19 21
7 6 9 10 8 6 3 2 2 4 6 7 9 11 12 14 13 13 15 15 16 16 17 19 19 19 20 20 20 20 21 21 21 21 20 20 21 24 23 23 22 20 19
10 11 10 8 4 1 1 3 5 7 9 11 13 15 16 18 17 17 18 19 19 20 22 22 22 22 21 21 20 22 23 24 24 24 24 24 25 26 27 27 27 26 25
12 10 7 3 2 4 5 7 9 10 12 13 15 18 18 21 20 21 21 22 22 22 24 24 24 24 23 21 20 20 21 24 25 27 27 27 28 28 28 29 29 29 29
9 7 4 3 6 8 9 10 11 12 14 16 18 20 21 22 24 24 23 24 25 26 26 27 26 25 24 25 25 26 26 27 30 29 27 27 30 33 33 33 32 31 32
7 7 6 8 10 10 10 12 13 14 17 20 22 22 22 23 24 26 27 28 28 27 28 29 29 28 28 29 29 30 31 32 32 31 30 30 31 32 33 33 34 34 34
6 8 9 10 12 14 14 14 14 17 21 25 27 27 24 25 26 28 29 31 32 32 32 33 33 33 34 34 34 33 33 31 29 31 32 32 31 32 34 34 34 35 36
8 11 11 13 15 17 16 16 18 21 24 26 27 29 30 30 31 34 35 36 37 37 37 36 35 35 35 34 32 32 31 30 29 29 30 32 32 32 33 35 36 37 38
10 13 17 17 18 20 19 20 22 24 26 27 28 29 30 31 36 40 41 41 41 40 39 37 34 32 32 33 34 32 32 33 36 37 37 38 38 37 37 38 38 37 38
11 13 15 22 24 21 24 27 26 28 32 29 32 33 33 37 42 42 43 42 41 39 36 35 35 35 35 36 37 39 39 39 39 41 44 44 44 44 43 42 42 42 41
15 14 17 20 25 28 26 21 26 34 36 37 37 39 41 43 43 43 42 43 41 39 39 40 41 41 41 42 44 45 46 47 48 49 48 48 48 49 50 50 47 47 46
21 24 24 22 22 24 25 24 31 34 36 40 41 42 42 45 43 42 41 41 41 42 44 45 46 46 48 49 49 51 52 54 55 55 55 54 53 53 52 53 53 53 53
25 28 30 27 26 29 32 35 35 38 40 38 42 44 47 45 41 39 41 44 45 46 48 49 51 53 54 54 56 57 58 58 59 60 62 63 61 60 59 58 57 59 58
25 29 28 30 31 33 38 43 46 44 45 45 48 49 48 46 45 45 45 47 50 51 53 54 57 59 61 62 63 63 64 65 66 67 69 69 70 69 68 66 64 64 64
25 29 31 34 39 43 46 49 47 50 49 48 52 51 49 48 48 50 53 55 57 59 59 61 63 65 67 69 71 72 73 73 73 74 74 75 75 75 75 74 72 70 69
31 31 36 42 45 47 50 51 52 53 53 54 53 52 52 53 56 58 60 62 63 65 67 68 70 71 74 76 77 79 79 78 78 78 78 79 79 79 79 80 80 79 77
35 38 41 44 46 48 50 51 52 52 52 51 51 51 54 56 59 61 63 67 70 73 76 77 78 80 82 84 84 84 85 84 83 80 78 80 80 80 80 81 83 83 83
34 37 40 43 46 48 50 51 52 50 48 49 52 55 57 60 62 67 70 73 77 79 80 82 84 86 87 87 85 83 86 88 88 82 82 82 81 81 80 79 80 81 83
35 37 40 44 47 47 48 47 46 46 47 49 52 55 58 62 65 69 73 76 78 80 82 83 82 83 85 84 81 86 88 89 91 90 82 81 79 80 81 81 81 82 82
39 40 46 49 49 48 45 44 45 45 46 51 56 63 67 70 74 77 80 81 82 81 80 80 82 83 85 85 87 90 88 87 87 88 87 83 84 81 83 85 85 86 86

GFSSE_500_spd_039.txt.gz
Wind_Speed
23 19 23 25 20 23 23 21 15 14 15 15 14 16 16 15 14 16 16 15 16 16 17 17 17 18 19 21 20 18 20 19 19 21 21 22 24 21 21 19 17 16 21
23 26 23 21 23 22 18 11 10 11 8 9 12 14 14 12 11 12 12 13 14 14 15 16 16 17 18 19 18 19 19 17 17 16 17 17 17 16 13 15 15 12 15
32 29 27 23 21 16 11 7 8 6 4 6 6 7 8 8 8 8 9 9 10 11 12 12 13 14 14 16 17 17 17 17 17 16 18 18 18 18 15 15 13 15 15
31 26 24 21 17 11 6 6 2 1 3 4 4 5 5 5 4 5 7 7 8 9 10 11 13 14 14 15 16 17 17 17 15 14 14 15 16 18 18 17 14 13 12
31 27 22 16 10 6 4 2 4 5 3 1 1 2 3 4 5 6 8 9 10 10 11 12 14 15 15 16 17 17 16 16 15 14 14 14 16 17 17 19 18 13 12
27 19 16 9 4 3 6 6 5 3 1 2 4 6 6 7 9 10 11 11 13 13 14 14 15 16 17 17 18 18 18 18 16 16 17 17 18 18 17 17 17 18 14
17 13 8 4 8 9 8 6 4 4 4 6 8 10 11 13 14 15 16 17 18 19 19 19 20 21 21 22 23 23 22 21 20 18 19 20 20 21 20 19 19 18 17
14 9 8 11 10 8 7 5 4 5 7 10 12 13 15 17 18 19 20 20 22 23 23 23 25 25 27 28 28 27 26 25 24 25 23 22 24 24 24 22 22 22 21
10 10 14 12 8 7 5 6 6 8 10 13 14 16 17 19 19 21 22 23 25 27 27 28 28 28 28 28 28 27 25 24 24 25 26 27 28 28 27 26 25 25 25
12 15 12 8 7 7 7 8 10 12 14 16 18 18 20 21 22 23 24 24 24 25 26 28 28 29 29 29 27 28 28 27 26 26 27 27 29 32 33 32 30 28 28
13 11 9 9 9 8 10 12 14 16 18 19 20 22 23 23 24 24 23 24 25 27 28 29 29 29 29 29 29 29 30 32 32 32 32 32 31 31 32 33 34 34 33
10 10 9 10 11 12 13 15 17 19 21 23 23 25 24 24 25 27 27 27 29 29 31 32 32 32 33 33 33 32 33 33 33 32 31 29 30 32 34 35 35 34 35
10 10 10 12 13 16 17 18 21 24 23 24 27 26 26 27 26 28 28 29 31 32 34 34 33 33 32 32 32 32 33 33 32 31 30 29 27 28 29 32 34 35 36
10 10 10 13 16 18 19 21 25 24 24 28 30 29 27 28 28 28 32 36 35 35 35 34 33 31 30 30 31 31 31 31 33 33 32 32 32 32 33 35 35 35 36
10 12 15 15 18 20 22 24 23 26 24 27 29 28 29 29 30 36 38 38 38 35 34 34 33 31 31 30 31 32 32 33 35 37 38 39 39 39 39 40 41 41 42
12 15 17 18 20 22 23 24 24 22 27 27 30 29 33 35 37 37 40 42 39 36 34 33 33 34 34 34 35 36 36 37 38 40 42 45 47 47 46 46 46 46 46
14 15 19 19 22 23 24 21 23 21 28 32 37 37 34 37 38 40 43 42 39 37 36 37 37 37 37 38 39 40 42 43 44 46 47 48 49 49 51 51 50 49 50
16 18 21 21 24 23 26 29 28 29 32 39 38 40 42 42 43 43 42 41 41 40 40 41 42 43 44 45 45 47 48 50 51 52 53 54 56 56 55 55 54 55 54
21 22 21 22 18 25 25 29 33 42 44 44 44 44 45 44 47 43 40 40 41 43 45 45 46 47 48 49 50 52 54 55 57 58 59 60 61 62 62 63 63 62 61
22 21 24 24 26 29 36 42 43 46 46 47 47 47 52 50 47 44 43 43 43 45 48 48 51 54 55 57 59 60 61 63 64 65 66 66 67 67 68 71 72 71 69
21 21 26 29 35 43 45 48 49 48 48 51 54 53 54 50 48 48 47 49 52 54 57 60 62 63 65 67 68 68 69 70 70 72 73 75 75 76 76 77 78 78 78
25 27 31 36 40 43 46 49 52 54 55 56 56 56 52 51 51 51 54 57 61 65 67 69 72 74 76 76 77 76 75 74 75 77 79 82 83 82 82 81 81 82 82
28 32 36 42 47 50 52 53 54 56 57 57 56 53 52 51 52 57 61 67 71 73 74 77 79 82 83 84 85 86 85 83 83 81 81 83 84 84 85 86 86 86 86
33 39 38 40 43 47 50 52 57 59 59 57 54 54 54 57 61 65 69 73 76 79 81 83 84 86 87 87 87 87 88 89 88 85 83 83 85 87 88 88 88 88 87
39 40 40 40 44 46 51 56 57 55 53 51 51 52 56 59 64 69 73 77 80 82 84 86 86 85 85 85 86 86 87 88 90 90 85 86 86 88 92 91 89 89 88
41 42 40 43 45 50 52 50 49 49 48 49 54 57 61 66 70 74 78 81 84 86 87 87 87 86 86 86 88 89 91 91 92 95 96 94 97 96 96 99 95 92 91

GFSSE_500_spd_042.txt.gz
Wind_Speed
20 22 22 22 26 26 27 24 17 10 8 7 9 9 9 8 8 8 9 10 12 13 12 12 12 14 14 14 16 16 16 15 14 14 17 16 17 17 14 16 16 16 17
23 25 27 30 27 27 25 17 8 6 4 5 7 9 9 7 7 8 8 10 11 11 12 12 13 12 13 14 14 15 16 14 13 15 16 18 16 14 11 12 13 15 13
27 30 29 25 25 23 18 8 5 3 1 4 5 5 5 5 6 7 8 9 10 10 11 13 14 14 15 14 14 13 15 14 12 12 13 15 16 15 13 13 13 13 14
29 31 29 26 22 17 9 4 2 3 3 2 1 2 3 4 5 7 9 11 12 12 13 14 15 16 17 17 17 16 14 15 15 13 12 12 13 14 13 12 11 11 11
31 29 24 20 17 10 5 4 4 4 3 2 3 4 5 6 8 10 11 13 14 14 16 16 17 18 19 19 20 19 18 18 16 16 15 14 12 11 11 11 10 9 10
27 25 18 14 10 5 6 6 6 5 4 5 6 7 8 10 12 14 16 17 18 19 20 21 22 22 23 23 24 24 23 22 21 19 19 18 17 16 14 13 12 11 10
21 19 14 10 6 8 8 8 7 6 7 8 9 11 12 15 17 19 19 21 22 23 24 24 26 26 27 27 28 28 28 26 24 23 22 21 20 21 20 19 18 16 15
14 13 10 8 11 11 9 8 7 8 9 11 12 14 15 17 19 20 22 23 25 26 27 28 30 30 31 32 31 30 29 27 26 23 24 24 24 24 23 22 21 21 20
11 10 11 13 11 10 9 8 8 10 12 14 15 16 19 21 23 24 24 24 25 24 24 24 26 28 29 29 31 31 31 29 27 26 25 25 24 26 26 27 27 25 24
9 11 12 11 11 9 10 9 11 13 16 16 17 20 22 24 24 25 26 25 24 23 25 26 27 28 28 28 29 30 30 30 29 30 30 30 30 31 31 29 27 28 28
11 12 12 11 10 10 11 13 15 17 18 20 21 21 23 27 30 30 28 26 26 26 28 29 31 31 31 30 29 30 30 30 31 32 33 33 32 32 32 32 32 30 28
10 10 10 9 11 12 14 16 18 19 21 23 24 24 26 30 30 29 29 28 27 27 32 34 34 34 34 33 32 32 32 32 32 32 32 32 31 29 28 29 30 31 31
8 9 9 11 13 15 17 19 20 21 24 25 25 26 27 29 28 29 30 30 29 36 36 35 35 34 33 32 31 31 31 30 30 29 30 30 29 28 27 26 27 28 28
9 9 10 13 15 17 19 21 22 24 26 27 26 24 27 28 29 30 32 35 36 35 38 38 36 34 33 31 29 29 30 31 31 31 31 30 31 32 31 32 33 34 34
7 10 12 15 18 20 23 25 26 26 27 26 26 25 28 29 31 35 36 37 39 39 39 39 36 33 31 31 30 29 31 32 33 33 34 36 36 37 37 38 40 41 41
11 14 18 19 21 23 26 27 28 28 29 26 22 25 33 32 33 34 38 41 44 43 41 38 36 35 33 31 31 32 34 35 35 36 37 37 39 40 40 41 41 43 44
14 17 20 23 22 24 26 28 30 30 27 27 26 31 35 36 37 40 40 44 46 44 41 39 37 36 37 38 37 37 38 40 42 44 44 45 45 46 47 48 49 48 48
17 21 23 24 20 23 29 25 30 24 25 30 35 39 40 39 42 42 47 47 47 45 42 40 41 41 42 43 43 45 47 48 48 50 51 51 52 53 53 53 53 54 54
17 18 18 19 21 25 29 29 31 28 26 36 37 45 47 48 49 49 48 47 44 42 41 40 41 43 47 50 52 54 55 57 59 60 60 59 60 62 62 61 61 60 59
22 23 21 18 21 31 28 37 42 44 46 45 44 52 52 53 54 53 51 47 42 39 41 45 50 54 56 58 59 61 64 67 68 69 69 68 67 68 69 70 69 69 69
23 21 22 23 29 37 40 44 50 53 54 57 55 54 55 56 55 54 50 46 44 46 50 54 58 63 65 66 68 70 72 73 74 75 75 76 76 75 75 75 76 76 76
23 17 28 33 37 41 44 48 48 51 54 55 56 58 58 56 54 50 48 50 53 58 62 66 69 72 75 78 79 80 80 81 81 82 82 81 80 80 80 80 80 81 80
28 33 38 42 42 44 47 48 48 54 55 56 56 55 54 52 50 52 57 62 64 68 72 75 78 81 82 82 83 85 86 86 85 83 83 83 84 85 86 85 84 84 84
31 35 40 41 45 49 51 49 53 57 55 53 53 50 49 51 55 59 63 66 69 74 77 81 84 84 85 86 87 88 89 91 91 90 87 84 85 87 88 88 88 88 88
37 40 44 48 50 45 46 48 50 55 53 51 50 51 54 57 60 63 67 71 74 77 80 82 84 87 89 90 91 90 88 88 90 90 88 88 88 89 93 95 95 96 96
39 42 44 42 45 37 41 45 49 52 47 47 51 55 58 61 64 67 70 74 79 82 85 88 90 91 92 93 93 92 91 90 90 92 95 95 94 93 96 98 100 101 102

GFSSE_500_spd_045.txt.gz
Wind_Speed
16 15 19 21 24 27 28 25 20 10 3 2 5 7 7 7 8 8 9 9 9 9 9 9 10 11 12 12 13 14 14 13 11 9 10 12 13 13 13 13 13 14 14
18 17 21 24 26 24 23 18 11 3 2 3 6 7 6 5 4 5 6 9 10 12 12 12 12 12 11 11 12 14 16 15 14 12 12 13 14 14 12 10 11 12 15
18 18 23 25 23 22 17 13 6 4 4 5 5 3 2 3 5 7 8 10 12 13 14 14 15 14 14 12 12 13 15 16 16 16 14 13 13 12 11 9 9 12 12
16 21 24 21 19 17 13 7 6 6 5 4 2 0 3 4 7 9 11 12 14 16 17 18 19 19 19 17 16 15 15 15 15 17 16 15 14 12 11 9 7 7 10
17 21 19 16 13 11 9 6 6 7 5 4 3 5 6 8 10 13 14 16 18 20 21 22 23 23 23 23 22 21 20 19 18 18 17 17 17 16 14 13 11 8 6
18 18 16 11 8 8 6 6 7 7 6 6 7 8 9 11 14 16 18 19 21 22 23 24 25 25 27 27 27 27 26 24 22 21 21 20 20 19 18 17 16 14 12
15 14 12 9 9 7 6 8 8 8 8 9 9 10 12 14 17 19 22 22 23 23 24 25 26 26 26 28 27 27 27 27 25 22 21 21 21 22 22 20 19 18 16
12 11 10 9 8 8 9 8 9 10 10 12 12 13 15 18 20 22 23 24 24 24 24 25 24 24 25 25 25 25 24 24 25 25 23 21 20 20 21 22 23 23 20
9 9 10 9 9 9 9 10 10 11 12 13 14 16 18 22 22 24 26 27 27 26 25 26 26 27 27 27 27 26 26 26 25 24 24 24 25 24 24 25 25 25 24
8 9 8 11 11 10 10 10 12 14 15 16 18 19 21 23 24 26 28 28 27 26 27 28 27 29 30 31 30 29 28 29 30 29 28 27 28 29 29 29 29 28 26
8 8 11 12 10 9 10 12 15 17 18 19 21 22 23 24 25 27 28 27 25 26 26 28 32 36 36 35 34 32 31 31 31 30 31 32 32 32 31 30 29 29 28
8 10 11 9 8 10 13 16 18 19 21 22 23 23 25 25 27 28 30 29 29 28 28 34 36 35 36 37 35 35 33 31 30 30 31 31 32 33 31 29 28 26 26
9 8 7 8 12 14 17 19 21 23 24 25 26 27 28 26 25 26 30 32 32 34 34 35 36 37 37 36 35 34 33 32 31 30 30 29 30 30 30 29 29 27 25
6 6 8 12 15 17 19 21 24 26 27 29 29 28 28 27 27 28 31 34 36 35 37 39 40 40 38 36 33 31 31 31 32 33 33 32 32 30 29 30 31 31 31
6 9 10 13 17 18 21 24 26 28 30 32 33 31 30 28 26 31 34 36 36 40 40 43 43 44 41 37 34 32 31 31 32 32 32 33 34 35 35 35 35 36 36
9 10 13 16 19 20 23 27 29 31 30 34 35 34 32 24 26 32 36 35 39 42 46 46 44 44 42 40 36 35 35 36 36 36 37 38 39 39 40 40 41 41 42
11 15 18 21 23 24 28 31 33 33 34 38 36 24 27 29 32 38 41 41 43 44 46 46 46 44 41 39 37 36 38 40 41 42 43 44 44 45 45 46 47 48 49
14 17 20 23 26 27 29 32 33 32 28 27 29 23 31 47 47 48 44 45 47 47 46 45 42 42 39 38 40 43 46 48 49 50 52 52 52 54 55 54 55 54 54
17 19 20 21 23 24 29 35 37 25 28 34 38 42 39 47 48 48 50 50 46 44 43 42 41 40 42 44 49 51 55 58 58 58 59 61 62 63 63 62 62 62 62
17 19 21 23 23 25 37 33 38 46 45 43 41 41 44 47 48 49 49 46 42 40 39 40 42 45 49 54 57 60 63 66 70 72 72 72 73 73 74 73 71 70 71
22 23 26 25 35 32 31 45 51 49 50 51 51 51 53 52 49 46 43 40 41 44 46 49 52 55 59 63 66 70 73 75 76 77 78 78 79 80 81 81 81 80 77
25 23 22 25 37 42 46 47 49 51 52 51 52 53 54 51 47 45 46 49 52 54 57 60 63 66 69 70 71 73 76 78 79 81 82 82 82 82 83 83 84 85 85
31 33 35 33 36 43 48 47 51 54 57 53 51 53 53 49 46 48 52 55 58 60 63 65 67 69 71 73 76 79 82 83 83 84 86 88 88 88 88 88 89 90 91
30 34 36 38 44 47 47 47 49 51 54 50 50 53 49 47 51 53 55 58 59 61 64 68 73 77 79 82 84 87 89 91 93 96 97 95 95 95 94 91 88 88 89
30 33 37 41 43 45 45 47 46 47 47 50 50 48 50 52 56 57 58 59 65 69 74 78 82 86 89 92 94 96 96 99 102 103 103 100 98 95 96 96 96 96 95
33 35 36 39 47 52 57 53 43 43 48 48 48 51 54 56 59 61 65 69 74 79 83 87 90 94 98 99 100 99 100 100 99 98 96 92 88 83 82 85 89 93 96

GFSSE_500_spd_048.txt.gz
Wind_Speed
21 17 15 16 18 20 20 19 20 16 11 5 3 5 5 5 5 5 7 7 8 8 8 9 9 10 9 8 9 11 13 13 13 13 12 12 12 13 12 12 11 12 12
21 18 17 17 20 20 17 19 15 11 9 6 5 5 3 3 5 6 7 9 9 10 10 11 12 12 12 11 11 12 13 13 14 15 14 13 12 11 10 10 10 12 15
25 19 19 17 20 18 16 14 12 10 9 8 6 3 1 2 4 7 9 10 12 14 16 17 18 18 17 16 16 15 16 16 15 16 16 15 14 12 11 9 8 10 14
27 22 15 17 17 15 14 12 9 10 11 9 5 3 3 4 7 10 13 15 16 17 18 19 20 20 20 20 19 19 19 18 19 19 18 18 17 15 12 10 9 9 9
30 12 12 13 13 13 11 10 11 12 11 8 5 5 6 7 10 13 15 18 19 19 20 21 21 21 22 23 23 23 22 22 22 22 21 21 20 19 17 15 12 10 8
17 6 8 11 11 10 11 12 12 12 10 9 7 7 8 10 13 16 18 20 21 21 22 22 21 21 22 22 22 22 21 21 22 22 22 21 22 21 21 19 18 18 15
7 9 9 10 10 10 13 15 13 11 10 8 8 9 11 13 15 17 20 21 23 23 23 24 23 23 23 24 24 24 23 21 20 21 22 21 21 21 22 21 20 20 21
4 7 10 11 11 12 15 13 12 10 9 10 11 13 14 16 18 20 22 23 24 24 25 25 25 24 25 26 26 27 26 26 24 23 23 23 22 21 22 21 20 19 21
2 9 12 11 12 14 15 11 10 8 11 13 14 16 17 18 21 23 25 25 25 25 25 24 25 25 25 26 29 29 29 29 29 29 27 25 25 24 24 25 25 24 25
10 13 13 12 14 14 12 10 10 12 14 17 18 18 18 21 25 26 26 26 26 26 26 26 25 23 27 31 29 29 30 31 31 31 31 30 29 29 29 29 29 29 29
12 13 13 14 15 13 11 11 13 16 18 20 20 20 21 25 27 28 27 27 27 27 28 28 28 29 31 32 33 34 33 33 32 31 31 32 32 32 32 33 33 32 32
12 12 13 13 12 10 12 14 16 19 21 22 23 23 26 28 31 30 29 26 26 29 31 32 33 31 34 35 37 37 37 36 34 33 31 32 31 32 33 34 34 33 33
12 12 11 9 9 12 15 17 19 21 22 24 25 27 30 32 32 31 31 30 30 31 33 34 34 35 35 37 38 39 38 38 36 35 35 33 32 31 31 32 33 34 33
10 8 8 10 11 15 17 19 21 23 23 25 27 30 34 35 35 35 31 29 29 32 35 36 37 39 40 40 38 39 39 38 38 36 37 36 35 34 34 32 32 33 34
8 9 10 11 13 15 17 20 24 25 27 29 31 34 36 36 38 42 41 32 27 36 38 40 43 42 42 41 40 40 41 40 39 38 37 35 37 37 37 37 37 36 37
11 11 12 12 14 18 20 23 26 29 32 34 35 36 34 35 36 32 35 35 38 36 39 41 43 45 45 43 42 41 40 40 41 39 38 39 38 40 40 41 42 42 42
12 14 15 15 18 22 24 27 30 33 37 37 39 39 33 34 31 43 43 40 44 43 44 44 43 43 42 42 42 41 39 39 40 40 40 43 45 44 47 49 48 48 48
15 16 16 18 23 24 26 27 30 38 39 36 24 32 37 25 38 36 40 45 48 49 46 43 41 40 40 40 40 40 40 42 44 46 49 51 53 54 53 53 55 56 57
17 18 17 19 22 27 28 32 32 38 32 39 47 39 35 35 40 43 46 46 44 42 40 37 35 36 39 41 42 44 46 48 50 53 55 57 59 62 65 65 65 66 65
22 21 22 24 26 31 29 42 34 36 49 47 41 42 44 45 45 44 46 46 42 38 37 40 41 42 44 46 48 51 53 55 57 59 61 62 65 67 68 70 72 74 75
20 23 24 27 30 32 37 46 41 43 46 47 46 46 47 48 48 47 49 46 41 43 44 46 51 53 55 57 59 60 62 64 65 67 68 71 74 76 78 78 79 80 81
22 25 28 30 33 37 41 43 45 48 48 49 52 51 53 52 51 54 53 48 50 52 54 55 56 57 59 64 66 68 71 75 79 80 80 80 82 83 86 87 87 87 87
24 27 31 34 37 39 42 45 49 51 52 53 54 57 51 50 53 54 51 52 54 56 57 57 60 65 68 72 75 78 81 83 86 88 90 92 91 93 94 95 96 98 98
28 29 31 35 39 41 44 48 51 52 57 58 59 50 48 52 51 51 54 56 57 59 60 64 68 73 77 79 83 87 89 91 92 93 94 96 98 100 102 103 101 100 99
24 26 26 28 32 36 41 46 48 47 47 48 49 49 52 52 54 57 59 62 63 65 68 73 78 81 83 87 90 93 96 97 100 102 104 104 105 105 100 96 93 94 97
19 22 26 29 33 36 39 43 45 47 47 49 49 51 53 57 59 62 64 66 68 72 77 80 82 87 91 94 97 99 100 101 103 105 102 95 92 85 80 76 76 76 76

GFSSE_500_spd_051.txt.gz
Wind_Speed
26 30 26 22 18 18 19 18 18 18 16 12 4 5 5 5 4 3 4 5 6 8 9 9 10 11 12 12 13 14 15 15 14 14 13 13 13 12 12 13 13 12 12
29 29 27 24 21 19 19 18 18 17 15 8 7 6 4 2 2 3 4 6 8 10 11 12 13 13 14 14 15 15 15 17 16 16 15 14 13 13 13 11 11 11 12
29 30 30 26 23 18 17 16 16 16 12 10 9 6 2 1 2 5 7 9 10 12 14 15 15 16 16 17 18 18 19 19 19 19 18 16 16 14 15 13 10 10 11
33 31 35 27 21 15 15 16 14 13 11 12 9 5 3 3 5 7 9 11 13 15 16 17 18 18 17 17 17 18 19 21 22 22 21 25 17 19 17 16 15 12 11
36 40 29 32 13 14 15 14 14 13 13 14 10 7 5 6 8 10 13 14 16 18 19 19 19 18 17 17 17 17 18 17 18 21 21 23 20 21 21 19 19 17 14
33 37 34 13 14 14 14 15 15 13 15 13 10 8 7 8 11 13 16 17 18 20 21 22 21 20 19 19 18 19 21 21 20 21 23 19 22 20 21 21 21 20 19
39 33 17 11 14 14 14 15 14 14 15 13 10 9 9 11 13 16 18 20 22 24 25 24 23 22 21 20 20 19 22 24 25 25 25 20 23 22 22 23 21 21 20
31 22 17 12 13 13 14 14 14 14 13 12 12 11 12 13 15 18 21 23 24 24 25 25 23 21 21 20 20 21 25 24 25 26 30 25 27 25 24 24 23 22 21
47 36 20 18 11 12 14 13 12 12 11 13 13 14 15 17 20 22 23 26 26 27 25 26 24 23 22 21 24 26 25 26 27 28 29 31 32 31 29 28 27 26 26
21 4 5 9 14 12 11 11 11 11 12 15 16 17 19 21 23 26 28 30 30 30 27 26 25 27 26 26 28 27 26 27 28 29 30 32 33 33 33 33 32 31 30
4 7 11 11 11 9 11 11 10 12 15 17 19 21 22 24 27 29 32 34 33 33 31 31 31 29 29 30 32 32 31 32 31 31 32 34 34 34 35 35 35 36 35
11 10 8 10 10 11 10 9 12 14 18 20 21 22 23 27 30 32 35 35 34 34 34 32 30 29 31 34 35 36 39 38 37 35 38 35 35 36 35 34 35 36 37
8 9 9 9 10 10 11 12 14 19 21 22 22 24 27 30 32 34 34 34 36 37 35 27 29 33 36 37 39 41 43 42 40 39 40 39 38 36 36 36 35 35 36
9 9 10 10 11 11 12 15 18 21 22 24 25 28 30 31 34 35 31 32 38 40 41 33 41 38 38 41 41 41 42 42 41 41 42 38 39 39 38 38 36 35 36
8 9 10 11 11 12 15 18 21 23 25 27 28 30 30 32 29 26 33 28 33 34 31 36 40 41 43 43 45 45 47 44 42 42 43 42 39 40 39 38 38 39 38
9 9 9 9 12 15 18 21 24 27 30 32 33 33 37 33 33 36 33 38 40 38 39 43 46 45 43 42 41 43 41 41 42 42 43 45 42 42 38 39 39 40 42
8 9 12 16 17 19 21 25 26 30 33 34 36 44 38 35 32 36 32 38 51 45 46 48 46 46 43 42 39 38 38 39 40 42 44 45 45 45 43 44 47 48 46
13 14 15 16 20 22 24 29 32 37 36 46 32 27 32 37 36 33 37 38 41 43 45 48 46 43 40 38 37 38 40 42 43 45 47 47 47 51 54 53 52 56 56
13 16 20 21 23 24 28 29 34 38 39 49 37 37 37 39 40 42 41 43 45 45 47 45 43 41 40 41 42 43 45 45 47 49 51 53 54 56 57 62 61 62 65
16 18 21 23 25 28 31 31 36 39 40 43 50 49 49 43 43 46 46 43 44 46 44 40 41 43 45 47 48 50 52 53 56 57 59 61 63 64 65 67 69 71 71
17 20 23 26 28 30 34 38 42 45 45 44 48 51 50 51 51 48 47 44 46 47 46 47 49 51 53 55 55 56 56 60 64 67 68 68 71 73 75 77 79 80 81
22 23 24 26 28 31 34 38 39 42 45 46 48 50 48 45 42 44 46 50 49 49 52 53 54 55 57 59 61 64 67 68 71 75 77 79 81 81 83 85 87 90 90
23 24 26 27 29 31 33 35 37 39 41 44 47 48 48 48 49 48 50 49 52 53 55 57 58 59 61 65 69 73 76 77 79 80 82 85 88 91 94 95 96 96 98
21 21 20 21 23 26 29 31 34 36 40 42 45 47 50 49 51 53 56 57 57 58 60 62 64 68 71 73 74 77 81 84 87 88 91 93 94 95 99 101 102 102 102
13 15 17 19 21 24 27 30 33 35 38 41 44 48 51 55 57 56 58 60 61 62 65 68 70 70 72 77 81 86 88 91 94 97 100 101 102 102 99 97 94 92 91
14 16 19 23 26 29 31 34 37 40 42 45 47 50 53 56 59 62 62 62 63 66 69 70 73 76 80 85 89 92 95 98 101 102 103 103 100 93 84 79 74 71 69

GFSSE_500_spd_054.txt.gz
Wind_Speed
32 36 37 27 29 27 25 23 22 21 18 14 8 6 9 8 5 3 1 3 4 6 7 9 9 10 11 13 14 15 15 15 15 14 13 14 14 14 13 12 13 14 15
35 32 35 29 31 29 28 25 22 21 16 11 7 10 9 6 5 2 1 3 6 8 9 10 11 11 12 13 14 16 17 18 19 18 16 16 18 16 16 15 14 14 14
33 33 34 31 32 32 30 29 23 21 15 10 11 12 9 6 3 1 3 5 7 9 10 12 13 13 13 14 15 15 16 17 19 18 17 18 17 19 18 17 16 15 15
40 41 36 32 35 34 31 27 21 18 14 10 14 11 8 5 3 3 6 8 9 11 13 14 14 15 15 13 13 14 15 16 18 18 17 14 16 19 17 20 19 17 16
45 45 40 37 40 31 25 20 18 17 13 11 14 11 8 5 6 7 9 11 13 14 16 17 17 17 15 13 14 14 14 15 17 20 17 17 17 18 17 18 19 20 20
45 52 38 36 38 34 22 18 16 16 10 13 13 10 6 6 8 10 13 15 17 18 19 19 19 18 16 14 14 13 14 16 18 19 14 20 19 18 18 20 21 22 21
35 36 32 43 46 32 18 15 15 11 11 14 12 9 7 9 11 14 16 19 20 22 23 23 22 21 18 17 16 15 16 19 20 22 18 19 22 21 22 22 22 22 23
27 33 38 38 34 16 14 12 10 10 12 13 11 10 10 11 14 17 20 22 23 25 26 26 26 25 22 21 20 19 21 22 23 24 20 24 24 23 24 24 25 26 25
32 34 39 34 19 19 16 7 8 10 13 12 12 12 12 14 17 20 23 25 26 27 28 29 30 27 26 26 26 25 26 26 27 27 25 27 26 28 28 28 28 28 29
30 34 21 22 29 15 5 5 9 12 11 10 13 13 16 18 21 23 26 27 27 28 29 30 31 32 31 29 27 27 27 29 32 34 30 31 30 29 30 32 32 33 32
28 18 11 10 4 6 5 9 9 12 10 11 15 18 19 21 23 26 28 28 29 30 29 29 31 34 32 27 25 25 32 33 35 35 37 35 37 35 32 32 34 35 36
18 1 8 7 4 5 10 10 7 7 11 16 19 21 21 25 27 29 31 31 30 30 27 29 30 32 32 29 38 36 37 36 38 39 39 37 39 38 34 34 35 35 37
8 9 5 3 5 7 5 4 8 13 16 20 21 23 25 28 32 31 31 34 34 30 32 22 29 26 29 34 37 42 43 41 41 42 42 41 39 42 40 37 36 37 37
9 9 10 8 7 7 9 11 13 16 18 21 24 25 27 29 31 35 30 25 35 37 29 28 39 42 32 32 36 41 43 44 45 45 48 45 43 41 42 41 39 39 38
8 9 9 9 9 9 9 11 14 17 21 23 27 31 33 33 36 29 30 27 32 30 27 35 44 49 49 42 43 43 47 45 46 46 46 44 41 41 39 40 41 42 40
4 4 4 7 8 8 10 13 17 20 22 24 30 32 37 41 36 28 28 41 36 33 32 36 40 44 48 45 45 47 46 45 42 42 41 41 39 39 39 40 40 41 43
6 7 7 7 9 11 14 17 22 24 27 24 31 31 39 32 41 30 35 36 35 38 36 40 45 47 46 47 48 46 44 39 39 39 42 41 44 42 41 43 43 44 47
5 7 8 10 15 15 18 22 23 26 31 24 32 40 33 44 42 39 36 36 40 43 44 43 42 43 45 44 42 41 41 42 44 44 46 46 49 48 47 47 50 49 53
6 7 10 14 16 18 21 25 30 28 33 36 39 39 42 42 43 43 43 43 43 41 41 39 41 41 40 40 41 42 43 45 47 49 52 53 55 55 56 57 58 59 59
8 10 15 17 18 22 25 28 31 33 34 33 34 35 36 37 40 39 40 40 40 42 42 43 42 43 43 44 45 47 48 48 50 53 57 58 59 62 65 67 68 69 69
14 12 18 19 22 24 25 27 27 28 29 31 33 34 35 37 38 40 44 44 41 42 45 47 47 47 48 50 51 52 52 54 55 59 61 63 67 69 71 73 75 77 79
19 18 19 19 21 23 23 23 25 26 29 31 33 35 37 39 41 44 45 47 50 51 53 53 53 53 54 55 57 58 59 58 60 63 66 69 73 77 80 81 82 83 85
20 20 17 19 18 19 20 22 25 28 31 33 36 37 41 42 44 47 49 51 53 55 55 56 57 57 59 59 61 62 64 65 67 70 74 78 80 83 86 88 90 92 92
21 19 15 15 16 19 22 25 30 33 36 39 41 43 44 45 47 49 52 54 55 56 58 59 60 60 62 63 64 68 72 76 79 79 83 87 89 91 92 93 94 95 96
16 13 15 16 19 23 27 29 33 37 39 42 45 47 49 50 51 51 52 54 56 58 60 61 61 62 65 67 71 75 79 84 88 92 93 94 94 96 97 96 91 85 81
13 15 18 21 23 26 30 33 36 40 43 45 47 50 51 53 55 57 59 60 62 64 64 65 66 67 72 76 80 83 88 92 95 98 98 97 97 93 84 78 72 66 64

GFSSE_500_spd_057.txt.gz
Wind_Speed
38 34 38 41 39 38 34 30 31 28 23 20 19 13 8 11 11 9 6 4 2 2 3 5 7 8 9 10 11 12 13 14 14 14 14 14 13 12 10 12 11 11 12
36 39 37 39 37 33 31 31 31 28 23 19 18 11 11 12 10 8 4 3 3 4 6 8 10 11 11 11 11 12 13 14 14 13 13 13 14 11 12 13 14 14 14
43 36 34 37 31 33 33 33 32 29 27 19 14 13 14 13 9 6 4 4 6 7 8 9 10 12 12 11 12 12 13 14 13 11 11 10 13 14 13 13 14 16 16
33 42 23 33 38 35 34 34 31 29 25 18 12 17 16 11 8 6 6 6 7 9 11 12 12 13 13 13 12 13 13 14 11 9 11 12 10 13 14 14 14 15 16
37 39 40 45 46 40 36 32 32 26 18 15 14 18 15 10 8 9 9 8 10 11 13 14 15 15 15 14 13 13 14 13 15 13 12 15 14 12 13 14 15 14 17
38 37 44 47 49 36 37 34 29 16 17 13 16 18 14 10 9 9 9 11 13 15 15 16 17 18 17 17 16 16 16 16 18 18 13 18 18 16 17 18 19 19 18
30 41 47 45 44 32 37 32 17 15 13 13 18 17 12 10 10 11 12 15 16 18 18 19 20 20 19 18 18 18 19 20 21 21 20 20 21 22 21 21 22 22 23
19 36 32 39 32 36 39 34 15 14 12 15 16 15 12 11 11 14 17 19 19 21 23 23 23 22 22 21 21 23 23 24 23 24 24 25 25 25 26 26 25 26 26
16 30 27 38 38 41 35 22 13 9 10 12 14 13 11 12 16 18 22 22 23 25 26 26 26 23 23 24 25 25 23 27 24 21 21 26 29 28 29 29 29 30 29
21 26 36 42 42 39 24 20 16 12 12 15 8 9 12 16 20 22 24 25 27 28 29 30 28 24 25 25 24 20 20 24 31 30 30 32 34 33 33 34 34 33 32
17 28 34 34 17 11 12 13 12 9 8 7 10 14 17 19 21 23 27 28 28 30 32 33 28 27 25 20 24 24 30 34 37 37 37 38 36 40 39 36 36 35 33
20 26 19 17 14 14 17 16 15 15 14 13 13 13 17 20 23 26 27 28 31 21 26 23 24 27 26 25 30 34 39 30 34 37 40 39 39 40 41 41 38 38 37
31 7 17 21 19 15 13 13 13 10 10 10 12 15 18 19 25 26 28 30 26 17 28 25 24 32 33 34 38 39 40 41 39 39 41 42 42 43 43 44 42 41 38
16 13 15 13 13 13 11 8 5 7 10 11 14 15 19 22 23 26 27 29 28 28 33 32 37 29 35 38 37 37 40 41 43 44 45 45 43 44 41 44 42 44 42
13 14 13 10 7 4 5 5 7 9 11 15 17 19 20 23 27 36 24 35 25 26 36 33 34 35 35 38 42 45 48 48 45 45 46 47 45 43 41 40 38 39 40
12 10 7 5 5 6 4 7 10 14 16 16 18 21 24 27 35 25 38 36 33 31 28 33 35 37 40 41 43 43 43 44 43 42 42 44 42 41 40 39 39 40 40
7 4 3 2 3 5 7 10 11 18 17 23 22 22 28 34 33 35 34 34 32 32 31 34 35 34 35 37 38 40 40 41 42 43 43 43 44 45 44 44 44 44 45
3 1 2 6 6 8 11 14 17 20 23 22 27 28 28 28 28 30 30 29 31 32 34 35 36 36 37 38 38 39 41 42 42 44 45 47 49 51 51 51 51 51 50
2 3 7 6 8 10 14 19 21 23 24 24 25 23 23 24 24 25 28 30 32 34 36 38 38 39 41 41 41 43 43 43 44 46 47 48 50 52 53 53 54 54 54
2 7 10 10 11 14 17 20 20 21 20 20 22 25 27 28 30 32 32 34 37 39 42 43 44 44 45 45 46 46 45 46 47 50 50 52 55 56 58 59 61 62 63
5 10 15 17 16 17 16 18 15 16 19 22 25 28 30 32 34 36 36 38 39 42 44 46 48 48 49 51 52 50 50 50 51 52 53 55 57 60 64 66 68 69 72
12 14 14 13 16 16 14 14 17 20 23 26 28 30 33 36 38 40 42 44 45 47 48 50 51 52 53 54 55 54 52 49 52 55 58 62 65 68 72 76 78 79 81
15 12 12 11 9 10 13 17 21 23 25 28 31 34 38 41 42 45 46 47 48 50 52 53 54 55 56 56 56 56 55 56 57 60 64 69 73 77 80 83 86 88 88
17 10 9 11 13 16 17 21 24 26 30 33 37 40 43 45 46 49 49 50 51 53 54 55 56 56 56 57 57 58 61 64 67 69 72 75 79 81 83 85 86 86 87
13 11 12 13 17 21 23 27 30 33 37 41 44 46 48 50 51 52 53 53 52 53 55 57 58 58 57 57 61 64 68 72 77 80 82 85 87 89 90 89 85 80 75
12 14 15 19 23 26 28 32 36 40 44 47 50 51 54 55 56 57 58 58 58 59 61 62 63 62 61 63 68 72 77 82 86 90 91 92 94 95 88 81 76 72 65

GFSSE_500_spd_060.txt.gz
Wind_Speed
29 29 32 35 40 39 35 36 35 32 31 28 22 20 19 14 13 13 12 9 8 7 5 5 6 7 7 7 8 9 10 10 10 11 11 11 12 13 14 14 13 12 12
29 28 35 41 42 40 35 38 33 31 30 26 21 18 13 12 14 12 11 11 9 8 7 7 7 8 9 9 10 10 10 10 11 11 12 11 11 10 13 14 14 14 13
34 39 40 40 41 49 37 35 31 31 30 26 21 18 14 16 15 13 11 11 10 8 9 10 10 10 10 11 10 11 12 12 12 11 10 11 12 12 11 13 14 14 14
37 39 37 38 41 37 31 34 35 32 29 25 20 17 18 19 16 13 12 11 9 9 10 12 12 12 13 13 12 12 12 13 13 13 13 15 13 15 14 13 13 14 15
40 40 36 37 35 36 36 37 37 34 28 24 17 19 20 18 15 13 13 10 9 10 12 13 15 15 15 14 14 15 17 15 15 14 15 17 16 16 18 18 17 18 17
36 38 36 35 39 39 39 41 38 35 28 17 16 18 21 16 14 14 12 11 12 14 15 16 18 19 18 17 17 15 15 16 16 17 17 21 22 20 18 19 21 22 23
30 31 36 31 35 38 42 32 36 33 24 16 16 20 20 16 13 13 13 14 15 17 18 21 23 22 21 19 19 20 21 20 20 21 21 20 20 22 23 25 24 24 25
30 22 29 24 25 38 40 33 39 30 16 13 16 18 16 15 14 14 15 17 19 21 24 24 26 25 25 23 22 26 27 26 22 20 19 21 20 20 23 26 27 27 28
28 26 23 34 21 26 42 38 31 20 20 15 15 18 14 13 14 16 17 18 23 25 27 29 29 27 25 25 26 25 31 31 24 19 22 23 28 31 30 32 32 33 33
29 20 23 29 42 43 38 36 21 13 11 12 11 13 14 13 16 18 20 22 26 26 28 29 26 29 26 24 26 21 26 29 28 29 31 33 34 35 38 37 34 34 34
25 19 24 36 42 42 47 37 14 13 13 16 14 9 11 16 18 21 20 22 23 26 29 25 25 23 19 33 26 25 27 29 35 35 34 35 36 37 42 42 39 37 36
27 34 30 30 32 19 14 14 17 17 16 12 10 12 12 13 17 19 21 22 23 24 26 23 17 21 31 34 33 32 36 38 38 39 38 43 44 44 41 43 44 42 38
24 46 28 27 12 11 21 18 17 17 13 10 10 11 11 13 17 19 22 24 27 25 25 24 28 29 32 30 32 34 39 40 44 47 47 47 47 45 44 43 42 41 40
39 26 19 21 24 21 19 17 14 12 9 6 7 11 15 19 20 18 22 31 20 27 30 23 29 32 31 31 33 37 38 40 44 46 47 47 46 44 41 40 38 36 37
18 27 21 20 18 14 11 7 2 1 6 8 10 13 16 19 23 26 30 27 27 28 24 24 25 26 29 32 34 35 38 40 40 41 43 44 42 43 41 40 38 36 36
17 16 15 13 12 9 4 4 4 6 9 12 14 18 19 22 24 26 25 25 25 24 24 25 28 30 32 35 37 38 39 40 41 42 42 42 42 43 43 43 43 41 42
12 11 10 6 5 4 3 3 6 10 12 12 18 19 21 21 20 19 20 20 22 25 26 28 30 33 35 37 38 39 40 40 41 42 43 45 46 47 47 48 48 48 47
7 7 5 5 4 5 7 8 9 13 15 18 17 17 16 15 16 18 22 24 25 29 31 31 33 35 36 38 41 42 43 44 44 44 43 44 46 47 48 48 49 50 52
6 8 5 4 6 7 7 10 13 15 16 14 13 13 16 19 22 25 27 27 30 32 34 36 37 39 41 42 43 45 46 46 47 48 47 47 48 49 50 50 50 49 49
4 4 0 2 8 9 11 14 16 14 10 12 14 18 21 23 25 28 30 32 35 37 39 40 42 44 45 46 47 48 48 49 49 48 48 48 49 50 53 54 56 57 57
4 7 11 11 10 11 12 13 10 10 12 17 19 22 24 26 30 34 37 39 41 43 44 45 46 47 48 49 50 51 51 51 51 51 50 51 52 55 58 62 64 66 67
7 8 10 12 11 12 10 9 11 14 17 21 23 27 31 35 38 40 42 43 45 47 49 50 51 51 52 52 53 53 54 53 51 51 53 55 58 62 66 70 73 75 78
8 8 8 11 8 7 10 13 15 18 22 26 29 33 37 40 42 44 45 47 48 50 52 54 54 55 55 56 56 56 57 55 52 52 55 59 64 68 73 78 80 82 84
8 8 6 6 7 10 14 18 21 24 27 31 35 38 41 44 45 46 48 50 51 53 54 56 56 56 56 56 56 57 57 56 57 58 63 68 72 77 82 84 84 85 88
7 6 7 8 12 15 19 23 26 29 33 37 40 42 44 46 47 48 50 52 52 54 55 55 56 57 59 59 60 58 59 62 65 68 70 76 81 85 90 90 91 91 89
7 10 11 14 17 21 25 29 32 34 37 40 43 46 48 50 51 53 54 55 54 56 57 58 59 62 63 64 63 62 64 68 72 76 80 84 87 91 94 94 92 86 83

GFSSE_500_spd_063.txt.gz
Wind_Speed
28 28 29 31 30 30 32 40 40 38 35 34 29 25 22 19 17 14 13 12 11 12 12 11 11 10 11 10 12 12 13 13 13 13 12 11 12 13 14 14 15 13 13
28 25 23 28 30 33 37 41 46 42 34 33 30 26 22 17 12 11 11 12 11 11 11 11 11 12 12 12 13 13 14 14 14 14 14 12 9 12 13 14 15 15 15
26 30 32 34 35 34 34 40 35 37 34 31 29 26 19 12 12 11 11 11 11 11 13 14 14 14 15 15 15 13 13 15 15 14 14 15 16 16 14 14 13 15 16
26 29 38 38 38 38 37 35 38 32 35 31 30 24 17 12 13 12 13 11 11 13 13 14 14 14 15 16 14 14 14 15 16 17 17 16 17 17 19 19 18 18 18
30 33 27 36 39 37 37 32 32 37 33 34 29 25 12 13 16 14 13 13 13 13 14 16 17 18 19 20 19 17 15 14 15 17 20 20 21 20 18 19 20 21 22
33 34 37 35 33 34 34 35 35 36 35 36 28 16 13 17 15 16 14 13 14 15 17 20 20 22 22 22 21 22 21 20 18 19 21 23 23 23 23 21 21 21 22
30 27 29 30 34 34 35 38 38 40 37 37 25 12 16 19 15 18 15 15 16 18 20 21 24 28 27 27 26 23 22 22 23 24 24 25 28 26 23 20 17 21 24
31 28 27 28 32 27 35 32 37 38 38 33 23 16 19 14 19 16 18 17 17 19 21 25 28 31 30 26 28 26 24 22 23 24 26 26 28 30 31 29 29 30 32
30 26 34 23 30 30 27 26 37 40 36 16 14 17 15 19 17 18 17 16 18 22 26 26 26 24 27 28 22 22 21 23 24 25 27 27 28 33 35 35 35 36 38
25 25 32 39 28 26 32 38 37 40 39 19 15 17 18 13 17 14 15 20 21 21 22 26 26 27 24 24 19 26 28 31 33 30 32 35 35 34 35 36 38 38 39
22 29 39 29 30 38 43 41 41 32 18 15 14 15 13 14 13 16 19 19 21 21 23 27 27 24 23 21 25 28 32 32 34 38 39 41 40 39 39 41 43 45 43
23 29 32 34 31 35 40 40 29 14 21 18 13 15 16 14 14 17 18 21 22 22 27 26 25 29 31 32 34 35 34 34 35 38 42 43 45 45 46 45 45 43 43
30 30 26 27 34 38 37 17 19 19 14 13 16 15 14 13 15 15 18 19 22 27 24 24 31 31 31 33 34 33 36 36 37 39 41 42 44 45 44 44 41 36 36
22 26 26 25 20 19 20 22 18 16 16 13 10 10 9 13 18 21 23 24 26 29 25 30 26 24 26 27 29 29 32 33 33 35 37 40 42 44 45 45 43 39 35
19 25 17 15 18 20 16 14 12 13 10 9 9 11 11 15 17 22 22 25 26 24 23 24 27 28 29 31 32 33 35 36 38 39 40 40 41 42 43 44 43 42 41
21 19 19 19 19 19 18 13 11 7 6 7 14 14 17 17 20 18 19 18 20 23 26 27 28 30 32 33 36 38 40 41 41 40 41 43 44 45 44 44 43 43 43
16 19 17 13 13 10 10 7 6 8 9 13 11 15 14 13 13 14 17 19 22 24 27 30 31 34 37 39 41 43 44 44 45 44 44 45 47 48 47 46 45 45 45
15 12 13 11 9 7 7 10 9 8 10 13 12 11 9 11 13 16 19 22 25 29 32 34 35 37 40 42 45 46 47 47 48 47 48 48 49 49 49 48 46 45 44
13 13 13 10 9 6 6 6 7 10 11 11 8 9 12 15 17 19 23 27 31 34 37 39 41 43 45 46 48 48 49 49 49 50 51 52 52 52 51 49 48 47 47
7 5 5 4 3 2 6 8 10 8 6 8 11 14 16 18 21 24 29 33 36 39 41 43 44 46 47 48 49 49 50 50 51 51 53 54 54 53 51 49 50 51 52
4 6 5 1 4 5 7 8 6 5 8 13 15 17 20 24 27 31 34 37 40 43 44 46 48 48 49 50 51 50 51 52 53 54 54 55 55 52 51 52 54 56 59
3 5 5 5 4 7 9 6 7 10 14 17 18 22 26 30 33 37 39 42 44 46 48 50 51 52 52 53 54 53 53 54 56 56 57 56 53 53 56 59 63 65 69
6 6 6 8 9 9 7 10 12 14 19 21 24 28 32 35 38 41 44 46 48 50 52 53 54 55 55 56 56 56 57 58 59 59 59 56 57 59 63 66 69 73 76
7 7 8 9 8 8 11 14 16 20 23 26 30 33 37 40 43 46 47 49 51 53 54 54 56 55 56 57 58 59 60 61 63 63 60 60 62 66 70 74 78 82 84
9 8 7 8 9 9 14 18 23 26 29 31 34 38 42 45 47 49 49 48 50 52 55 56 56 56 57 59 60 61 62 64 63 62 62 66 70 75 80 83 86 89 91
8 9 8 8 11 15 19 24 28 30 34 36 39 42 45 47 49 48 52 54 54 54 56 57 58 59 61 62 62 64 66 64 65 68 71 75 78 80 83 87 91 94 96

GFSSE_500_spd_066.txt.gz
Wind_Speed
30 29 28 28 27 26 27 25 29 33 35 38 36 33 25 21 18 13 12 9 8 9 11 11 11 11 12 13 13 14 14 15 14 14 14 12 14 13 12 12 13 13 15
27 27 30 29 21 24 26 28 27 30 32 40 37 30 27 23 15 9 9 8 9 10 10 10 12 13 14 15 16 17 16 15 15 15 14 13 13 13 13 11 12 13 14
26 21 19 23 28 30 30 30 31 29 32 30 29 31 27 20 10 8 9 9 11 10 10 10 12 13 15 17 18 18 18 17 17 17 16 15 15 16 16 15 14 14 15
20 18 19 21 26 30 34 33 32 27 27 29 32 33 28 20 9 10 10 10 10 10 10 11 13 15 17 18 20 21 22 23 20 20 20 21 19 20 20 18 18 17 15
25 24 28 29 31 30 28 33 31 29 30 29 35 36 32 21 9 11 12 13 10 11 12 14 16 18 21 23 23 22 21 21 21 22 21 21 22 23 23 24 23 23 21
24 29 30 32 32 28 30 33 30 29 31 29 35 34 29 15 14 14 14 13 11 12 15 15 17 20 22 24 25 25 23 22 22 21 21 22 24 26 26 26 24 24 24
27 31 28 27 29 26 29 35 32 30 30 33 37 35 31 13 15 15 14 14 13 14 17 18 19 22 23 25 21 22 23 23 20 18 19 19 21 22 24 27 27 26 24
27 28 30 28 30 32 25 28 39 36 36 38 38 31 19 15 17 15 15 15 14 16 17 19 23 25 24 26 26 24 21 19 17 18 19 22 23 25 26 27 28 31 33
21 23 26 30 29 30 26 37 38 37 32 36 36 33 17 20 14 15 14 14 17 18 21 22 21 22 25 29 27 26 21 22 24 27 26 27 26 28 31 36 34 34 36
23 23 20 30 33 47 29 32 44 37 34 35 28 21 18 14 14 12 17 14 17 21 23 20 24 28 29 29 26 25 27 26 31 32 32 32 32 35 37 38 39 40 40
30 25 26 35 44 33 23 31 36 32 34 31 23 17 14 14 14 14 14 17 21 21 20 24 27 30 27 27 30 30 32 34 35 33 32 33 35 36 35 35 37 38 40
31 28 27 43 42 38 33 35 39 38 26 18 18 15 13 11 13 15 18 18 20 22 22 25 28 23 27 28 27 26 26 28 32 34 35 37 39 39 39 40 41 40 38
31 31 38 32 44 30 27 28 39 27 18 16 15 16 14 12 16 17 20 21 20 23 26 28 23 24 24 27 28 29 30 32 33 33 35 37 39 41 40 40 41 40 40
34 19 26 37 34 25 23 23 16 20 20 12 7 8 11 13 17 19 19 21 22 23 21 21 21 24 26 28 29 31 31 32 34 36 38 39 40 41 42 41 42 41 41
24 23 23 29 28 24 22 20 18 16 12 10 11 13 16 15 13 18 20 20 17 17 19 23 24 25 27 29 31 33 35 37 39 40 41 41 42 43 43 43 43 43 43
20 15 18 22 21 17 18 19 16 15 15 13 11 11 13 15 17 18 15 15 18 20 22 24 26 28 30 33 35 38 39 41 43 43 44 45 45 45 45 44 44 45 45
20 16 15 15 14 15 15 16 16 13 10 8 6 11 13 15 12 11 14 18 19 21 24 27 30 33 35 38 40 42 44 45 46 46 46 48 48 48 48 47 47 48 48
17 17 17 17 16 12 12 9 10 14 10 7 9 11 9 8 10 13 17 19 21 26 29 33 36 38 40 42 44 45 47 49 49 49 50 50 50 49 48 49 49 51 50
19 17 15 15 17 18 18 15 12 10 8 8 8 7 8 12 13 17 19 24 28 30 34 37 40 41 43 45 47 48 50 52 52 52 52 52 51 50 50 50 51 52 52
16 18 16 15 14 11 10 9 9 8 7 6 7 9 13 15 17 20 25 29 32 35 38 41 43 45 46 48 50 51 53 53 53 53 53 53 54 54 53 53 55 53 51
8 8 8 9 8 8 8 7 7 7 7 9 12 14 16 19 23 27 30 34 37 40 43 46 47 48 49 50 52 53 54 54 53 53 53 55 55 55 56 58 56 54 53
9 10 11 9 9 9 10 8 7 8 9 12 15 18 21 24 28 31 35 38 40 44 47 49 50 51 52 54 55 55 55 55 55 56 57 57 57 58 58 56 55 56 58
7 8 8 9 10 9 8 8 9 10 12 15 18 22 26 30 33 36 39 41 44 47 49 50 53 55 55 56 56 56 57 57 58 59 60 61 62 62 59 59 61 63 66
12 11 11 12 9 8 10 11 12 13 16 19 24 27 31 35 38 40 44 46 48 50 48 50 52 54 56 59 59 59 60 61 62 61 63 64 64 64 65 68 69 70 73
14 12 11 12 12 11 13 15 16 18 20 24 28 32 36 39 42 46 48 50 51 51 50 57 59 61 60 60 61 61 62 63 64 65 64 66 67 69 73 75 77 80 82
14 12 11 10 13 12 14 19 20 22 25 31 32 36 40 43 46 49 50 49 50 52 54 60 65 67 65 64 63 64 66 68 69 70 71 72 74 77 81 84 88 89 87

GFSSE_500_spd_069.txt.gz
Wind_Speed
29 27 26 26 26 26 26 27 23 22 23 22 22 25 22 17 17 15 11 9 6 5 9 11 11 13 12 13 12 13 14 15 14 15 14 13 14 15 15 14 13 12 12
32 30 28 27 27 26 26 24 24 25 23 24 22 23 22 19 17 15 9 7 6 6 10 12 11 12 13 13 15 15 16 17 17 18 17 16 16 16 16 16 15 14 12
35 31 27 26 24 21 23 28 28 26 24 22 22 22 22 22 19 16 11 8 6 7 9 11 12 12 12 13 15 17 19 19 19 20 20 20 20 20 21 21 20 18 17
36 31 27 21 19 20 21 23 25 30 26 22 23 24 23 25 21 18 12 10 7 8 9 10 11 12 13 15 17 18 20 21 21 21 20 19 19 20 20 21 24 25 24
23 23 19 20 25 25 25 27 28 29 27 25 23 27 26 26 25 18 15 12 8 9 10 11 12 14 14 18 21 20 19 18 20 22 20 19 19 19 21 23 23 25 25
21 21 25 26 27 28 28 27 29 28 26 25 24 28 25 27 25 17 17 12 10 11 12 13 13 14 18 21 22 23 22 21 20 20 20 19 19 21 21 22 24 24 25
21 22 24 25 29 28 25 26 28 27 27 26 27 28 31 27 25 20 17 15 13 15 14 14 14 16 20 21 20 22 23 22 22 20 20 19 20 22 23 24 24 25 27
25 26 25 25 26 28 27 28 28 28 31 30 35 28 33 28 15 15 18 15 16 14 14 15 18 19 18 20 25 24 23 22 19 19 22 26 29 29 29 29 28 30 32
26 24 24 22 24 29 30 27 25 26 26 32 29 26 32 25 18 20 18 18 14 14 13 17 21 20 22 24 27 22 20 22 23 24 25 28 28 27 28 30 32 33 33
24 20 24 27 28 29 34 28 30 31 29 35 30 26 24 17 21 18 13 13 12 14 16 22 21 24 25 27 25 25 24 23 24 25 24 26 27 28 30 32 33 34 36
26 26 29 44 31 49 44 40 28 31 40 33 29 26 24 24 20 12 14 8 11 15 21 23 25 26 26 25 21 20 22 23 24 26 29 29 30 31 32 33 33 34 35
29 33 31 26 32 35 48 37 30 36 38 36 29 26 17 15 15 16 9 14 17 20 21 19 25 24 20 19 21 23 24 26 26 27 28 31 33 34 36 37 37 37 37
30 36 34 35 39 33 39 42 42 38 35 29 21 23 18 14 9 13 16 17 17 19 22 23 20 16 19 21 23 25 26 28 29 31 32 34 36 37 38 39 40 40 39
28 33 34 34 37 23 29 37 41 38 22 19 18 18 12 9 12 16 16 16 16 21 19 14 17 21 22 23 25 27 29 31 32 35 36 37 39 41 42 42 42 42 42
29 34 39 27 35 32 35 29 21 19 23 21 15 12 13 17 17 16 15 17 16 12 14 17 19 21 25 27 28 30 32 35 36 38 40 41 42 43 44 44 43 43 43
24 23 23 20 24 27 26 21 21 21 17 14 14 15 17 16 16 14 14 13 11 15 18 18 21 25 28 31 32 34 36 38 40 41 42 44 44 45 45 45 44 43 43
11 13 13 18 33 35 14 16 16 15 15 16 14 13 10 13 14 13 10 11 15 18 20 23 26 29 31 34 36 37 39 41 43 44 45 46 46 47 47 47 46 46 47
13 12 14 12 12 15 15 14 16 15 15 13 12 12 14 12 11 10 12 15 18 20 25 29 30 33 36 38 41 42 44 46 48 49 49 48 48 49 49 49 49 49 50
18 17 14 11 12 12 13 13 16 15 14 12 12 13 12 9 11 13 16 19 22 26 29 32 34 37 39 42 43 45 47 49 50 51 50 50 51 51 51 51 52 52 52
17 16 13 12 13 15 17 16 14 15 15 14 12 12 11 11 13 17 20 24 28 30 33 35 38 40 43 44 46 48 49 50 51 50 50 50 51 52 53 53 53 54 55
11 11 13 13 14 15 15 17 17 16 15 14 13 11 11 14 18 21 25 28 31 35 37 39 42 44 45 45 45 48 49 49 49 50 51 53 52 52 53 54 56 58 58
14 15 16 16 16 17 17 17 17 16 15 14 12 12 14 18 22 25 28 32 35 38 40 43 45 48 50 48 52 54 54 53 52 53 55 55 55 56 58 59 61 59 59
15 14 14 13 13 12 14 15 15 15 15 14 13 15 17 22 26 29 33 35 38 41 43 46 46 49 49 53 55 57 60 59 59 58 58 58 60 61 62 63 63 63 65
10 10 10 11 12 14 15 13 14 15 18 19 15 18 21 25 30 34 37 39 41 44 45 49 48 48 49 52 57 60 62 61 61 61 61 62 63 63 64 67 69 71 73
11 12 13 13 13 13 16 16 17 18 21 18 16 23 25 30 34 37 40 43 44 44 49 49 48 52 56 59 60 62 63 63 63 64 64 65 67 69 73 75 77 79 81
15 14 14 15 16 15 17 19 19 22 24 18 22 27 28 34 39 42 43 43 46 49 52 52 53 55 61 64 63 64 65 66 67 67 68 71 75 78 80 82 82 84 85

GFSSE_500_spd_072.txt.gz
Wind_Speed
31 29 28 26 24 23 23 22 23 24 25 22 20 18 19 13 9 9 12 10 8 6 6 8 9 10 11 12 13 13 14 15 16 16 17 17 17 17 16 15 16 16 16
32 31 30 29 27 27 25 24 25 26 25 25 20 18 18 13 10 11 11 11 10 9 8 8 10 9 10 11 11 12 12 13 14 15 16 17 17 17 17 17 17 17 17
33 34 33 30 28 28 26 28 27 28 26 21 19 18 17 15 14 15 12 12 14 12 12 11 9 9 9 10 10 11 13 14 14 15 16 16 17 17 17 18 18 18 19
36 34 35 33 29 27 28 27 24 26 26 24 19 21 20 16 13 15 15 15 16 14 13 12 10 8 10 9 13 16 17 16 15 15 16 17 18 18 18 17 20 21 22
35 36 32 29 28 30 28 24 21 23 24 22 21 22 22 20 17 17 16 17 18 16 15 13 9 7 8 12 15 17 16 17 17 19 20 20 20 19 20 21 22 23 23
29 37 24 22 26 26 29 26 26 25 25 20 20 21 23 21 21 18 19 20 21 19 17 11 9 8 12 15 16 14 18 20 19 19 20 20 18 19 19 21 23 25 26
26 22 24 25 29 30 30 29 29 27 24 21 20 22 24 24 25 21 22 27 23 20 15 11 8 8 13 16 15 20 23 21 20 18 18 19 19 22 26 26 26 25 27
23 25 25 26 25 26 26 27 27 27 26 21 20 19 25 27 28 21 25 25 25 19 13 10 9 11 16 17 19 23 23 21 21 21 21 21 22 25 24 25 24 24 25
20 20 23 24 26 26 26 26 30 32 27 19 19 24 22 28 28 25 25 23 22 17 15 11 13 15 17 19 22 24 21 19 17 17 18 19 21 23 25 25 25 26 27
22 20 21 25 31 35 28 29 30 35 28 26 25 25 26 31 28 24 27 24 23 14 12 14 18 19 21 23 22 20 16 17 19 19 20 20 22 24 26 28 29 30 31
23 23 23 24 27 32 35 40 35 35 27 22 32 32 28 33 27 27 27 25 15 11 16 18 18 19 19 20 14 13 18 19 20 21 22 23 25 27 29 31 32 33 35
25 26 26 31 39 42 55 48 51 50 43 29 39 39 31 31 22 23 17 11 13 15 17 18 19 21 14 13 16 17 18 20 21 23 26 28 30 31 34 36 36 36 38
27 29 29 31 34 33 33 37 26 25 36 33 34 33 33 21 19 18 14 12 14 17 18 18 18 12 13 15 17 19 21 23 25 26 29 30 33 35 37 39 40 40 41
29 31 35 35 38 38 35 34 42 35 36 37 39 34 18 17 15 12 11 14 15 18 16 16 11 12 14 16 20 23 25 27 28 30 32 34 36 39 41 41 42 42 42
31 34 38 43 38 35 40 44 46 42 43 37 23 21 21 17 14 14 15 14 17 17 13 11 14 15 18 21 24 28 30 32 33 35 37 39 41 43 44 45 44 43 42
31 32 27 41 35 19 20 25 31 31 25 25 24 18 14 12 15 14 17 16 15 11 12 14 17 19 23 26 29 32 34 34 35 38 40 41 43 45 45 44 43 43 43
26 23 28 22 23 21 27 30 30 22 22 19 17 15 15 17 17 18 14 13 11 12 16 18 20 24 27 29 33 35 37 38 39 41 43 44 44 44 44 45 45 47 47
15 8 11 12 21 23 23 18 17 16 15 12 14 16 17 16 16 14 11 11 14 16 18 22 25 28 31 34 35 37 38 39 40 42 43 43 44 46 46 47 48 49 49
11 11 15 18 16 12 11 12 14 13 14 15 17 15 15 15 13 12 12 14 16 19 22 27 30 31 34 36 38 39 42 43 43 47 46 46 46 47 49 49 50 49 50
16 14 12 10 11 11 11 12 13 14 15 15 15 15 18 13 12 12 15 17 20 25 28 31 33 34 37 39 40 42 44 43 46 48 48 49 50 51 52 52 52 52 52
12 12 11 10 11 11 12 13 15 17 17 17 17 17 14 12 12 16 19 22 25 28 31 34 35 38 39 41 42 42 41 43 46 50 53 53 54 54 54 54 54 55 57
12 12 12 13 13 13 14 16 17 19 19 19 18 18 15 14 16 19 22 25 28 32 33 36 37 38 41 43 45 45 46 50 50 51 53 55 56 57 58 58 57 56 56
11 12 12 13 13 15 16 16 16 18 19 20 20 18 17 17 20 23 25 27 31 34 36 36 37 41 44 44 44 47 51 54 57 59 59 59 59 61 61 61 60 63 65
11 12 12 13 15 16 16 17 18 18 19 19 21 23 21 19 23 28 29 31 34 37 37 36 39 44 42 47 49 53 56 59 62 62 64 64 64 62 62 65 68 71 72
13 14 13 13 15 16 17 19 19 18 18 21 25 25 27 22 27 29 30 35 39 40 37 41 45 47 48 53 56 58 60 62 63 64 65 66 67 66 69 72 74 76 76
16 15 15 16 17 17 18 22 23 22 23 25 28 27 20 25 30 30 34 40 42 36 38 45 49 53 51 59 64 63 63 65 67 68 68 68 69 73 75 76 77 78 80

GFSSE_500_spd_075.txt.gz
Wind_Speed
30 28 26 26 25 24 24 24 24 23 25 25 22 20 19 15 13 8 8 8 10 11 11 10 9 9 9 9 11 12 12 13 14 14 13 13 14 15 15 15 16 16 17
30 30 28 27 27 27 28 26 25 25 25 25 20 19 18 17 11 9 9 11 11 11 13 11 10 10 9 9 10 11 11 11 11 13 13 13 14 15 15 16 16 15 16
35 34 30 28 28 27 26 25 27 27 26 25 23 20 18 18 14 13 11 12 12 13 15 14 12 10 9 8 8 9 11 12 12 12 12 14 15 15 16 15 16 16 18
37 36 31 29 27 28 28 28 28 27 26 24 23 19 20 21 19 13 12 14 15 17 17 15 13 11 7 8 7 10 12 12 13 14 15 15 16 16 19 18 18 19 20
28 32 37 34 31 33 35 33 29 27 23 20 18 19 20 20 19 16 17 19 19 20 19 15 13 10 8 7 8 12 11 14 16 16 15 17 17 17 16 17 17 18 18
34 35 36 35 35 28 30 31 31 27 23 21 16 17 17 19 20 22 23 22 23 22 20 17 13 10 8 9 10 12 13 16 18 19 17 16 16 16 17 18 21 22 22
32 38 40 40 34 28 31 30 27 27 26 25 16 17 17 20 21 24 26 25 26 24 21 16 13 10 8 10 12 13 17 20 19 18 16 16 16 16 18 19 20 22 23
32 37 40 36 38 33 31 31 30 30 28 27 20 19 19 19 19 25 28 28 26 26 22 16 12 10 11 13 14 16 18 19 17 14 14 16 17 17 19 21 22 21 23
35 37 35 35 32 25 26 27 28 27 26 26 23 23 22 29 30 23 27 28 27 27 20 17 13 13 15 15 17 19 18 13 11 14 16 17 19 19 19 21 22 23 24
29 29 33 27 25 24 27 30 27 25 24 27 31 30 24 27 30 25 26 29 27 24 20 17 15 17 17 19 17 18 10 12 14 15 17 17 19 20 23 24 25 27 29
21 20 15 18 23 25 29 36 35 31 25 27 26 26 30 29 26 26 33 27 24 16 15 13 17 17 17 17 14 11 13 13 14 16 17 19 20 22 24 27 29 30 33
17 19 22 22 23 26 36 40 44 45 38 37 43 41 37 31 28 28 31 17 24 18 19 16 16 16 17 13 12 14 14 16 16 18 21 22 24 26 29 31 33 35 36
23 23 23 26 32 26 40 23 38 30 36 22 29 49 41 33 32 26 16 14 17 18 16 15 15 17 14 13 14 15 17 18 21 22 24 26 28 30 33 36 37 39 41
24 26 27 28 29 27 29 31 30 30 31 34 26 40 37 35 29 22 16 16 15 15 14 15 16 15 13 14 17 18 21 23 25 25 29 30 33 36 37 39 41 42 43
26 27 29 29 31 31 37 31 36 33 33 39 33 36 42 25 21 19 18 15 14 15 16 17 12 14 14 16 20 22 25 28 30 32 33 34 36 39 41 43 43 42 44
28 29 30 28 27 40 39 33 29 35 38 36 41 49 32 24 20 15 13 14 15 17 17 13 14 14 16 21 24 27 30 32 34 36 36 37 39 42 44 43 44 44 44
27 27 31 38 40 46 44 39 30 23 34 42 25 26 24 16 13 14 16 17 17 15 14 14 14 16 21 24 28 31 33 35 36 36 39 40 41 44 43 46 46 47 47
27 29 28 27 23 24 35 36 29 30 38 28 26 19 15 13 12 14 14 15 14 14 14 15 18 22 25 28 31 34 35 37 38 39 41 43 45 45 45 46 47 48 48
19 20 19 13 23 18 15 17 20 16 15 16 14 13 9 12 13 16 16 15 15 15 15 18 23 26 30 32 34 37 38 38 40 41 44 43 44 47 48 48 50 51 50
16 14 9 20 14 11 11 13 15 10 10 10 9 10 12 16 18 17 16 15 16 17 19 23 26 30 32 35 37 38 38 40 42 42 43 46 47 48 50 52 53 54 53
15 13 14 17 11 11 10 10 9 9 10 11 12 14 17 18 15 17 17 16 18 20 23 26 29 33 35 37 39 39 41 39 39 42 46 49 51 53 54 55 55 56 59
11 8 5 6 6 3 3 6 10 12 14 14 16 17 17 17 19 18 19 21 21 24 26 30 33 35 37 36 38 41 42 45 47 48 49 53 56 57 59 60 60 61 60
2 2 3 4 5 7 8 10 12 15 16 18 17 18 19 21 21 23 23 24 26 27 29 33 34 36 38 38 40 45 48 49 51 55 58 59 60 61 62 63 64 62 62
3 4 7 8 9 9 12 15 16 18 18 18 18 19 22 24 27 26 25 27 30 31 32 36 36 35 35 40 45 47 50 53 59 61 66 67 68 68 69 66 63 66 68
8 10 10 11 12 15 16 17 18 20 22 20 20 21 22 26 35 35 27 30 29 32 36 38 33 35 38 43 48 54 59 63 65 69 71 69 69 69 70 69 69 72 74
13 13 14 14 15 17 19 20 22 23 24 25 21 23 27 27 30 33 27 32 35 37 37 36 36 39 43 45 50 57 60 63 67 72 71 72 72 72 70 72 75 76 76

GFSSE_500_spd_078.txt.gz
Wind_Speed
32 32 32 31 30 27 24 21 21 20 21 22 26 24 21 18 11 11 10 10 10 11 12 15 14 13 11 12 11 11 10 11 10 11 10 11 10 11 12 13 15 15 15
28 38 35 32 30 29 27 24 21 23 25 27 24 22 21 18 12 11 10 10 11 12 14 15 14 12 12 12 10 10 10 8 8 8 9 9 11 12 12 13 15 16 16
35 34 35 31 31 28 26 26 27 26 28 26 25 23 22 19 16 12 12 12 13 14 15 15 14 13 13 12 11 9 9 9 11 13 13 14 12 13 14 14 16 17 17
25 40 32 31 29 29 31 28 27 29 28 27 25 21 20 20 17 15 15 14 15 16 17 16 16 15 13 11 8 9 9 8 8 8 11 12 13 14 15 16 16 18 17
24 33 34 35 33 31 32 31 31 32 31 29 24 17 18 17 18 19 17 18 18 18 19 18 18 15 11 10 7 9 10 8 10 12 14 15 14 13 13 14 15 16 17
29 36 39 36 36 36 34 32 33 35 33 27 24 18 16 16 17 21 21 21 21 21 21 20 19 15 12 10 9 9 9 12 13 17 15 14 14 13 13 14 15 16 17
34 37 38 39 36 34 34 35 33 29 27 27 24 19 19 16 17 20 21 22 24 23 23 23 17 15 10 10 9 11 12 14 15 13 12 10 9 9 10 13 15 16 18
31 37 41 39 36 34 34 30 28 31 28 27 26 24 23 20 20 18 18 24 26 26 26 24 16 13 11 8 14 14 15 16 16 7 9 11 12 12 12 12 14 16 18
42 51 46 44 40 38 35 36 30 28 28 29 29 28 24 21 23 26 29 30 32 25 25 22 21 14 12 15 16 16 17 16 10 11 10 13 12 12 13 14 16 18 20
36 25 40 34 38 37 33 32 30 30 30 31 30 25 26 23 27 24 24 27 25 26 28 20 16 16 16 16 16 16 14 10 10 14 12 13 14 15 16 17 19 21 23
35 23 19 40 34 29 29 28 31 30 32 32 28 21 18 24 28 27 26 28 28 32 24 16 15 17 16 14 14 14 11 13 12 14 14 15 16 18 18 20 23 26 30
9 8 9 13 21 28 28 27 30 33 34 30 34 25 24 29 36 35 28 29 25 23 12 14 17 16 14 15 12 11 12 14 13 17 17 18 18 21 23 25 28 31 34
9 11 12 13 16 16 20 23 26 27 36 22 25 26 24 25 32 39 31 29 25 17 15 19 16 14 15 14 12 13 13 17 16 20 20 23 24 25 28 30 32 34 37
13 11 14 15 16 17 18 16 27 26 19 24 22 29 30 27 28 39 34 21 15 14 17 14 13 13 15 12 14 15 15 18 19 22 24 26 28 29 31 33 35 38 39
17 18 18 19 20 21 21 23 23 25 27 23 29 30 30 28 24 41 26 19 18 16 14 13 13 12 12 13 15 17 19 21 23 25 28 29 29 31 33 34 37 39 39
20 21 21 21 23 25 24 25 27 26 28 25 34 30 30 25 26 19 18 21 17 13 12 13 17 12 14 14 17 20 21 24 27 27 30 31 33 35 37 38 38 39 39
20 22 24 23 26 27 23 30 32 31 36 27 23 24 23 15 20 22 17 12 11 11 17 16 13 14 14 17 21 23 25 27 30 32 31 32 35 38 38 39 40 41 42
22 24 23 23 25 26 23 40 40 39 26 24 24 19 20 18 21 20 16 16 16 17 15 14 14 15 16 21 24 26 28 29 32 33 35 36 39 40 41 41 43 44 46
20 17 15 14 18 17 17 21 27 34 34 18 16 24 21 17 14 14 14 15 15 15 13 14 17 17 21 24 27 30 32 32 33 33 37 39 40 42 44 43 46 49 50
19 15 15 11 14 18 19 18 14 10 13 20 16 15 12 10 10 12 14 16 14 13 16 18 19 20 24 28 31 32 32 32 34 35 39 40 41 41 43 46 49 51 52
18 22 11 10 8 4 5 10 17 16 14 8 6 6 6 9 10 14 19 17 18 17 19 21 22 24 28 32 34 34 33 31 34 37 38 41 43 45 47 49 52 54 54
13 8 13 9 10 7 7 7 7 5 4 4 7 9 11 13 15 16 18 19 20 21 22 24 26 27 30 34 35 33 35 37 37 39 42 45 48 51 56 58 57 58 59
8 6 8 7 6 4 5 6 4 4 6 9 12 12 13 15 17 23 23 23 24 23 25 29 31 31 35 37 33 33 34 38 40 45 48 53 57 59 59 59 60 61 63
5 5 7 6 6 6 6 6 7 9 10 13 15 17 16 17 19 25 27 26 29 26 26 30 30 34 37 40 37 35 33 36 41 46 51 60 65 65 64 63 63 63 63
9 9 9 10 10 11 11 10 11 12 14 16 18 19 18 19 21 26 29 24 38 34 29 28 33 35 37 38 37 38 38 40 43 45 55 64 65 64 66 66 69 70 68
7 10 11 11 11 12 14 14 15 15 17 20 22 21 19 21 27 29 30 29 26 33 33 35 42 43 43 45 47 48 47 49 53 56 67 70 71 69 68 68 68 68 69

GFSSE_500_spd_081.txt.gz
Wind_Speed
39 33 28 30 24 28 28 26 25 23 21 20 18 19 19 22 23 20 16 16 13 13 13 13 13 13 13 12 11 11 11 12 11 10 8 7 7 8 9 9 10 11 14
30 36 33 23 30 30 28 27 26 24 20 22 23 22 24 24 25 20 18 17 16 14 13 14 13 14 14 13 12 13 12 10 10 10 10 9 11 12 12 12 13 13 13
31 40 49 42 30 32 32 33 29 25 23 24 26 26 28 27 27 21 18 18 16 15 14 14 15 13 14 13 12 12 12 11 11 12 10 10 10 11 13 12 13 13 13
44 42 33 34 34 33 33 33 30 27 26 27 29 26 27 25 24 21 20 18 16 17 16 14 15 14 14 14 15 13 10 9 11 8 10 11 11 13 14 13 13 13 12
57 54 40 37 40 36 35 33 30 28 30 31 30 25 24 22 20 20 19 18 19 18 17 17 16 16 16 16 17 14 8 6 8 11 13 13 12 12 13 12 12 12 12
56 41 51 38 45 36 32 32 32 32 31 29 29 22 22 19 18 17 17 18 20 21 20 19 18 18 17 17 15 12 6 12 11 11 12 11 9 9 8 9 10 11 11
48 38 24 45 40 35 35 36 33 31 30 31 32 27 22 21 18 17 14 16 18 21 23 21 21 19 18 15 14 11 6 8 18 13 9 8 8 9 10 9 10 10 11
24 32 32 35 36 37 40 35 34 31 31 31 27 24 26 24 20 18 15 14 16 18 24 25 22 21 16 15 13 16 11 8 12 9 7 8 9 9 10 10 11 12 14
33 32 31 37 31 42 41 37 32 30 28 25 28 28 27 26 23 21 20 20 24 27 27 24 21 22 19 19 16 17 10 11 7 7 7 8 9 9 11 11 12 13 15
41 31 49 37 44 43 42 34 30 30 33 28 28 27 28 27 25 21 23 20 24 27 26 22 22 27 14 15 16 16 10 10 5 7 8 9 10 11 12 13 13 15 18
26 34 21 36 38 53 42 37 32 31 32 29 30 29 27 23 22 28 22 25 23 22 20 25 27 13 19 18 17 13 10 9 9 9 10 11 13 13 14 15 17 20 22
20 31 21 5 44 39 34 30 28 28 28 24 28 28 25 28 14 16 22 24 26 24 24 15 14 17 18 16 13 13 8 9 11 10 13 14 15 16 18 19 21 23 25
14 3 18 28 24 29 27 27 20 36 29 19 31 28 21 31 25 17 21 23 27 31 17 16 16 18 17 14 14 13 10 10 13 13 15 16 17 18 20 21 23 25 27
7 12 6 11 8 5 4 3 9 15 24 13 14 16 16 15 16 21 21 23 30 20 16 18 17 17 15 14 12 11 12 11 16 17 18 19 19 21 22 23 25 27 30
10 9 9 8 9 8 12 9 12 10 12 16 17 20 21 22 22 19 20 23 11 18 19 17 15 15 13 12 13 13 14 14 17 19 20 21 22 23 25 27 29 30 32
10 10 10 11 11 15 15 11 13 20 15 16 22 23 22 23 21 17 17 15 25 22 17 16 15 14 13 14 15 15 16 17 18 20 21 23 25 26 29 31 32 33 36
13 13 11 10 14 15 16 15 17 20 33 27 25 20 20 19 11 14 17 25 25 17 16 14 14 14 15 17 16 18 18 21 21 23 25 27 28 29 32 34 35 38 38
16 12 14 14 16 17 18 16 16 16 26 31 25 19 19 15 10 16 24 19 17 13 14 13 15 16 17 18 19 20 21 24 25 26 27 27 28 30 30 33 36 38 39
15 16 13 12 13 13 11 10 17 17 19 23 25 27 13 13 21 23 19 16 14 12 15 17 17 18 20 20 20 22 24 25 28 29 30 30 30 32 33 35 36 39 40
15 17 13 10 10 9 9 8 13 15 17 22 23 13 18 18 19 19 19 17 15 16 18 18 19 20 21 22 23 25 28 31 32 30 29 30 30 31 31 35 38 42 45
11 13 14 14 10 4 3 4 2 5 16 17 14 17 14 13 13 11 10 13 15 17 18 18 20 20 23 26 28 30 30 31 31 31 31 32 31 32 36 40 44 46 49
3 5 10 5 5 14 13 10 13 14 12 14 11 7 6 6 7 10 17 17 18 18 19 19 22 25 26 30 31 34 34 34 32 31 32 33 32 33 44 47 52 54 54
16 15 16 14 12 9 7 8 8 6 5 5 4 5 6 7 10 14 13 18 17 19 24 24 26 28 29 27 31 35 36 37 38 38 38 39 43 53 52 51 59 61 61
9 10 11 10 9 7 6 5 5 2 1 2 5 7 7 11 15 18 18 21 24 26 29 31 33 33 27 28 34 36 41 38 40 44 48 51 51 53 53 56 63 65 64
7 7 5 5 7 6 6 6 4 4 5 7 8 11 13 13 15 18 19 22 28 27 30 31 31 38 40 40 43 44 47 47 46 46 48 50 51 55 57 64 68 69 68
4 1 1 2 3 4 3 3 3 4 4 4 6 11 13 15 18 20 23 24 27 30 28 30 34 34 35 37 43 44 43 41 48 49 48 45 49 55 62 62 67 68 67

GFSSE_500_spd_084.txt.gz
Wind_Speed
40 43 49 49 24 27 34 17 17 19 21 20 20 18 16 14 15 17 17 19 16 19 17 16 15 13 12 12 12 12 14 12 13 13 12 11 10 9 9 10 9 11 13
35 41 46 48 33 32 33 24 24 25 24 23 24 20 17 17 17 17 19 19 21 20 20 16 14 13 12 12 12 13 13 13 13 13 13 13 11 11 10 10 11 11 12
36 39 49 34 38 33 30 32 28 28 28 27 24 19 20 20 20 20 19 22 21 20 19 17 15 14 12 12 13 13 13 14 13 13 11 10 11 11 10 10 10 10 10
37 41 45 36 38 34 32 30 30 30 28 25 24 23 23 21 20 27 25 24 22 22 21 20 15 14 14 12 13 15 14 16 14 12 9 12 10 11 11 10 10 9 10
45 42 42 43 33 40 35 37 35 32 29 27 27 25 24 20 23 23 21 23 22 21 22 19 19 17 14 12 13 15 17 16 15 13 10 11 11 9 8 6 6 7 7
41 52 47 47 48 32 35 39 37 34 31 30 29 26 22 21 22 20 19 21 21 23 22 22 19 17 15 13 15 16 16 14 13 13 11 10 7 5 5 5 6 7 7
48 54 55 58 55 52 38 41 38 35 33 30 30 32 30 21 20 22 19 18 18 19 21 22 21 20 19 16 15 17 18 10 14 15 10 8 6 7 6 5 5 5 6
52 54 60 58 60 52 53 43 39 37 33 31 32 28 26 25 24 25 21 19 17 19 20 19 22 24 25 19 16 16 18 14 13 11 7 7 7 6 6 5 6 6 7
40 48 54 56 54 61 53 47 37 39 37 34 30 28 28 23 25 26 24 23 24 21 22 23 25 28 25 22 16 13 17 14 13 9 7 7 7 7 6 6 8 8 9
15 21 33 43 45 52 49 53 45 44 35 31 26 25 23 27 27 27 26 24 22 22 28 26 29 24 29 31 15 14 15 12 10 9 9 9 8 8 9 10 11 12 14
9 17 34 34 51 51 64 47 40 37 31 29 29 26 23 24 27 26 27 29 28 24 25 26 22 19 19 16 14 16 16 12 11 10 10 11 11 11 13 14 15 17 18
12 16 26 17 43 54 57 44 42 33 27 26 26 26 24 29 28 27 24 19 17 19 23 29 23 18 15 13 17 15 15 12 12 12 12 13 14 14 17 18 18 19 19
9 14 14 5 31 49 52 42 35 32 29 27 24 20 23 27 19 19 23 16 14 18 22 30 21 21 19 16 16 16 16 14 13 13 14 15 17 17 18 18 18 19 22
4 5 13 10 10 23 40 33 30 25 29 29 25 21 24 28 12 11 16 18 20 19 24 24 21 20 18 18 18 16 17 16 15 15 17 18 18 19 20 19 20 22 25
3 3 7 10 2 13 12 18 30 16 16 25 33 19 15 17 22 20 20 19 22 20 18 23 21 19 18 19 17 15 15 16 17 17 20 20 20 20 21 21 23 25 27
2 1 5 7 3 5 6 9 13 16 17 10 13 14 14 16 18 19 19 20 18 20 23 24 22 19 18 15 15 15 17 17 19 21 22 22 23 22 22 24 25 27 28
8 8 8 8 9 9 12 12 14 18 15 26 22 16 17 17 16 18 18 20 17 22 24 20 17 18 15 14 17 18 20 20 21 23 25 25 24 25 26 28 29 30 31
13 14 14 14 13 13 14 16 14 19 15 12 22 26 23 18 19 16 21 20 21 25 23 18 18 17 15 17 19 21 22 23 23 26 27 26 27 28 29 29 29 30 30
14 12 11 11 9 11 14 15 16 14 17 18 20 17 21 21 19 21 17 17 26 20 18 17 17 18 18 19 21 22 25 26 27 29 29 29 29 30 30 30 30 29 29
11 7 8 8 9 9 12 12 20 18 21 15 17 19 23 28 19 18 19 21 20 16 16 18 18 18 18 19 22 26 28 27 28 30 32 32 30 31 32 32 31 29 43
13 9 1 11 10 7 8 8 10 11 16 17 18 21 16 15 17 19 18 19 17 17 19 20 18 19 20 23 26 29 30 30 32 32 31 31 33 35 39 37 37 45 51
8 6 6 9 11 7 4 3 7 11 13 13 17 19 17 17 17 19 14 12 16 19 19 18 18 20 23 27 30 33 34 31 32 34 35 34 34 36 40 45 49 51 52
19 18 12 12 12 9 9 12 11 13 14 16 14 10 10 13 13 11 13 12 18 19 16 18 21 23 25 32 34 38 39 34 36 38 40 42 43 46 44 45 48 51 56
14 16 15 13 14 13 12 10 9 9 9 8 7 7 7 8 8 13 13 13 16 19 20 23 24 26 26 33 37 41 43 43 46 48 46 48 49 47 47 46 47 52 55
9 10 9 9 10 10 12 10 8 7 5 5 5 5 7 9 12 17 17 15 19 19 22 26 31 28 27 28 31 33 37 40 44 49 46 43 45 46 50 54 59 60 64
4 2 4 5 6 7 6 7 8 8 8 6 6 6 6 12 15 17 15 15 18 19 19 22 25 28 32 33 34 34 36 37 36 39 41 43 43 44 48 55 58 64 66

GFSSE_500_spd_087.txt.gz
Wind_Speed
33 33 30 30 38 34 33 29 29 36 22 23 18 16 16 14 13 10 12 13 15 15 17 15 13 13 15 13 11 9 10 11 11 9 10 11 11 11 12 12 11 11 11
36 33 38 36 39 40 40 35 40 31 21 17 16 16 16 15 15 15 14 15 17 15 16 17 15 16 12 11 9 11 12 12 12 10 11 11 11 11 11 11 11 11 10
32 35 33 41 45 45 45 42 34 30 28 20 17 17 17 16 18 16 16 18 16 15 17 18 19 15 12 12 11 12 13 15 14 12 12 12 11 12 10 11 11 9 8
30 34 40 42 40 41 39 41 40 36 24 22 19 19 20 20 17 15 16 19 21 17 17 18 18 15 15 14 13 15 15 16 14 12 13 13 13 11 10 11 11 9 8
34 38 39 38 40 40 40 35 35 33 31 24 24 22 21 21 16 17 17 17 20 17 19 15 18 17 19 16 17 16 17 15 14 13 13 13 14 11 8 9 8 6 4
37 38 39 40 42 38 39 39 35 33 30 27 27 24 22 20 17 16 17 14 15 20 21 19 20 20 19 19 20 18 18 16 15 14 13 14 12 10 7 8 6 5 5
38 40 42 34 44 42 39 40 43 34 33 30 31 25 24 23 19 16 13 17 14 19 18 18 20 20 21 22 21 19 20 17 16 14 15 14 11 11 8 7 5 5 4
37 43 40 43 43 46 45 46 37 46 36 34 25 27 24 24 18 22 24 19 18 19 16 16 19 22 25 24 23 22 19 18 17 16 14 13 13 10 8 8 7 7 7
31 39 47 47 46 47 49 49 51 41 37 40 26 30 27 19 20 22 19 21 21 22 21 20 21 24 27 27 26 27 23 19 18 16 14 14 13 12 10 9 9 9 9
24 25 29 38 45 45 52 51 42 46 42 27 32 33 24 19 23 24 24 22 24 26 27 24 27 32 29 30 31 31 23 16 17 15 15 14 13 13 12 12 12 12 12
12 8 8 16 25 37 42 54 47 58 47 39 43 30 22 22 24 23 27 23 25 28 31 24 27 24 26 22 28 26 15 17 17 17 16 15 14 14 14 14 15 16 17
4 11 6 13 23 30 36 46 42 50 48 42 31 25 26 26 24 24 24 25 25 25 29 30 28 24 22 19 20 21 17 17 17 18 17 15 16 15 17 17 18 20 21
3 4 8 7 16 32 34 42 54 52 39 43 30 28 26 24 25 25 27 27 21 21 21 25 31 28 25 20 18 20 18 17 17 18 19 18 17 18 20 20 21 23 22
2 6 10 5 9 5 28 50 41 43 39 26 26 25 21 20 27 21 21 17 22 23 23 23 25 27 23 20 22 21 19 18 19 19 19 19 19 21 22 23 24 24 23
2 6 10 11 15 16 35 46 51 43 28 25 28 26 23 19 27 25 23 21 21 23 24 26 24 23 23 20 21 21 18 18 19 19 20 20 21 23 25 25 26 26 25
2 4 6 9 14 13 29 40 31 28 27 27 28 33 29 19 22 23 25 24 27 23 22 28 23 23 23 20 20 19 18 18 19 20 21 22 24 26 27 28 28 27 27
6 7 4 8 7 9 9 21 30 20 21 29 18 25 28 23 24 23 25 24 29 26 26 26 24 25 23 19 19 19 18 20 21 22 24 26 26 28 29 29 29 30 30
11 12 9 6 8 11 9 13 13 17 19 27 22 23 24 21 21 20 24 25 25 23 28 24 27 22 20 17 20 19 20 23 24 24 26 27 29 30 31 32 32 33 34
14 12 11 11 10 11 15 17 17 21 23 21 20 23 26 29 25 26 27 27 26 27 23 23 20 20 17 19 19 20 21 24 23 26 28 29 30 32 33 33 33 34 36
13 11 11 12 13 13 16 19 22 23 24 16 22 27 32 30 27 28 26 27 24 23 21 19 19 20 17 18 22 22 23 24 26 28 30 32 33 32 33 35 36 37 39
12 14 10 11 16 13 15 15 18 23 25 23 26 24 29 27 27 28 20 17 19 21 20 18 18 18 19 21 22 24 24 27 30 32 32 34 34 34 36 34 34 37 42
6 14 10 9 17 12 12 14 16 21 33 31 31 28 24 25 21 16 14 17 21 21 18 19 20 21 24 24 25 26 28 30 33 33 33 33 35 38 41 43 45 45 44
9 9 11 12 13 15 16 17 19 21 21 18 20 18 18 20 20 19 19 20 20 17 22 21 25 23 24 26 29 30 32 33 37 39 40 42 44 47 47 46 47 44 45
10 9 9 10 11 12 15 15 13 15 16 17 16 14 14 16 18 17 18 17 17 20 23 22 22 24 26 28 31 33 34 35 33 37 40 42 44 47 46 40 40 41 44
3 7 8 9 7 10 12 12 11 12 11 10 11 12 13 12 11 13 17 19 19 19 21 20 25 27 28 29 32 33 35 37 38 39 40 41 44 45 45 43 44 50 54
4 4 8 8 8 8 9 10 9 11 12 14 14 13 11 11 15 18 23 22 19 19 21 23 25 27 29 29 31 34 37 40 41 40 45 44 40 40 45 46 51 54 50

GFSSE_500_spd_090.txt.gz
Wind_Speed
36 32 32 39 34 27 37 31 31 22 20 24 21 16 15 15 11 9 6 6 8 9 9 12 16 15 16 13 13 12 12 11 9 10 11 9 10 10 9 10 11 11 11
34 34 28 29 38 29 26 31 27 22 27 24 30 24 19 14 10 9 8 7 8 9 11 12 14 13 14 12 14 12 12 11 11 12 11 11 12 12 11 11 12 12 11
30 35 42 38 37 26 28 23 30 29 32 27 23 22 18 15 14 11 8 7 7 11 13 14 13 14 14 14 16 14 14 12 13 14 13 12 12 12 12 11 11 10 9
32 35 34 30 34 28 28 28 31 34 28 31 28 25 20 19 14 10 7 8 12 14 15 16 15 14 14 16 15 17 14 16 15 17 16 14 14 13 13 12 11 10 9
36 34 33 28 30 31 33 30 32 34 39 33 30 26 22 19 15 11 8 9 12 11 13 14 11 12 14 17 17 20 19 18 18 18 17 15 14 13 12 10 10 9 7
41 36 32 34 42 38 37 35 34 36 38 39 34 28 23 18 15 12 13 10 10 12 15 16 16 17 16 18 21 21 21 21 19 18 16 14 15 12 10 9 9 9 8
39 34 37 35 32 36 40 36 33 24 35 39 32 30 22 19 16 16 13 12 13 13 16 16 19 21 21 22 22 22 21 22 20 17 16 16 14 12 11 12 11 10 9
30 30 32 39 26 27 31 31 32 29 31 37 33 29 25 20 20 17 14 14 18 13 16 17 19 21 21 23 24 23 21 20 19 17 17 14 13 14 14 12 12 11 11
25 31 30 29 32 31 31 32 29 34 34 37 39 34 25 25 20 19 16 15 12 15 17 19 19 20 22 25 24 26 25 22 23 24 17 16 16 15 15 14 14 14 14
15 30 33 33 34 34 39 39 31 34 38 35 38 27 30 21 21 16 18 18 16 16 16 20 22 24 25 27 30 34 28 29 28 22 18 18 17 16 16 16 16 16 15
17 17 27 30 38 38 38 34 35 33 38 34 39 34 30 26 19 19 17 17 19 18 18 22 24 25 27 28 28 29 27 29 25 18 19 17 17 17 17 17 17 18 17
4 9 18 19 23 25 25 41 31 33 31 33 46 37 34 22 20 18 20 17 16 18 20 25 25 32 32 30 28 28 25 24 25 20 20 18 18 18 18 18 18 19 20
5 10 17 11 16 31 39 38 39 35 26 32 48 39 29 24 21 21 22 20 21 21 21 26 24 24 28 28 28 27 24 27 24 19 20 20 20 19 19 18 20 22 23
8 10 13 10 7 17 36 40 39 41 29 33 41 33 33 26 22 24 24 23 18 24 26 28 25 24 26 25 25 25 25 23 21 20 20 20 20 20 19 20 21 23 25
9 8 8 7 6 4 27 47 52 38 40 45 36 33 32 26 23 22 24 25 28 25 22 27 26 26 27 25 23 29 24 23 22 21 21 21 21 21 21 23 23 24 25
10 8 6 13 20 8 10 38 44 47 41 35 39 34 29 27 23 23 26 26 29 33 31 28 28 28 28 25 25 26 22 20 21 22 21 21 22 23 24 24 25 26 26
11 11 4 7 17 14 20 36 41 38 40 37 27 28 30 30 27 22 24 27 25 21 30 31 28 30 25 23 22 21 19 20 23 22 22 21 23 25 26 26 27 28 28
13 12 8 4 7 15 16 29 40 41 34 28 32 27 30 28 28 31 27 27 27 28 30 30 30 26 24 22 19 18 19 21 21 22 23 24 24 26 28 29 30 32 32
14 12 11 6 8 8 14 21 20 16 20 24 31 24 24 30 29 27 22 26 26 29 28 28 26 26 25 23 19 19 19 21 23 24 26 26 27 29 32 33 35 35 34
14 14 11 8 9 11 13 19 19 21 22 26 30 26 24 23 31 32 28 25 29 28 28 29 25 26 23 19 20 22 22 23 24 25 27 29 31 33 36 37 37 37 37
11 14 11 11 15 15 20 22 23 25 19 24 24 25 27 27 31 34 32 28 28 29 28 25 21 23 23 23 22 23 22 25 26 28 28 31 34 36 38 40 39 40 42
8 12 12 8 14 13 16 21 27 30 33 28 27 27 24 27 31 32 31 28 28 24 24 24 25 24 24 22 23 26 27 27 29 29 31 34 36 39 42 44 45 44 45
4 9 12 15 16 18 14 18 21 26 30 34 30 29 29 29 29 26 24 22 20 19 22 24 24 24 23 22 24 26 27 29 31 32 34 37 41 41 43 44 45 43 41
7 3 5 6 7 8 10 14 20 23 24 31 35 32 31 27 24 23 20 20 19 20 23 24 26 24 26 22 25 29 30 30 31 34 37 37 41 42 43 45 43 42 41
3 4 4 7 7 7 6 7 7 9 14 17 19 17 13 13 16 18 20 20 21 22 25 25 26 28 26 25 29 30 33 34 33 35 38 40 43 43 46 42 40 38 37
2 2 2 1 5 8 9 10 11 13 15 16 17 18 17 16 18 21 23 23 24 25 25 26 29 30 28 29 30 33 35 37 38 39 42 44 44 47 46 45 46 43 44

GFSSE_500_spd_093.txt.gz
Wind_Speed
26 29 34 38 34 24 38 20 30 34 21 15 15 24 33 37 22 16 13 11 9 7 3 5 8 10 11 12 11 12 11 11 11 10 10 11 11 11 11 12 12 13 14
25 22 28 34 31 41 35 25 25 34 23 14 25 25 22 17 14 17 15 12 10 9 6 6 8 9 9 8 8 9 12 14 11 10 12 13 14 12 12 13 13 13 13
25 29 32 36 37 21 19 29 18 24 25 24 26 25 22 21 20 16 15 11 10 8 5 6 10 12 9 10 9 11 13 15 12 14 14 13 15 12 14 14 14 12 11
31 32 35 39 36 38 31 24 24 22 24 21 23 31 28 23 19 16 11 9 8 5 5 8 10 13 12 10 10 14 17 17 14 15 14 13 15 14 14 15 14 11 11
37 37 38 37 38 32 32 39 28 29 23 20 24 30 30 26 22 19 15 12 9 7 8 10 11 9 10 8 12 17 18 16 15 14 13 13 14 14 16 14 13 12 10
39 40 48 45 34 39 25 33 32 28 23 25 29 32 31 31 25 22 17 12 10 9 10 13 12 14 15 17 18 17 16 16 15 16 16 15 16 17 16 12 12 11 11
30 37 44 45 40 33 43 35 32 30 22 25 33 27 31 29 28 22 17 13 12 10 11 11 12 16 17 18 18 17 18 19 20 20 20 18 18 16 14 12 12 12 12
20 18 31 37 41 39 45 40 33 31 25 23 24 23 33 27 26 21 17 13 12 12 15 14 14 16 18 18 19 18 19 19 23 23 22 20 18 15 14 14 13 12 12
15 14 26 42 43 17 39 27 26 28 31 27 28 35 37 28 27 22 19 13 11 15 18 16 14 17 17 17 18 20 22 22 25 24 24 22 18 17 16 15 14 14 13
13 11 17 23 24 15 19 24 21 17 19 30 24 39 37 33 28 25 21 16 15 15 16 16 17 19 20 20 20 22 22 23 26 22 25 25 18 19 18 17 15 14 15
8 14 17 25 23 24 21 23 23 20 26 28 27 35 36 34 27 26 22 20 18 16 17 18 23 20 20 22 24 22 23 26 23 23 26 21 19 19 19 17 16 15 16
4 9 14 20 28 28 26 31 34 26 29 31 27 35 39 36 33 28 27 22 15 16 17 19 20 20 23 27 27 26 28 27 25 22 20 21 19 19 19 19 17 17 18
7 10 12 15 19 24 27 37 27 41 28 28 30 37 37 38 39 32 27 20 17 15 16 20 22 23 28 25 25 29 30 28 24 21 21 25 22 20 19 19 18 19 20
19 12 10 16 18 24 31 31 44 46 33 34 29 30 41 37 34 30 26 20 20 18 18 26 26 28 25 25 24 26 29 28 22 21 23 26 22 20 20 20 20 21 21
18 16 12 7 11 21 41 48 42 40 44 34 32 34 38 38 34 33 25 23 22 19 21 25 23 25 28 28 25 27 28 24 21 21 23 24 22 21 21 21 22 22 22
17 17 14 11 10 11 24 44 48 49 47 42 31 34 41 42 37 33 27 24 24 22 20 29 25 26 27 30 28 27 27 22 22 23 22 22 23 22 23 23 23 24 24
19 15 12 5 11 6 18 25 48 50 42 43 30 36 40 38 36 32 28 26 26 23 27 26 28 29 29 30 29 29 27 26 28 22 21 25 23 25 23 26 26 27 27
21 18 15 11 11 2 6 16 41 45 43 36 35 37 40 37 34 32 28 25 23 25 27 24 26 27 29 30 28 26 23 26 23 20 24 25 25 25 27 26 27 30 31
20 19 14 9 5 9 6 21 26 39 45 41 33 42 39 32 34 33 31 30 24 28 25 28 28 27 29 28 26 22 22 22 23 23 23 25 27 28 28 28 30 33 34
17 18 11 6 6 14 15 21 29 31 43 32 37 33 32 35 29 37 32 27 24 26 26 28 30 30 31 27 24 25 23 22 21 21 23 25 26 28 30 31 33 36 36
13 15 11 8 8 13 22 18 20 28 30 27 32 31 32 30 25 31 32 29 29 28 27 30 31 32 29 27 23 21 22 24 22 23 25 27 29 30 32 35 37 39 39
7 10 10 9 14 11 17 27 22 25 28 22 24 28 29 28 28 28 29 34 33 29 29 30 30 28 25 20 22 22 22 22 25 25 27 30 32 34 37 38 41 41 40
1 5 11 10 11 20 16 22 25 23 30 25 27 29 34 33 33 32 30 34 32 32 30 31 28 25 21 22 24 25 24 24 26 27 30 33 36 38 40 42 43 44 44
11 3 2 3 7 12 16 20 23 27 25 32 30 33 35 32 31 30 27 28 28 28 23 22 21 22 24 24 25 27 27 25 27 29 33 37 39 40 41 44 45 46 45
6 6 4 2 1 4 9 14 20 23 25 26 30 32 31 30 31 30 29 26 23 18 19 22 23 24 27 28 28 30 28 27 31 33 34 37 40 41 44 45 41 41 48
2 2 1 2 3 4 4 5 8 10 13 15 17 23 26 21 16 14 14 16 19 20 24 24 26 26 28 31 33 34 34 33 34 37 40 42 44 45 45 45 45 44 44

GFSSE_500_spd_096.txt.gz
Wind_Speed
28 27 23 27 32 35 37 31 26 32 32 29 26 26 26 28 30 35 28 26 21 16 12 8 7 4 5 9 9 8 6 7 7 8 9 9 9 10 10 11 12 12 14
23 24 21 20 27 33 30 29 33 27 28 31 25 21 21 31 35 34 29 25 21 18 13 9 8 9 9 7 7 8 7 7 8 10 11 10 10 11 12 13 14 14 14
26 26 25 22 24 30 34 32 33 28 22 26 18 23 25 39 41 37 31 25 22 18 14 14 12 8 10 8 8 7 7 9 11 11 12 10 11 12 13 14 15 15 15
31 32 31 29 28 30 30 22 27 26 30 22 26 25 30 32 26 25 26 21 21 19 17 13 12 9 7 7 9 8 9 11 12 13 13 12 13 13 14 14 15 14 13
30 34 38 35 35 34 35 36 31 30 21 16 26 20 30 30 29 29 23 18 18 18 14 12 9 8 6 10 9 8 11 13 16 16 14 15 15 15 15 15 15 15 14
32 35 40 44 41 38 36 34 27 34 29 19 20 21 32 30 25 21 21 19 20 17 14 11 11 9 8 11 13 14 13 15 16 17 16 16 16 15 17 16 16 13 12
31 31 33 39 47 47 36 36 30 28 37 30 20 24 34 33 30 26 24 21 18 16 14 13 12 13 14 16 17 15 16 17 18 18 17 17 16 16 15 16 15 13 14
28 24 27 29 44 45 41 39 39 26 31 29 27 32 35 36 30 26 24 24 21 19 16 15 15 16 15 15 15 16 18 18 18 19 17 15 16 18 18 16 16 14 14
24 18 18 21 36 46 47 49 36 34 27 30 30 27 29 35 29 27 25 22 21 18 18 15 16 13 13 15 14 15 18 20 18 20 19 21 20 21 17 17 16 15 15
28 20 14 9 36 36 39 29 34 36 29 28 26 25 28 37 34 30 27 26 23 20 17 17 18 18 15 13 13 18 21 20 21 20 22 17 20 24 18 17 16 15 15
30 23 13 7 7 31 23 42 38 42 28 29 31 27 30 32 36 34 30 29 24 21 20 19 19 19 16 14 20 21 23 23 22 21 18 18 21 19 18 16 16 16 16
30 21 17 8 10 23 24 17 40 36 29 27 29 28 24 36 39 36 32 30 26 22 20 20 20 17 18 16 20 25 25 24 26 25 23 21 17 17 19 18 17 16 17
33 23 16 10 11 20 21 25 27 37 31 24 28 29 25 36 41 35 33 29 26 20 22 21 18 19 19 20 22 21 23 24 26 27 26 21 19 18 20 20 18 16 17
28 27 20 14 15 18 23 25 29 39 26 32 29 28 30 37 39 36 33 30 28 25 24 22 21 22 21 20 20 21 24 23 25 27 28 24 24 22 21 19 18 18 18
24 24 18 21 14 21 21 28 35 34 36 40 30 30 30 38 39 39 38 32 31 32 25 24 24 23 21 19 22 25 26 25 27 28 24 22 21 21 20 20 18 18 18
22 21 19 21 22 15 23 32 34 28 38 34 40 34 29 36 41 44 40 36 35 32 25 23 24 25 20 22 22 28 24 27 27 26 24 21 21 21 22 22 19 20 19
25 19 19 19 21 18 13 27 40 43 43 40 41 35 37 35 38 40 42 37 36 31 29 25 28 26 28 26 29 27 27 27 26 27 26 24 24 24 23 22 22 21 23
24 19 17 21 22 23 27 22 38 50 47 46 44 44 35 34 37 40 41 37 36 31 28 30 29 27 27 31 24 28 28 29 29 26 29 27 25 24 26 24 25 25 27
24 17 17 21 21 20 23 22 32 39 53 50 44 50 42 39 41 44 46 41 36 30 30 31 29 27 27 27 27 27 28 27 26 25 26 23 22 25 27 23 26 28 30
21 14 14 17 18 20 13 14 28 40 48 43 47 40 41 41 41 42 44 39 33 34 30 30 30 29 27 27 27 29 27 25 22 20 23 23 25 27 24 28 29 30 32
15 10 12 14 13 13 5 13 24 36 39 45 37 35 41 42 42 44 39 35 34 34 31 27 27 27 30 30 28 30 27 24 22 23 27 27 23 23 29 31 31 33 35
11 9 9 11 12 11 11 17 24 30 37 36 39 43 42 44 41 36 33 33 36 34 31 31 32 32 30 29 28 30 23 18 22 24 23 25 28 29 32 33 34 38 38
10 6 8 9 8 12 6 13 23 27 25 40 31 35 41 38 36 38 34 26 30 34 35 37 35 33 32 28 30 24 17 21 25 24 27 29 31 32 34 37 38 39 40
9 6 7 10 9 10 13 17 17 19 23 30 20 25 34 28 27 30 34 30 31 33 34 33 33 32 31 25 26 20 23 25 27 28 32 32 32 34 37 39 39 40 42
7 8 6 3 4 7 14 15 18 21 25 24 29 26 28 29 30 31 31 32 31 31 30 30 30 24 24 25 23 24 25 26 28 31 31 34 36 40 41 41 40 43 44
10 5 2 5 2 1 5 12 15 21 23 25 35 33 22 29 34 36 34 37 32 29 24 20 20 20 22 23 26 28 29 31 32 33 38 41 45 38 45 45 46 46 46

GFSSE_500_spd_099.txt.gz
Wind_Speed
19 17 17 14 18 25 28 31 33 32 31 29 31 33 30 30 29 30 30 33 31 26 23 20 16 12 10 8 7 4 5 5 4 5 7 8 9 8 8 9 12 13 15
21 20 23 20 15 17 25 30 32 28 26 35 35 33 30 32 32 30 32 36 35 28 25 21 18 15 11 10 8 12 11 11 12 11 11 10 9 9 10 10 13 14 15
26 26 26 26 24 18 21 28 27 27 29 31 31 30 28 26 33 35 33 35 34 31 26 20 19 16 13 12 13 12 10 9 10 9 11 8 10 10 10 12 13 14 14
28 30 27 28 30 26 24 25 30 33 37 28 23 32 29 25 28 37 37 36 34 32 27 23 18 17 14 15 14 10 10 9 10 10 9 9 12 12 12 13 13 14 14
29 29 31 27 32 34 32 29 28 29 27 26 27 16 21 32 37 41 42 37 35 31 25 21 18 15 16 17 16 12 11 11 12 12 12 12 13 13 14 14 14 16 15
30 32 33 35 38 38 39 37 34 33 28 25 27 19 21 24 30 41 43 33 35 26 23 21 20 17 16 16 13 11 9 9 10 14 14 13 14 15 14 15 15 15 14
32 31 34 35 35 40 47 40 40 31 32 31 27 23 23 25 25 30 32 30 28 26 24 18 19 19 17 15 13 12 12 12 15 16 16 16 16 16 17 15 13 14 13
32 31 33 35 33 38 45 52 38 37 32 33 32 24 21 23 38 34 30 24 22 20 22 22 18 15 17 15 15 15 15 14 16 15 19 18 15 14 19 17 14 14 13
30 32 31 33 36 39 45 64 48 37 36 33 31 26 24 21 32 34 29 25 24 25 22 16 15 16 17 17 19 17 15 15 16 15 17 17 14 18 18 17 15 14 15
26 30 31 32 34 38 41 60 49 48 40 36 31 31 31 29 28 38 33 30 27 23 18 15 16 17 17 19 18 17 14 16 18 17 20 17 18 16 20 20 15 16 13
26 28 31 31 30 29 34 48 33 46 38 35 32 34 31 31 32 39 37 30 27 22 18 17 15 16 19 19 17 18 17 18 18 20 21 19 20 19 21 18 15 15 13
23 27 29 23 25 13 26 40 36 51 46 42 34 32 34 29 30 35 34 29 28 21 20 17 17 18 19 21 21 20 19 21 19 21 20 23 21 21 18 17 15 15 14
29 24 25 19 22 6 17 28 36 37 42 38 33 30 32 29 24 37 34 32 29 25 23 19 19 22 21 22 23 19 21 21 19 19 21 20 21 22 19 19 16 18 16
31 23 24 15 22 11 16 33 25 34 30 31 23 30 28 25 26 38 40 35 29 28 25 23 23 20 21 19 22 22 23 20 17 17 23 22 22 23 25 19 17 18 18
29 23 19 17 19 13 18 26 26 38 32 33 26 25 28 28 27 35 41 37 33 31 28 27 22 22 21 20 23 25 22 19 19 19 25 24 22 23 27 21 19 19 19
30 25 17 16 16 9 18 22 26 28 38 39 29 34 26 28 28 34 42 38 34 33 32 26 25 24 21 23 24 23 24 23 23 23 29 21 22 22 22 20 19 19 20
31 27 20 14 15 18 11 26 29 32 36 34 38 31 29 32 31 33 44 37 34 35 34 30 28 27 23 24 27 30 28 28 26 29 30 22 20 23 22 22 20 22 20
30 26 24 14 18 17 21 25 26 37 35 35 45 46 37 30 34 36 41 41 39 37 37 33 30 28 28 26 28 31 32 28 30 29 27 24 23 23 23 25 23 26 26
28 27 22 16 17 18 22 27 20 40 44 44 39 45 45 39 37 37 41 44 46 39 42 34 28 30 30 29 28 31 31 30 30 29 26 26 25 26 25 24 22 17 21
27 25 16 13 14 15 21 27 22 34 41 50 45 43 39 43 43 41 42 41 43 43 41 33 32 30 28 30 31 31 30 31 30 29 28 25 21 20 21 23 20 25 27
24 23 15 14 15 14 19 27 28 33 38 49 52 44 45 46 44 44 38 39 47 42 42 36 34 32 32 33 31 32 32 31 31 31 28 22 20 22 22 22 24 25 27
20 18 14 11 15 13 16 21 26 25 33 38 46 49 44 43 45 49 47 47 45 41 43 31 32 33 31 30 32 33 33 32 30 27 20 16 16 18 23 25 26 28 30
14 16 12 12 13 13 13 19 11 24 34 35 38 40 42 43 45 44 42 41 39 37 35 36 33 32 33 34 34 33 32 27 28 22 17 19 21 24 27 30 31 31 33
12 12 13 10 14 14 13 10 4 11 15 27 35 41 44 41 37 36 36 37 41 36 29 28 30 34 36 34 31 30 26 27 27 22 22 23 25 29 31 32 33 35 37
12 10 11 10 9 13 13 9 14 9 7 20 23 28 33 32 36 32 37 40 32 32 27 27 28 31 31 28 27 24 22 24 26 25 24 27 29 31 32 35 37 39 40
10 8 8 8 6 7 5 12 13 12 13 10 17 20 24 25 26 29 29 26 33 30 26 28 26 21 18 18 18 22 21 26 27 31 31 33 36 35 39 42 41 44 48

GFSSE_500_spd_102.txt.gz
Wind_Speed
31 28 25 19 17 19 20 25 29 29 33 35 33 32 32 34 34 34 32 32 29 28 28 28 28 25 21 18 16 12 12 10 8 5 5 6 6 7 7 7 7 9 12
33 20 22 21 21 18 18 20 25 31 32 32 29 28 28 31 32 34 33 32 30 30 31 30 27 23 21 17 14 13 10 10 9 8 13 14 10 9 8 8 10 11 12
30 25 26 25 25 25 22 21 22 22 27 29 27 27 34 33 33 33 33 34 30 30 29 27 25 25 21 17 15 12 10 10 11 14 11 12 9 10 9 11 10 10 11
30 30 27 26 26 27 28 27 25 24 28 27 28 25 31 35 35 36 35 37 35 37 37 35 25 21 20 19 15 15 15 16 16 12 13 10 9 10 11 11 9 9 11
27 29 27 27 29 28 30 31 30 27 26 28 33 33 27 35 35 31 36 39 35 34 36 30 28 23 20 18 17 17 18 14 12 12 8 9 8 11 12 10 10 12 12
27 27 29 30 30 30 31 34 33 32 27 28 32 35 16 17 29 34 32 40 37 36 36 33 23 21 20 18 20 19 21 17 12 10 8 9 9 12 11 11 12 12 11
28 28 32 31 31 34 33 33 37 38 33 29 34 28 27 20 25 31 35 37 43 39 39 29 26 22 18 18 19 21 18 13 12 12 10 9 9 11 11 12 13 13 13
29 32 31 33 31 32 34 37 40 43 46 36 36 27 30 29 27 26 28 33 47 43 38 29 23 22 22 23 21 20 17 16 15 12 10 9 10 11 11 14 15 12 12
30 30 29 31 33 34 36 41 42 44 44 28 34 28 24 32 25 18 24 29 33 34 28 25 23 22 21 22 22 20 17 17 15 13 11 10 11 13 14 15 15 13 12
27 29 30 31 32 35 37 41 46 43 40 56 40 32 31 34 27 22 29 31 31 28 23 17 16 20 20 18 19 17 17 17 14 11 14 14 15 14 15 15 17 14 13
28 30 31 32 30 31 39 43 45 39 46 62 48 39 34 38 26 21 29 33 34 22 21 21 21 19 17 18 17 17 16 15 16 14 14 16 18 16 17 17 16 14 13
21 27 30 30 27 29 41 28 15 23 52 45 45 43 45 33 29 30 29 32 28 27 24 23 19 15 15 15 17 17 16 15 16 17 17 18 17 18 18 17 15 14 14
25 25 26 29 24 26 35 8 15 30 37 45 45 41 35 31 30 27 28 33 29 29 23 19 17 15 14 17 17 18 18 15 20 18 19 20 16 18 20 18 17 16 15
27 24 26 24 23 20 27 7 14 24 25 44 39 40 34 28 27 28 25 34 31 29 23 22 19 18 16 17 16 16 16 16 20 18 20 21 19 17 20 20 19 16 17
28 26 26 23 20 17 20 8 12 23 35 45 46 43 29 28 26 27 23 32 34 33 29 25 24 22 19 16 16 17 19 15 16 17 20 21 20 20 18 22 22 19 16
28 25 26 21 18 12 13 12 11 18 27 32 39 39 40 31 28 23 27 34 36 32 31 27 27 25 17 18 20 20 21 19 18 23 24 24 21 20 23 20 23 19 15
26 25 23 21 18 12 9 13 12 15 21 28 35 26 25 29 27 26 27 35 36 35 33 29 27 26 21 21 23 24 22 23 23 24 26 24 24 22 25 20 23 18 14
23 24 22 20 16 15 12 12 10 14 21 34 41 32 26 26 25 27 29 32 34 39 34 30 29 29 28 23 28 26 27 26 25 21 25 24 25 27 25 20 23 17 18
21 23 20 17 14 17 16 16 15 15 25 34 40 38 32 30 36 32 31 29 34 37 34 28 31 35 29 27 31 28 28 26 26 26 22 25 28 27 24 24 24 21 19
18 24 17 14 9 15 14 15 15 22 21 32 45 40 41 38 40 33 32 29 32 37 40 37 31 37 33 29 28 27 28 27 29 28 28 27 28 22 21 18 18 19 20
17 22 17 11 9 12 14 15 17 22 25 28 39 40 45 43 39 38 30 28 31 33 43 38 41 40 38 30 33 31 30 28 29 29 30 30 24 17 16 16 16 17 19
16 19 19 13 10 10 13 17 21 22 28 30 44 46 43 39 44 43 43 38 38 36 38 32 41 41 39 34 32 33 31 29 30 31 29 26 19 13 14 15 18 21 22
13 16 17 15 11 11 14 15 22 26 29 26 43 45 46 40 39 40 40 42 41 35 38 36 39 42 42 33 33 32 32 29 30 29 23 19 15 16 18 21 23 24 26
11 13 15 14 12 11 15 17 15 23 14 23 37 40 44 47 41 43 43 41 42 41 44 45 40 32 33 31 33 33 30 25 26 19 17 15 20 19 21 23 26 27 27
11 10 13 11 12 11 12 16 14 9 19 16 28 28 39 45 46 40 38 39 39 37 33 29 28 28 25 31 28 25 21 17 17 17 16 19 22 23 27 28 31 31 33
12 8 10 11 12 12 11 12 14 10 16 12 14 28 37 39 37 44 42 35 29 32 31 27 23 23 25 24 17 14 14 14 17 20 18 20 24 27 32 35 35 36 40

GFSSE_500_spd_105.txt.gz
Wind_Speed
32 29 30 28 24 22 22 22 22 30 35 38 38 36 34 33 33 33 32 31 27 27 28 27 26 27 29 28 25 22 19 18 16 15 14 11 7 6 8 7 8 9 9
32 29 26 26 27 26 24 22 21 20 21 28 29 35 34 34 33 33 33 33 33 30 29 29 27 28 28 27 25 21 20 18 16 12 9 7 10 10 12 9 8 10 10
32 27 26 28 29 29 27 25 23 23 17 22 27 32 29 34 34 34 32 32 33 33 31 29 30 31 29 26 25 23 20 17 14 13 14 12 12 9 11 8 10 10 9
29 26 27 26 27 27 27 27 24 23 22 25 24 27 27 30 35 32 32 31 31 33 29 30 31 31 30 27 25 21 18 16 15 13 11 12 17 12 10 9 9 9 8
25 25 27 26 23 25 26 26 26 28 28 27 24 25 26 30 34 38 33 31 33 33 32 30 30 35 30 28 24 23 20 22 17 17 18 15 11 12 9 10 9 9 9
25 25 27 25 27 29 27 28 30 28 30 22 28 22 32 37 41 34 38 32 34 34 34 35 36 34 35 23 23 23 22 20 18 19 15 13 11 9 8 8 9 8 8
23 21 23 27 27 28 28 29 28 29 32 28 37 19 32 25 30 39 33 33 35 34 34 36 37 36 34 26 23 18 19 19 19 13 14 12 10 7 6 7 7 9 8
25 22 23 24 26 28 29 28 29 28 32 36 29 31 33 23 23 22 28 27 31 38 36 38 36 39 19 19 16 18 18 19 18 14 12 12 10 9 8 6 8 8 9
24 23 22 24 27 27 29 29 30 31 34 40 43 42 42 30 23 22 28 26 29 36 41 39 37 25 23 21 20 17 18 21 16 15 12 12 9 10 8 10 10 9 9
20 20 21 24 30 32 31 31 30 30 35 38 37 42 35 35 29 26 28 20 22 28 37 43 38 30 23 17 12 17 21 20 16 13 14 13 10 11 12 12 11 11 11
19 21 23 25 29 31 30 30 30 35 40 41 40 37 40 37 34 24 27 22 23 20 26 36 27 19 14 17 18 20 18 17 14 14 14 13 11 12 13 13 13 12 11
14 18 20 27 26 29 29 27 33 40 39 41 43 43 56 39 37 29 29 23 27 25 28 20 15 16 17 15 16 17 15 13 13 15 15 14 13 14 13 12 14 16 14
19 20 24 24 27 26 28 27 36 31 25 40 53 48 48 40 39 32 19 26 29 32 26 19 17 19 18 17 17 11 14 13 14 14 12 13 13 12 15 15 13 15 13
26 25 26 26 24 25 25 27 22 16 18 45 50 52 46 45 37 30 23 23 24 28 24 22 23 19 17 16 14 10 16 10 12 13 12 10 12 13 14 15 15 13 15
28 28 28 25 22 23 23 21 14 9 18 22 52 54 46 37 42 32 26 24 26 30 28 27 25 20 20 19 13 9 16 7 11 11 10 12 13 14 13 14 14 14 16
30 30 28 26 23 21 19 16 14 6 15 21 38 53 38 39 40 35 29 24 30 34 33 31 29 22 20 21 16 13 11 14 13 15 16 16 18 16 15 16 16 15 16
26 28 26 26 22 19 14 9 15 6 28 30 50 47 41 41 32 30 25 25 30 36 35 32 31 27 23 22 19 15 12 15 17 16 17 16 18 18 17 17 18 17 16
23 24 24 25 21 16 13 9 5 8 13 21 35 33 37 34 32 25 25 26 35 34 37 35 31 30 24 22 21 17 18 19 21 17 17 17 18 21 20 20 20 19 19
22 21 23 24 19 14 11 12 8 2 5 9 25 32 33 31 30 30 28 27 34 36 38 36 32 31 26 24 21 22 23 20 19 20 22 19 20 23 23 21 19 21 20
20 19 21 23 15 11 9 11 11 9 7 6 14 31 30 25 29 31 27 26 31 32 35 37 36 33 28 25 27 26 26 25 19 19 22 23 23 23 21 18 19 20 20
18 18 19 21 15 11 9 10 11 13 16 11 12 22 32 34 31 35 35 30 33 29 33 32 32 33 32 30 27 29 29 29 28 25 19 22 24 25 18 16 16 16 16
18 16 15 17 18 11 8 10 13 14 15 15 19 24 32 41 37 37 35 37 30 27 22 28 30 35 32 31 31 34 33 29 29 28 29 23 19 18 16 16 15 18 20
18 14 13 15 16 14 9 12 14 12 12 18 30 34 33 42 38 37 42 41 31 26 24 27 28 29 32 34 32 35 34 30 30 29 28 25 18 14 15 16 16 17 20
18 13 12 13 12 13 12 12 13 13 13 16 23 27 36 38 41 39 42 42 37 30 32 30 30 32 36 36 33 33 27 29 29 31 25 20 16 15 15 17 17 18 20
18 13 10 12 12 12 12 11 12 10 13 19 12 18 34 35 45 42 40 36 37 32 36 34 33 37 40 32 28 26 25 27 30 28 20 18 16 19 19 21 21 25 28
18 12 8 13 13 11 12 11 11 10 6 14 20 12 44 40 35 45 39 35 33 32 33 38 38 31 29 28 25 23 24 26 23 21 19 21 21 22 23 22 24 28 31

GFSSE_500_spd_108.txt.gz
Wind_Speed
28 26 26 28 28 28 26 24 24 22 20 21 29 37 40 41 39 37 35 33 27 24 22 24 26 26 25 25 25 27 27 26 24 22 19 17 14 11 10 11 11 11 10
27 27 25 26 27 29 28 26 27 22 21 22 21 27 36 38 37 37 36 34 33 28 27 24 25 25 25 26 26 29 28 26 24 21 18 15 14 13 11 13 16 13 10
30 25 27 28 26 27 29 25 25 24 24 24 23 18 20 25 32 37 35 34 34 32 30 26 25 25 26 27 28 29 27 24 20 20 18 16 15 16 16 13 15 11 9
27 27 29 28 26 25 25 25 25 26 23 25 19 21 26 23 26 33 35 33 32 32 34 32 29 26 26 28 27 25 24 23 20 20 19 17 16 14 14 11 11 10 9
22 26 29 27 27 27 25 25 25 25 26 29 21 25 30 25 24 28 33 32 34 32 32 33 30 25 27 27 26 25 23 22 22 21 18 16 16 15 11 11 11 10 10
26 25 25 23 24 24 26 25 26 26 24 20 33 33 31 28 26 31 31 34 33 32 30 28 29 31 29 29 29 28 27 26 25 24 22 21 16 13 11 9 10 11 12
26 24 23 24 24 24 21 22 24 25 25 26 28 32 37 30 23 31 29 28 33 30 29 28 30 29 30 32 33 28 29 26 23 21 15 18 17 14 9 9 10 11 12
26 25 24 24 21 20 20 23 24 28 29 28 29 26 14 24 22 28 29 31 32 32 27 30 34 34 36 35 40 34 24 19 24 22 18 16 12 10 10 7 7 10 10
28 23 22 19 17 20 21 25 28 30 33 32 30 28 20 30 31 32 25 26 32 31 31 34 37 38 38 35 35 24 21 19 16 15 16 11 10 8 4 7 11 12 10
30 25 23 21 19 21 23 26 31 32 34 34 27 27 30 36 28 29 21 21 31 28 28 34 38 39 36 29 14 17 19 17 16 14 14 12 12 8 8 10 14 12 13
29 26 27 23 22 26 27 30 31 31 33 35 37 31 30 30 35 26 27 20 31 26 28 37 42 35 29 22 19 15 16 15 13 13 14 11 11 10 10 12 12 12 12
30 25 27 27 27 28 31 31 31 30 28 35 38 35 31 36 38 37 36 22 26 23 21 23 32 30 33 21 18 17 15 16 13 12 11 13 13 9 12 12 13 13 13
30 24 25 27 29 30 32 33 32 26 32 30 28 34 37 26 40 41 34 25 23 18 16 11 12 20 16 16 21 17 14 12 12 11 9 11 11 10 12 16 15 13 13
30 26 27 28 29 32 31 33 29 26 28 27 26 38 40 40 47 33 27 30 27 23 19 20 21 21 16 16 14 15 13 13 12 12 9 11 11 10 11 14 15 13 13
32 29 27 30 30 32 31 30 26 27 26 25 31 38 46 45 49 41 35 24 24 25 28 27 23 20 19 16 18 15 13 10 8 11 10 11 13 13 13 12 13 13 16
31 31 27 29 29 31 30 28 21 25 20 21 15 42 50 52 50 38 37 29 26 26 31 28 25 26 24 20 19 14 11 14 14 14 11 16 18 17 15 14 15 15 17
31 32 27 27 29 31 28 25 18 18 18 19 23 42 56 47 43 40 36 30 27 29 28 28 29 30 28 19 18 15 15 16 18 12 11 13 15 15 14 14 18 18 18
32 28 25 25 28 27 24 19 14 11 13 11 23 44 54 50 43 43 36 30 30 29 32 33 33 32 31 20 19 19 18 20 18 14 15 14 15 15 15 17 22 23 20
30 24 21 23 25 24 20 13 12 9 11 9 23 41 48 45 37 39 37 31 33 33 32 34 35 34 34 24 21 23 23 22 17 17 18 18 18 18 19 21 23 23 20
27 22 19 22 21 21 17 13 12 9 2 5 29 40 33 37 40 34 30 32 35 34 34 33 34 35 35 29 27 27 27 22 23 22 21 20 19 20 22 23 24 22 21
24 19 18 20 19 18 17 14 12 13 10 7 6 17 33 37 37 34 33 33 29 29 34 36 36 36 37 32 30 26 19 23 28 27 26 24 22 21 24 24 22 21 19
21 19 18 18 18 15 15 14 12 11 11 12 13 13 20 30 37 33 31 32 28 29 27 32 37 37 36 39 33 32 30 30 26 30 27 25 25 26 25 24 21 19 19
19 19 17 18 16 14 13 13 14 12 13 13 15 17 16 21 25 34 34 37 34 28 25 30 27 30 31 33 36 33 31 29 31 28 32 29 27 28 28 23 22 20 19
21 19 18 17 15 13 13 11 11 14 17 19 16 20 22 28 34 35 38 34 33 32 28 27 25 23 24 28 32 33 32 33 36 30 29 31 29 29 29 29 24 22 23
23 18 17 17 15 13 14 14 10 11 16 20 19 20 21 30 35 39 40 39 37 36 37 31 31 31 31 27 27 30 35 31 30 28 29 32 29 27 29 29 28 28 27
23 19 17 16 15 13 15 13 10 10 13 15 14 17 26 38 28 36 34 41 37 40 38 34 32 31 31 31 27 30 26 31 32 29 30 33 27 28 28 29 31 32 31

GFSSE_500_spd_111.txt.gz
Wind_Speed
26 26 28 29 29 28 28 26 25 22 23 22 21 23 23 20 21 30 35 36 34 31 27 25 27 27 26 25 23 22 22 24 25 26 23 21 19 18 15 13 13 13 12
28 28 27 28 29 30 29 28 26 24 24 22 21 22 24 24 22 21 30 34 32 32 29 24 22 23 23 22 22 22 23 24 25 24 22 20 18 16 14 14 13 12 14
29 27 28 29 28 29 29 29 27 26 25 24 22 24 24 24 22 16 17 30 33 31 30 26 25 22 22 21 21 22 23 24 23 22 21 19 18 18 15 14 16 13 12
27 26 26 28 30 29 29 28 28 26 25 24 24 21 23 22 25 23 25 24 33 32 30 29 27 23 21 20 20 23 24 24 23 22 20 19 19 16 15 14 12 10 11
24 24 26 27 28 28 28 28 28 26 27 28 27 26 25 24 25 26 29 25 27 30 30 30 29 25 21 19 20 23 23 22 23 21 21 21 18 16 13 11 10 8 10
28 26 27 27 26 26 27 27 28 26 26 25 25 22 28 30 29 25 29 25 25 30 31 29 26 25 19 20 23 25 25 22 22 23 23 21 18 14 12 10 9 12 11
29 28 27 27 26 27 25 27 25 24 24 24 27 29 28 25 19 24 26 26 21 22 29 25 24 22 22 25 28 29 28 26 25 24 23 24 22 12 13 8 10 10 12
31 31 28 27 24 24 22 24 26 27 25 25 28 37 34 28 42 21 23 21 18 17 24 24 22 22 25 27 28 28 27 30 30 29 29 12 9 8 8 9 10 10 11
29 30 29 28 24 22 23 24 27 28 29 29 27 29 32 40 30 32 19 17 22 19 23 23 23 27 27 30 31 30 32 39 37 35 23 17 14 9 8 11 13 13 12
29 29 30 30 26 22 23 27 30 31 33 29 30 29 30 23 22 22 22 25 21 21 25 28 28 30 31 34 33 29 36 37 26 5 5 11 7 11 10 10 13 15 13
28 30 31 30 27 22 24 29 32 34 35 33 28 28 30 28 27 33 30 25 22 23 25 28 29 32 36 40 38 37 41 27 12 14 16 14 10 10 10 11 13 14 14
25 27 32 29 29 28 28 32 36 36 36 35 30 29 30 31 31 27 32 26 19 22 26 27 30 33 34 39 33 27 14 13 9 12 12 8 8 10 11 10 13 13 16
25 24 31 29 29 31 33 34 37 39 38 36 30 32 30 27 29 29 35 39 30 22 27 25 31 34 36 36 22 18 12 10 10 11 6 9 11 10 12 11 14 17 19
25 24 28 28 27 30 33 35 39 39 34 33 32 25 29 29 30 30 35 31 31 21 22 19 20 24 24 18 20 18 13 13 13 11 12 11 12 12 11 10 13 17 17
26 24 26 26 26 29 31 36 39 34 31 25 29 24 31 35 36 37 39 36 26 28 22 19 21 23 23 23 20 16 18 17 15 16 15 14 13 12 9 12 16 14 15
28 27 24 24 26 28 31 38 37 31 28 25 24 21 26 33 44 36 38 44 39 36 29 23 25 25 26 27 20 18 18 17 16 16 16 16 15 13 15 18 19 15 17
32 29 22 24 25 27 31 35 34 26 21 24 23 21 22 36 42 41 35 34 35 34 30 28 30 29 29 26 20 21 17 18 19 17 12 12 16 16 16 19 19 19 19
31 29 22 24 24 25 31 34 30 20 18 26 22 30 36 40 46 45 47 37 32 33 29 29 28 27 29 26 24 23 21 20 19 15 15 16 17 16 17 19 20 21 22
30 28 21 21 21 24 28 32 26 18 19 27 18 23 33 49 45 46 51 41 38 34 29 29 30 32 31 30 26 23 22 21 20 19 22 21 21 20 20 21 23 24 25
26 27 20 20 18 22 25 29 24 17 18 21 10 14 46 48 46 52 48 41 39 35 32 27 32 33 34 34 31 24 23 24 24 24 26 23 22 22 24 25 26 26 28
26 24 19 19 17 18 23 25 21 16 15 14 11 14 45 42 49 53 46 41 36 33 28 30 34 35 36 35 31 28 25 25 28 30 30 26 26 26 27 29 30 31 29
24 22 18 19 17 15 20 21 19 14 14 11 10 11 31 42 48 41 40 40 36 33 33 33 35 38 33 33 29 31 30 30 30 27 27 26 33 31 33 33 33 31 29
22 19 19 20 17 14 16 19 16 15 13 14 11 12 16 38 43 45 39 32 32 29 27 29 31 31 33 32 33 35 35 36 37 36 32 30 30 36 33 35 33 32 30
22 22 20 21 17 13 15 19 18 13 14 16 16 18 18 19 36 44 34 31 30 31 29 27 27 33 35 33 34 32 34 35 39 40 34 34 38 37 38 37 34 33 33
26 26 22 19 17 13 15 18 19 15 14 16 18 21 20 22 24 23 27 33 32 33 32 30 27 32 31 30 28 29 31 35 32 34 37 37 35 34 36 34 34 33 31
29 28 25 19 16 14 15 16 17 16 15 17 18 21 25 26 28 35 38 37 36 39 39 37 34 31 32 31 31 30 30 28 26 27 34 36 33 34 34 33 33 33 32

GFSSE_500_spd_114.txt.gz
Wind_Speed
22 24 27 27 27 27 26 26 25 23 23 22 20 19 15 12 12 15 20 25 28 27 24 21 22 26 27 25 23 23 20 19 18 18 19 19 18 18 18 16 14 13 13
23 26 27 25 24 26 27 27 27 25 23 22 19 19 22 20 16 17 19 21 24 28 26 24 22 23 27 26 24 22 19 18 18 18 19 20 20 18 16 14 14 13 11
22 25 26 24 23 27 27 27 27 25 24 22 19 21 23 22 19 19 19 20 23 26 26 27 24 22 22 22 21 19 18 18 20 20 20 19 19 17 18 17 13 12 11
23 25 26 22 23 26 26 24 25 25 24 23 22 22 24 24 20 17 17 20 21 25 26 26 25 22 20 20 20 19 20 20 19 19 19 19 19 19 17 17 13 9 8
23 27 24 24 22 24 24 24 24 25 24 25 26 27 25 24 24 20 17 22 25 27 26 25 26 23 20 19 19 19 19 18 18 17 18 18 20 18 17 14 10 7 7
24 27 28 27 26 21 23 22 23 23 24 26 28 28 27 23 20 27 23 20 27 26 30 27 25 24 20 19 19 18 17 17 21 20 20 21 22 20 16 13 12 11 7
24 24 28 30 29 22 21 19 20 22 22 24 26 20 25 33 21 20 24 28 28 25 27 27 22 23 20 19 19 20 22 21 22 21 24 25 23 22 19 17 9 6 8
27 25 27 29 27 25 21 21 21 24 24 26 25 27 33 25 29 27 27 24 20 21 11 19 19 18 19 20 21 22 22 23 23 23 24 25 24 23 25 7 4 9 5
27 25 26 25 24 25 21 22 23 25 26 28 28 26 21 30 30 28 28 27 22 11 11 16 17 21 19 21 22 22 20 20 26 28 28 27 27 21 13 8 6 6 12
22 26 26 25 23 22 21 21 23 25 28 31 31 30 28 27 29 25 30 30 21 21 15 20 24 24 24 24 26 24 25 28 29 26 33 30 26 8 9 10 12 12 13
26 26 25 25 23 22 22 22 24 26 28 31 32 31 30 28 29 22 16 22 20 19 14 23 24 24 25 26 26 26 25 26 26 29 31 18 11 13 14 12 12 11 12
26 29 29 26 23 23 24 25 25 27 28 31 33 32 31 29 30 27 24 21 30 19 18 23 27 27 24 25 29 32 30 33 30 35 38 20 15 15 12 12 12 12 12
31 30 33 30 26 23 23 26 26 28 29 34 32 34 30 28 32 31 27 22 25 19 17 18 25 26 25 31 32 32 32 32 19 15 14 15 16 13 13 14 13 14 15
31 30 35 30 31 24 23 25 27 30 31 34 34 32 30 28 27 21 22 26 28 29 20 16 28 27 29 26 24 28 21 11 7 9 12 13 13 13 13 11 12 14 15
30 31 31 31 31 29 24 24 27 30 33 33 31 31 26 28 25 23 24 30 33 34 21 24 27 23 24 26 25 18 19 15 13 13 11 12 15 16 15 15 15 14 12
28 31 33 31 31 30 25 23 26 30 32 30 29 22 27 29 30 32 30 27 34 30 23 25 21 21 24 23 24 21 21 18 17 17 18 18 17 18 17 17 17 16 17
29 32 34 31 32 31 26 22 26 29 30 28 21 21 30 26 28 37 35 32 33 29 29 27 25 30 27 28 24 19 23 21 20 20 19 18 19 18 18 19 21 17 19
31 32 35 29 34 28 24 21 24 27 28 27 24 25 34 27 30 33 42 38 39 38 33 29 31 31 29 28 26 26 25 22 22 22 20 19 18 16 18 19 19 19 22
31 33 34 31 35 28 23 21 22 25 27 26 25 25 37 30 35 37 41 42 39 44 37 34 36 34 33 31 31 27 26 24 25 24 23 21 18 18 22 20 20 22 24
33 33 32 31 33 28 21 20 20 24 26 25 24 27 32 25 35 38 42 38 40 42 41 38 38 35 33 32 30 30 29 26 26 24 22 21 22 25 27 25 25 23 28
33 34 32 34 34 25 20 19 18 22 24 22 21 25 36 26 38 40 47 44 43 36 36 37 37 37 35 34 33 31 29 24 26 23 24 23 26 31 29 29 29 28 28
33 34 33 34 34 24 19 17 18 18 22 20 20 21 32 22 29 44 47 51 46 35 38 36 35 34 36 37 36 32 31 28 26 26 28 26 26 26 24 27 34 34 34
33 36 33 35 34 24 17 16 16 17 20 21 18 17 19 20 23 30 46 51 45 41 35 33 34 36 38 39 36 36 34 31 31 30 30 28 29 26 26 33 32 36 39
35 39 35 37 30 22 17 17 15 14 18 20 15 18 13 14 27 32 41 46 44 41 39 34 33 32 35 35 35 36 33 31 33 35 34 38 33 36 34 33 36 39 40
33 31 34 37 31 21 17 16 14 14 17 18 15 15 17 13 10 38 45 45 45 39 35 34 31 29 32 34 34 33 34 33 36 32 34 31 33 36 39 39 38 38 38
34 32 32 35 30 20 19 16 13 12 14 17 17 14 15 16 17 21 37 44 45 32 33 33 30 30 31 32 35 37 36 36 34 33 31 25 26 35 39 36 37 36 35

GFSSE_500_spd_117.txt.gz
Wind_Speed
16 17 17 17 19 19 21 22 22 19 17 18 17 17 13 11 12 12 13 15 17 19 19 19 20 21 23 24 24 22 21 18 16 15 13 13 14 14 14 15 15 14 12
16 18 18 18 19 18 20 20 19 19 18 17 18 18 16 16 16 17 18 19 20 20 23 20 21 22 23 25 24 23 21 20 16 14 13 14 14 15 15 15 15 14 14
16 16 18 20 20 18 18 18 19 18 18 17 17 17 19 18 19 18 18 22 23 23 24 24 23 23 23 24 26 24 21 19 17 15 14 15 15 16 17 16 16 15 13
19 16 17 21 20 19 18 19 20 20 18 18 17 20 23 25 23 20 20 22 21 19 21 25 26 25 23 22 21 20 19 19 17 16 16 15 17 17 18 19 15 14 12
21 19 16 19 20 20 19 20 21 20 17 18 20 22 24 27 30 22 17 17 18 21 22 22 25 27 26 22 20 21 22 20 18 17 16 17 17 18 18 18 16 14 13
26 23 21 17 20 21 21 18 20 19 16 17 21 20 24 31 32 22 19 22 20 20 24 22 23 27 27 26 25 24 23 22 18 17 16 16 19 18 16 16 15 14 13
25 28 27 19 18 22 23 18 17 17 17 17 19 20 21 25 21 19 24 23 17 19 18 22 23 27 29 28 24 22 18 18 19 18 19 21 21 20 21 20 20 17 17
26 29 32 29 20 21 22 21 17 15 17 18 18 20 20 21 22 34 16 13 10 26 20 20 22 27 31 28 22 20 19 19 19 20 20 22 21 22 22 19 21 17 10
27 28 32 31 25 23 22 20 20 16 15 19 21 22 21 21 22 21 26 19 27 23 15 13 21 27 25 25 21 20 19 19 19 21 23 26 24 23 23 22 21 14 14
26 28 32 35 30 25 24 21 20 19 17 20 21 21 22 23 22 18 25 20 19 22 20 19 21 29 25 24 24 22 21 20 21 24 24 24 23 21 20 29 18 15 14
22 24 26 33 34 26 27 23 21 20 20 21 19 21 24 24 22 21 22 24 17 25 24 23 22 29 28 27 24 22 22 22 23 23 23 24 26 27 23 19 13 16 15
22 26 26 30 33 28 29 26 23 22 21 22 21 23 25 25 23 21 22 21 20 24 24 13 25 31 29 28 24 21 20 22 25 25 24 23 29 28 23 15 15 17 16
26 29 32 29 32 29 29 28 27 24 23 23 24 23 24 25 21 24 25 23 22 24 20 19 22 28 29 27 24 25 26 26 27 26 24 25 29 23 18 16 19 18 16
29 30 34 30 30 31 30 28 29 25 25 25 28 25 23 21 21 22 24 24 25 24 22 18 23 29 31 27 26 28 29 28 28 31 35 37 20 23 19 20 18 16 16
30 29 33 31 33 31 32 28 30 27 25 27 29 28 24 20 22 23 18 20 26 28 27 25 23 23 29 28 27 29 24 23 25 22 18 17 16 16 18 18 18 18 17
30 27 33 31 37 31 31 30 30 28 25 26 27 26 23 20 17 22 17 21 27 31 33 29 25 24 28 28 29 25 23 22 19 16 16 18 18 17 16 19 19 18 19
32 30 28 33 36 31 31 31 29 27 25 24 26 23 18 16 19 25 23 27 30 31 33 29 21 27 27 27 27 26 26 24 20 22 20 17 15 16 17 18 17 19 21
33 31 28 33 33 31 31 33 30 26 24 23 25 23 20 23 24 31 26 33 31 31 34 33 31 30 27 28 29 29 24 24 23 23 20 18 19 18 18 19 22 22 19
34 33 28 32 29 31 33 35 32 26 22 21 23 24 22 23 25 37 31 33 37 36 36 35 33 31 32 32 31 29 28 27 27 25 22 22 19 18 19 20 20 20 22
34 34 28 30 29 31 33 35 33 26 22 19 20 23 22 24 24 29 33 33 41 37 38 39 34 35 36 34 33 29 29 29 28 26 24 23 21 22 20 20 23 26 27
36 36 29 29 29 32 32 34 31 26 21 18 18 22 24 23 32 26 35 36 45 42 46 40 37 38 37 36 35 33 33 31 28 25 24 24 23 26 23 24 27 32 32
36 37 30 28 30 31 33 36 29 25 21 18 18 21 23 21 29 27 36 38 41 46 47 44 47 40 41 39 38 36 34 32 29 28 27 28 29 26 24 26 26 26 27
36 37 32 28 29 32 36 38 29 26 20 17 16 18 22 19 19 28 28 39 44 41 43 41 44 42 43 40 36 35 34 31 33 32 31 29 29 26 27 29 24 27 29
36 31 31 29 31 34 38 37 29 25 20 17 15 16 19 15 21 18 34 43 41 40 41 41 43 44 44 38 37 36 36 36 35 35 33 31 32 29 27 32 26 31 34
35 31 30 32 31 34 37 34 28 24 19 16 13 14 18 15 13 6 23 36 43 43 45 44 43 41 39 37 38 38 39 39 37 36 36 38 34 32 29 26 33 32 37
33 32 32 33 32 36 34 31 28 23 18 15 13 12 17 14 12 12 17 34 40 53 49 44 36 35 37 37 40 41 40 40 40 39 38 34 32 27 24 28 34 35 36